GFSGL_850_thetae_000.txt.gz
Theta_e
297 296 295 294 293 292 292 291 291 290 289 290 290 290 290 290 290 290 291 291 292 292 293 294 295 295 296 295 295 295 295 295 296 296 297 297 301 300 302 306 309 310 314
296 295 294 293 292 291 291 291 290 290 289 289 289 289 289 289 289 289 289 290 290 291 292 292 293 294 295 294 294 294 294 294 295 296 297 297 297 294 293 296 304 305 309
295 294 294 293 291 292 291 291 290 289 289 288 288 288 287 287 288 288 288 289 289 290 291 291 292 292 293 293 294 294 293 293 294 294 295 296 297 298 296 296 298 302 305
296 294 292 292 291 291 290 289 289 288 288 287 287 287 287 287 287 287 288 288 288 288 288 288 289 291 292 293 293 293 293 294 294 294 294 295 296 298 297 294 302 300 302
295 293 293 291 291 290 289 288 288 287 286 286 286 286 286 286 287 287 287 286 286 286 286 286 287 287 288 289 291 292 293 293 294 294 295 295 296 297 296 296 299 302 303
294 293 292 291 290 290 288 288 287 286 286 286 286 286 286 286 286 285 283 283 283 284 284 285 285 286 286 286 287 289 291 292 292 293 294 295 296 297 298 296 298 300 302
294 292 291 291 290 289 287 286 286 285 285 285 285 286 286 286 285 283 283 283 283 283 284 285 286 286 286 287 287 287 288 289 290 291 293 294 295 296 297 297 298 298 301
291 291 291 290 289 287 286 285 285 285 285 285 285 285 285 284 284 283 284 283 283 284 284 284 285 285 286 287 287 287 287 289 288 288 290 293 295 296 296 297 298 297 299
291 291 290 289 287 286 285 285 284 284 284 285 284 284 283 284 285 285 285 284 284 284 284 285 285 285 285 286 286 286 287 287 288 289 289 291 293 294 296 297 297 297 298
291 290 291 288 287 285 284 284 284 284 284 284 283 282 283 284 286 286 286 285 284 285 285 285 286 286 286 286 286 285 286 287 289 289 290 290 290 292 295 295 297 297 296
291 291 288 288 286 285 283 283 283 284 283 282 283 283 284 285 286 286 286 286 286 286 286 286 287 287 287 287 287 286 286 287 288 289 289 289 290 290 292 295 296 296 297
290 288 288 287 286 283 283 283 283 283 283 282 282 283 285 286 286 286 285 285 285 285 286 286 286 286 287 287 287 287 286 286 287 289 289 289 289 289 290 293 295 295 296
289 288 287 286 283 282 282 282 283 283 282 282 282 283 284 285 285 285 284 284 284 284 285 285 285 285 287 288 287 287 287 286 287 287 290 290 289 289 290 292 293 294 295
288 288 287 284 283 282 282 282 283 282 281 282 282 283 284 284 284 284 284 284 284 284 284 284 284 285 287 288 288 288 287 286 287 288 289 290 291 291 291 292 292 293 294
288 288 285 282 282 282 282 282 282 281 281 281 282 282 283 283 283 284 283 283 283 284 284 284 284 284 286 288 288 287 287 287 287 289 290 290 290 289 290 293 293 292 293
288 286 283 282 282 282 282 282 282 281 281 282 283 282 283 283 283 284 283 283 283 284 284 283 283 283 284 284 287 288 287 287 287 288 288 288 290 290 291 291 292 292 292
287 285 281 281 281 281 281 281 281 281 281 281 282 283 283 283 284 285 284 283 283 284 283 283 282 282 281 282 283 284 286 287 287 288 288 288 288 288 289 288 287 287 287
286 283 281 281 281 281 280 280 280 280 281 281 282 282 283 283 284 286 285 284 284 283 283 282 282 281 281 281 281 282 282 283 284 285 285 285 285 284 284 283 283 284 284
284 281 281 280 280 279 280 280 280 280 280 280 280 283 283 283 284 284 285 283 283 283 283 282 282 281 281 281 280 280 280 281 281 282 282 282 282 282 282 282 282 282 281
282 281 281 280 280 280 280 280 280 280 280 279 279 281 283 283 284 283 283 283 283 283 282 282 282 283 282 280 280 280 281 280 280 280 281 281 281 282 282 282 282 281 280
281 280 280 280 280 279 279 279 279 279 279 279 279 280 282 282 282 282 282 282 282 282 282 282 282 281 281 281 282 281 280 279 280 281 282 282 283 283 283 281 280 280 279
281 280 279 279 279 279 278 278 278 278 278 278 280 280 281 282 282 281 281 282 282 282 282 282 282 283 283 283 283 282 281 280 279 279 279 279 279 279 279 279 278 278 278
281 280 279 279 278 278 278 278 277 278 277 277 279 279 280 280 281 281 281 281 281 282 282 282 282 282 282 282 282 282 282 282 281 282 281 281 280 280 279 279 278 278 278
281 279 279 278 277 278 277 277 277 277 277 277 278 278 279 279 279 280 280 280 280 280 281 281 281 281 281 282 281 282 281 281 281 281 281 281 281 280 280 279 279 279 278
281 279 278 278 277 277 277 276 276 276 276 277 277 277 277 278 278 278 278 279 279 279 279 280 280 280 280 280 280 280 280 280 280 280 280 279 279 278 277 277 276 275 276
281 279 278 278 277 276 276 276 275 275 275 274 276 276 276 276 277 277 277 278 278 278 278 278 277 277 278 278 278 278 278 278 278 278 277 277 276 276 275 275 275 274 274

GFSGL_850_thetae_006.txt.gz
Theta_e
307 307 306 304 302 300 299 297 297 295 295 294 294 292 291 291 291 291 291 291 292 291 291 292 292 292 292 292 294 294 295 296 297 297 298 298 298 298 296 297 299 300 301
305 303 303 301 299 297 295 295 296 295 294 294 292 292 292 291 291 291 291 291 291 291 291 291 291 291 292 292 293 293 294 295 295 296 297 297 298 297 296 295 296 300 300
302 300 299 298 296 295 296 296 296 294 293 292 292 292 291 291 290 290 290 290 290 290 290 290 290 290 291 291 292 292 293 293 294 295 295 296 296 297 297 296 295 296 298
300 299 297 296 296 296 296 295 294 293 292 292 292 291 290 289 289 289 289 289 289 289 289 289 290 290 290 290 290 291 291 291 292 293 295 295 296 296 296 296 295 294 295
299 298 297 297 297 297 295 294 293 292 292 291 290 289 289 289 288 288 288 288 288 288 288 288 288 288 288 288 288 288 288 289 290 291 292 294 295 295 295 295 295 296 296
298 299 299 298 296 295 294 293 292 292 291 289 289 288 288 288 288 287 287 287 287 286 286 285 284 284 284 285 285 285 286 286 287 288 289 291 293 295 295 295 296 295 296
300 299 297 296 295 294 293 292 291 290 289 288 288 288 287 287 287 287 286 286 285 285 284 284 284 284 284 285 285 286 286 286 286 286 286 287 289 291 294 295 295 295 296
298 297 296 295 293 293 292 291 289 289 288 288 287 287 286 286 285 284 284 285 285 285 285 285 285 284 284 285 285 285 286 286 287 287 287 286 287 288 290 294 294 295 296
297 295 294 293 292 292 291 289 288 288 287 286 286 286 285 284 284 284 284 285 285 286 286 286 286 286 286 286 285 286 286 286 286 287 287 287 287 287 288 289 292 293 294
295 294 293 292 291 290 289 288 287 287 286 286 285 285 284 283 284 284 285 285 285 286 285 285 285 285 285 286 286 286 286 286 286 286 286 287 287 288 288 288 289 289 291
294 292 291 291 290 289 288 287 286 286 285 285 285 284 283 283 283 284 284 284 284 284 284 285 285 285 285 285 287 287 287 287 286 286 286 287 287 287 287 288 288 289 290
292 291 290 290 289 288 287 286 285 285 285 285 284 283 283 282 283 283 283 283 284 284 284 284 284 285 285 285 285 286 286 286 286 287 287 287 287 287 288 288 289 290 290
291 290 289 288 288 287 286 285 285 285 284 283 283 282 282 282 282 283 283 284 284 284 284 284 284 285 285 286 286 286 286 285 286 286 286 287 287 287 289 289 290 290 291
289 288 288 288 287 287 285 285 284 284 283 283 282 282 282 282 282 283 283 284 285 284 284 285 285 286 286 286 287 289 289 289 287 286 286 287 287 288 289 290 290 292 292
288 287 288 288 287 285 285 284 284 283 282 282 282 282 282 281 282 283 284 285 284 284 284 284 284 284 284 285 288 288 287 287 287 286 287 287 287 288 290 291 290 291 290
287 287 287 286 285 285 284 283 283 282 282 282 282 282 281 282 282 283 284 285 284 284 284 283 283 283 283 284 286 288 288 287 287 287 287 288 289 290 290 291 290 290 290
287 287 286 285 284 283 283 282 282 282 282 282 282 281 281 282 282 283 284 284 285 284 283 282 282 282 282 283 285 286 288 288 287 287 288 289 289 290 290 289 289 289 289
287 286 284 284 283 283 282 282 282 282 281 281 281 281 282 282 282 283 284 283 283 283 283 283 282 282 282 282 283 285 286 288 288 288 289 289 289 289 289 288 287 288 288
286 285 284 284 282 282 282 282 282 281 281 281 281 281 281 281 281 282 283 282 282 282 282 282 282 282 281 282 282 283 284 285 286 287 288 288 287 287 287 286 286 286 286
286 286 285 283 282 282 281 281 281 280 280 280 280 279 280 280 281 281 281 282 282 281 281 281 281 282 281 281 281 282 282 283 283 284 284 285 285 286 286 286 285 285 285
285 285 283 283 282 282 281 280 280 279 280 280 279 279 279 279 279 279 279 280 280 281 281 281 280 280 281 281 281 281 281 282 282 282 282 283 283 284 284 284 284 283 283
284 283 283 282 282 281 280 280 280 279 279 279 279 279 279 279 279 278 278 279 279 280 280 280 280 280 280 280 280 280 280 280 281 281 280 281 281 282 282 282 282 282 281
283 282 282 281 281 280 280 279 279 278 278 278 278 278 278 278 278 278 278 278 279 279 280 280 280 280 280 280 280 280 280 280 280 280 280 280 280 280 280 280 280 280 280
284 284 282 281 280 280 280 279 279 278 278 277 277 277 277 277 277 278 278 278 278 279 279 279 279 279 279 280 279 280 280 280 280 280 280 280 280 280 279 279 279 279 279
284 284 282 281 280 279 279 279 278 277 277 277 276 276 276 276 276 277 277 277 278 278 277 277 277 277 278 278 279 279 279 279 279 279 279 279 279 279 279 279 278 278 278
284 283 282 280 280 279 278 278 277 277 277 276 276 275 275 275 275 276 276 276 276 275 275 275 275 275 276 276 276 277 277 277 277 278 278 278 277 277 277 277 277 277 277

GFSGL_850_thetae_012.txt.gz
Theta_e
307 307 306 304 304 303 303 303 301 299 298 300 300 297 296 294 293 292 292 292 292 291 291 291 290 289 290 290 290 290 290 290 291 291 291 292 292 292 292 293 292 294 297
306 305 304 302 302 302 301 300 299 298 298 296 295 293 292 292 292 292 292 291 290 289 288 288 288 288 289 289 289 289 289 289 289 289 290 290 291 291 292 293 293 294 292
306 303 302 301 300 299 298 298 296 296 296 295 293 293 292 292 292 291 290 289 288 288 288 288 288 288 288 288 288 289 289 289 289 289 289 289 289 290 290 290 291 292 293
303 301 299 298 297 296 295 295 296 295 294 293 292 292 292 291 291 289 288 288 287 288 288 288 288 287 287 287 287 287 287 287 287 287 287 288 288 288 288 289 290 290 291
302 301 298 297 296 296 296 296 296 296 295 292 292 291 291 290 288 288 287 287 287 287 286 286 286 286 286 286 286 286 285 285 285 285 286 286 286 286 287 288 288 289 290
300 301 300 298 298 297 298 294 293 292 292 292 292 290 288 288 287 286 286 286 286 285 284 284 284 284 285 285 285 285 285 285 285 284 284 285 285 285 285 286 287 288 291
299 299 299 298 296 294 293 293 292 292 292 291 289 288 287 286 286 286 285 284 284 284 283 284 284 284 285 285 285 285 285 285 286 285 284 284 285 285 285 285 286 287 288
296 296 296 295 295 293 292 292 291 291 289 289 288 287 286 285 285 284 284 283 283 283 284 284 284 284 284 284 284 285 285 285 285 285 285 285 285 285 285 285 286 286 286
296 296 295 293 292 292 292 291 290 289 288 287 286 285 285 284 284 283 283 282 283 283 283 283 283 284 284 284 283 284 284 284 285 285 285 285 285 285 285 286 286 286 286
295 294 293 292 292 290 289 289 288 287 287 286 285 284 284 283 283 282 282 283 283 283 284 284 284 284 284 284 284 284 284 284 285 285 285 285 285 286 286 286 286 286 286
293 293 292 290 289 289 288 287 287 286 285 284 284 283 282 282 282 282 283 282 283 283 284 284 284 284 284 285 285 284 284 284 284 285 285 285 285 286 286 286 286 286 286
292 291 289 288 287 287 287 287 286 285 284 283 283 282 282 282 282 282 282 283 283 284 284 284 284 284 284 284 285 285 285 285 285 285 285 285 285 286 286 286 286 286 286
291 289 288 287 287 287 287 285 284 284 283 282 281 281 282 282 282 282 282 283 284 285 284 283 282 282 282 283 284 284 285 285 286 286 286 286 285 286 286 286 286 286 287
290 290 288 287 286 286 285 283 283 282 282 281 281 281 282 281 282 282 282 283 284 284 283 282 282 282 283 284 286 287 287 287 286 286 286 287 286 286 286 286 286 287 287
289 287 286 286 286 285 284 283 282 282 281 281 280 281 281 281 281 282 282 283 283 284 283 282 281 282 283 284 286 287 287 287 286 287 287 286 286 285 286 286 286 287 287
287 286 286 285 285 284 283 282 282 281 281 280 280 281 280 280 281 281 282 283 283 283 282 281 281 281 282 283 284 286 286 287 287 286 286 286 286 286 286 286 287 287 288
286 286 286 285 284 283 282 282 281 281 280 280 280 280 280 280 280 281 282 282 282 282 282 281 280 280 281 282 283 284 285 286 286 286 287 287 287 288 288 288 288 288 288
286 285 285 285 284 283 282 281 281 280 279 279 279 279 280 280 280 281 282 282 282 281 281 281 280 280 280 281 282 283 284 285 286 286 288 288 288 288 289 289 289 289 289
286 285 284 284 283 282 282 281 280 280 279 278 279 279 279 279 279 280 280 281 280 280 280 280 280 280 280 281 281 281 282 283 284 286 286 287 287 287 287 287 288 288 288
285 284 283 282 282 282 281 280 280 279 278 278 278 278 278 279 279 279 279 279 280 280 280 280 280 280 280 280 281 281 281 281 282 283 284 285 286 286 286 286 286 286 285
285 283 283 282 282 281 280 279 279 278 278 277 277 277 277 278 278 278 278 278 278 279 279 279 280 280 280 280 280 280 280 280 281 281 282 283 284 285 285 285 285 285 284
285 284 283 282 281 280 279 279 278 278 277 277 277 277 277 277 277 277 277 277 278 278 278 278 279 279 279 280 280 280 280 280 280 280 281 281 282 282 283 283 283 283 283
285 284 283 282 281 280 279 278 278 278 277 277 276 276 276 276 276 276 276 277 277 277 278 278 278 278 278 279 279 280 280 280 280 280 280 280 280 281 281 281 282 282 282
285 284 282 281 280 279 279 278 278 277 277 276 276 275 275 275 275 275 275 276 276 275 275 276 276 277 277 278 278 278 278 279 279 279 279 280 280 280 280 280 280 280 280
284 282 281 281 280 279 279 278 277 277 276 276 275 275 274 275 275 275 275 274 273 273 273 273 274 274 275 276 276 276 277 277 277 277 278 279 279 279 279 279 279 279 279
283 282 281 281 280 280 279 278 277 276 276 275 275 274 274 274 275 274 273 273 273 273 273 273 273 273 274 275 275 275 275 276 276 276 276 276 277 278 278 278 278 278 278

GFSGL_850_thetae_015.txt.gz
Theta_e
305 306 306 302 302 302 302 302 302 300 298 297 298 299 298 293 293 292 292 292 292 292 291 291 289 288 287 287 287 288 288 289 289 289 289 289 289 288 288 288 289 289 290
306 306 304 302 301 301 301 300 299 298 298 298 298 295 293 292 292 292 292 292 290 290 289 288 287 287 287 287 288 288 288 288 288 288 288 289 288 288 288 289 289 290 291
305 303 302 301 300 299 298 297 297 296 295 295 294 293 292 292 292 291 291 290 289 288 288 287 287 287 287 287 287 287 287 287 287 287 287 288 288 288 288 288 288 287 288
303 302 300 300 298 297 295 295 295 294 294 294 295 292 292 292 291 290 289 288 287 287 286 286 286 286 286 286 286 286 285 285 285 286 286 286 286 286 286 286 287 287 287
301 299 300 299 297 295 295 295 295 295 294 292 292 292 291 291 289 288 287 286 286 286 286 285 285 285 284 284 284 284 284 285 285 285 285 285 285 285 285 286 286 286 286
298 297 298 298 297 296 295 293 293 293 293 292 292 291 290 288 287 286 285 285 285 284 284 284 284 284 284 284 284 284 285 285 285 284 285 285 285 285 284 285 285 285 286
296 296 295 295 294 294 294 294 293 293 291 290 289 288 287 286 286 285 284 284 284 283 283 283 283 283 283 283 284 284 284 284 284 284 285 285 285 285 285 284 284 285 285
297 297 296 296 295 293 292 291 290 290 289 288 288 287 286 285 284 284 283 283 283 283 283 283 283 283 283 283 283 283 284 284 284 284 285 285 285 285 285 285 285 285 285
296 294 293 293 293 293 291 290 289 288 287 287 286 285 284 284 283 282 283 282 283 283 283 283 284 284 284 284 284 284 284 284 284 284 284 284 284 285 285 285 285 285 285
293 293 292 292 291 289 289 288 287 287 286 286 285 284 283 282 282 282 282 282 283 283 283 284 284 284 284 284 284 284 284 284 285 284 284 284 285 285 285 285 285 285 285
293 292 291 289 288 287 287 287 287 286 285 284 283 283 282 282 282 282 282 282 282 283 283 284 284 283 283 283 284 283 283 285 285 285 284 284 284 285 285 285 285 285 286
292 291 290 289 288 287 286 286 285 284 284 283 282 282 281 281 282 282 282 282 283 283 284 284 283 282 282 282 282 283 283 284 285 285 285 285 285 285 285 285 286 286 286
290 290 290 288 286 286 286 285 284 283 282 282 281 281 281 281 281 282 282 282 283 283 284 283 283 282 282 283 284 284 285 285 286 286 286 286 286 286 286 285 285 286 286
290 289 287 286 286 285 285 284 283 282 282 281 281 280 281 281 281 281 281 282 282 283 283 283 281 281 283 284 285 286 287 287 286 286 286 286 286 285 285 285 285 286 286
287 287 286 286 285 285 284 284 282 282 281 280 280 280 280 280 280 280 281 281 282 282 282 282 281 281 282 283 284 285 286 286 286 286 286 286 286 285 285 285 285 286 286
287 286 286 285 285 284 283 283 282 281 280 280 279 280 279 280 279 280 281 281 282 282 282 281 280 280 281 282 283 284 285 285 285 286 286 286 286 286 286 286 286 286 286
287 286 286 285 284 284 283 282 281 280 280 279 278 279 279 279 279 280 281 281 281 282 281 281 280 280 280 281 281 282 283 285 285 286 286 286 287 287 287 287 287 287 287
287 286 285 284 283 283 282 281 281 280 279 278 278 278 279 279 279 279 280 280 281 281 280 280 280 280 280 280 280 281 282 283 285 286 287 287 287 286 286 287 287 288 288
287 286 285 283 283 282 281 281 280 279 278 278 277 278 278 278 279 279 279 280 280 280 279 279 280 280 280 280 280 280 281 281 282 284 285 286 286 286 285 285 286 286 287
286 285 283 282 282 281 281 280 279 278 278 277 277 277 277 278 278 278 279 279 279 279 279 279 279 280 280 280 280 280 280 281 281 282 283 283 284 285 285 285 285 285 284
286 285 283 282 282 281 280 279 278 278 278 277 277 276 276 276 277 277 277 278 278 278 278 278 279 279 279 279 280 280 280 280 280 281 281 281 282 283 284 284 284 284 284
285 284 284 283 282 281 280 279 278 278 277 277 276 276 276 276 276 276 276 277 277 277 277 278 278 278 278 279 279 279 279 280 280 280 280 280 281 281 282 282 283 283 282
285 284 284 282 281 280 279 279 278 277 277 276 276 275 275 275 275 275 275 276 276 277 276 276 276 277 277 277 278 278 278 278 279 279 279 280 280 280 280 281 281 281 281
285 283 282 282 281 280 279 278 278 277 276 276 275 275 274 275 275 274 275 275 274 273 273 274 274 275 275 276 276 276 277 277 277 278 279 279 279 279 279 279 280 280 280
284 282 282 281 281 280 280 279 278 277 276 276 275 274 274 275 274 275 275 273 272 273 273 273 273 274 274 274 275 275 276 276 276 276 276 278 279 279 278 279 279 279 279
282 282 281 281 281 280 280 279 278 277 276 276 275 274 274 274 274 274 273 273 272 272 272 273 273 273 273 274 274 274 275 275 275 275 275 275 276 277 277 278 278 278 278

GFSGL_850_thetae_018.txt.gz
Theta_e
301 301 301 301 300 300 300 300 300 299 299 297 297 298 298 297 293 292 292 292 292 292 291 290 289 288 287 287 287 287 287 288 288 288 288 287 287 288 288 287 287 287 287
302 302 301 300 299 299 299 298 297 296 296 296 297 294 293 293 292 292 292 292 291 290 290 288 287 287 287 287 287 287 287 287 287 288 287 287 287 287 287 287 287 287 287
304 303 301 299 298 299 296 296 295 295 295 295 296 295 294 293 292 292 291 290 289 288 287 287 286 286 286 286 286 286 286 286 286 286 286 286 286 286 286 286 286 286 286
303 301 299 297 297 296 295 295 294 294 294 294 293 292 292 291 291 290 289 288 287 287 286 286 285 285 285 285 284 284 284 284 284 284 284 285 285 285 285 285 285 286 286
302 299 297 296 297 297 295 294 295 294 292 292 292 292 292 291 290 288 287 286 286 286 285 285 284 284 283 284 283 284 284 284 284 284 284 284 284 284 285 285 285 285 286
299 297 296 295 296 294 294 294 294 294 294 293 292 290 289 288 287 286 286 285 284 284 283 283 283 283 283 283 283 283 283 284 284 284 284 284 284 284 285 284 284 284 284
298 298 298 296 296 295 294 292 292 291 290 289 289 288 287 286 285 285 284 283 283 282 283 283 283 283 283 283 283 283 282 283 283 283 283 284 284 284 284 284 284 285 285
297 296 296 294 293 293 292 292 290 289 288 288 287 286 286 285 284 283 282 282 282 282 282 283 283 283 284 284 284 283 283 283 283 284 284 284 284 284 284 284 284 285 285
294 293 292 292 292 291 290 288 288 287 287 286 286 285 284 283 283 282 282 282 282 282 283 283 283 284 284 283 283 283 283 284 284 284 284 284 284 284 284 284 284 284 284
292 292 291 290 289 288 287 287 287 286 286 285 284 283 283 282 282 281 281 282 282 282 282 283 283 284 283 283 283 283 283 284 284 284 284 285 285 284 284 284 284 284 284
291 291 291 290 289 288 286 286 286 285 284 284 283 282 282 281 281 281 281 281 281 282 282 283 283 283 283 283 282 282 282 282 282 283 284 284 285 285 284 284 284 284 285
291 290 290 289 287 286 286 285 285 284 283 283 282 282 281 281 280 280 281 281 282 282 282 283 283 283 282 282 283 283 283 284 284 284 284 285 285 285 285 285 285 285 285
290 290 289 287 286 285 285 284 284 284 283 282 281 281 280 280 280 280 281 281 281 282 282 282 282 282 281 282 284 284 285 285 286 286 286 285 285 285 285 285 285 285 285
289 287 287 286 286 285 285 284 283 282 282 281 280 280 279 279 279 280 280 280 281 281 282 282 282 281 281 282 284 284 285 285 286 285 285 285 286 285 285 285 285 285 285
287 287 286 286 285 285 284 283 282 281 281 280 279 279 279 278 279 279 279 280 280 281 281 282 281 281 281 282 283 284 284 285 285 284 285 285 285 285 285 285 285 285 285
287 287 287 286 285 284 283 283 282 281 280 280 279 278 278 278 278 278 279 280 280 281 281 281 280 280 280 280 281 282 283 284 284 285 285 285 286 286 286 286 285 285 285
287 287 287 286 285 284 283 282 282 281 280 279 278 277 278 277 278 278 279 279 279 280 281 280 280 280 280 279 280 281 281 282 283 285 286 286 286 286 286 287 286 286 286
287 287 286 285 284 283 282 281 280 280 279 278 277 277 277 278 278 278 279 279 280 280 279 279 279 279 279 279 279 280 280 281 282 283 284 285 286 285 284 286 286 287 287
287 286 286 285 284 283 282 281 279 279 278 278 277 277 277 277 277 278 278 278 278 278 278 279 279 279 279 279 279 279 279 280 280 281 282 283 284 285 284 284 285 284 285
285 285 285 284 283 283 281 280 279 278 278 277 277 276 276 277 277 277 277 277 277 277 278 278 278 278 279 279 279 279 279 280 280 280 280 282 282 283 284 284 284 284 284
285 284 284 284 283 282 281 280 279 278 277 277 276 276 275 275 276 276 276 276 277 277 277 278 278 278 278 278 278 278 279 279 279 279 279 280 281 282 282 283 283 283 283
283 284 284 283 283 282 281 280 279 278 277 276 276 275 275 275 275 275 275 275 276 276 276 276 276 276 276 277 277 277 277 278 278 279 279 279 279 280 281 281 282 282 282
285 285 284 283 282 282 281 280 279 278 277 276 276 275 274 274 274 274 274 275 274 273 273 273 274 275 275 275 276 276 276 276 276 278 278 278 279 279 280 280 280 281 281
284 283 282 281 281 281 281 280 279 278 277 276 275 275 274 274 274 274 274 273 272 272 273 273 273 274 274 274 275 275 275 275 275 276 277 278 278 278 279 279 279 279 280
282 282 282 281 281 281 281 280 279 278 277 276 275 274 274 274 275 274 274 273 272 272 272 273 273 273 273 274 274 274 274 274 274 275 275 275 276 278 278 278 278 278 278
282 282 282 281 281 281 281 280 279 279 278 277 276 274 274 273 273 274 274 274 273 272 272 272 273 273 273 273 274 274 274 274 274 274 274 274 274 275 275 276 276 277 277

GFSGL_850_thetae_024.txt.gz
Theta_e
307 305 304 304 302 300 299 298 298 298 298 298 297 296 295 295 294 293 293 293 293 293 293 293 292 292 291 291 291 291 291 291 291 291 291 291 291 291 292 292 292 292 292
303 302 302 302 300 299 298 297 297 296 296 296 296 295 293 293 293 293 293 292 291 291 291 290 290 289 289 290 290 290 290 290 290 290 290 290 291 291 291 291 291 291 291
300 300 301 300 299 298 297 295 295 294 294 294 294 294 293 292 292 291 291 290 290 290 289 289 289 289 289 289 288 288 288 288 288 288 289 289 289 289 289 290 290 290 290
299 299 299 299 297 296 296 294 295 295 295 295 294 292 292 292 290 289 289 289 288 288 288 288 288 288 288 287 287 287 287 287 287 288 288 288 288 289 289 289 289 290 290
298 298 298 298 297 297 296 294 294 295 294 293 292 290 290 289 288 287 286 287 287 287 287 287 286 286 285 284 284 285 286 287 287 287 287 287 287 288 288 288 288 288 289
297 297 297 295 295 295 295 294 292 291 290 290 289 289 288 288 287 286 285 284 285 286 286 286 285 285 285 285 284 284 284 284 285 285 286 286 287 287 287 288 288 288 288
296 296 295 294 293 292 291 291 290 290 289 288 288 288 287 287 286 284 284 283 284 285 286 285 285 285 285 285 284 284 283 284 283 283 284 285 286 286 286 287 287 287 288
295 295 293 293 292 291 291 290 289 288 288 288 287 287 286 286 284 283 283 283 284 285 285 284 284 284 284 283 283 283 284 284 285 285 285 285 285 285 285 286 286 287 287
294 294 293 292 291 290 290 289 288 287 287 287 286 286 285 285 283 282 281 282 283 283 283 283 283 283 283 283 283 284 284 285 285 284 284 284 284 284 284 285 286 286 286
293 292 292 291 290 290 288 287 287 286 286 286 285 284 284 283 282 281 280 281 281 282 282 283 283 283 283 283 283 284 284 284 284 284 284 284 284 284 284 284 285 285 286
292 292 291 290 289 287 287 287 286 286 286 284 283 282 282 282 281 280 280 280 280 281 282 283 283 284 283 282 282 282 282 282 284 284 284 285 285 285 285 285 285 286 286
292 291 290 289 288 287 287 286 286 286 285 284 283 283 283 282 281 280 279 280 280 280 281 282 282 282 282 282 282 281 282 283 284 284 285 286 286 286 286 286 286 286 286
291 290 289 288 287 287 287 286 286 285 284 283 282 282 282 281 281 280 279 280 279 280 281 281 281 281 281 281 281 282 283 283 283 284 285 286 286 286 285 286 286 286 286
290 289 288 288 287 287 286 286 285 284 283 282 282 281 281 281 280 279 279 279 279 280 280 280 280 281 280 280 280 281 281 282 283 283 283 284 286 286 286 286 286 286 286
289 288 288 287 287 286 285 285 283 283 281 280 280 280 280 279 278 277 278 278 278 279 280 280 280 280 280 280 280 280 280 281 281 282 284 284 285 286 286 286 286 286 286
288 288 287 287 286 285 285 284 284 282 281 279 278 278 277 277 277 277 278 278 279 279 279 279 279 279 279 279 279 279 280 280 280 281 283 283 284 285 286 286 286 286 286
286 286 286 286 286 285 284 284 283 283 281 280 279 277 277 276 276 276 278 278 278 279 278 278 278 278 278 278 277 278 279 279 279 280 281 282 282 283 285 285 286 287 287
287 287 285 285 284 284 283 283 282 282 281 281 279 278 276 275 276 277 277 277 276 277 277 277 277 277 278 277 276 276 277 278 278 279 279 280 282 282 283 283 284 285 286
286 285 284 284 284 284 283 282 282 281 280 280 280 278 276 275 275 275 276 275 275 275 276 276 277 277 275 275 275 276 276 277 278 278 278 279 280 281 282 282 283 284 284
284 283 283 283 284 283 283 282 281 281 280 280 279 277 276 276 275 275 274 273 273 273 275 275 275 274 274 275 274 275 276 276 277 277 278 278 279 280 281 281 282 283 283
284 284 283 283 284 283 282 282 281 280 280 279 279 276 275 275 275 274 273 273 273 272 272 272 273 273 274 274 274 274 275 275 276 277 278 278 278 279 280 280 281 282 282
283 283 284 283 283 283 282 281 280 280 280 279 278 277 275 275 274 274 273 273 272 272 272 272 272 273 274 274 275 275 274 274 275 276 277 277 278 279 279 280 280 281 281
283 282 283 283 282 282 282 281 281 280 279 278 277 277 276 275 274 274 273 274 273 272 272 272 272 273 273 273 273 274 274 274 275 275 275 275 277 277 278 279 279 279 279
282 282 282 283 282 282 282 281 281 280 279 278 277 277 276 275 274 275 275 275 274 272 272 272 272 272 272 273 273 273 273 274 274 274 275 275 275 276 276 277 278 277 278
282 282 283 282 282 282 282 282 281 280 280 279 278 277 276 275 274 274 274 275 275 273 272 272 272 272 272 272 273 273 273 273 274 274 274 274 274 274 275 275 276 277 277
282 282 282 282 282 282 282 282 281 281 280 279 278 277 276 274 274 274 274 274 273 273 273 272 272 272 272 273 273 273 273 273 273 273 274 274 274 274 274 274 274 275 275

GFSGL_850_thetae_027.txt.gz
Theta_e
304 303 303 303 303 302 301 300 300 299 298 297 295 295 296 295 295 295 294 294 294 293 293 293 293 293 292 292 292 292 293 292 292 292 291 292 292 292 293 293 293 293 293
300 300 301 301 301 301 300 298 298 297 297 296 295 295 296 295 294 294 293 293 292 292 292 291 291 290 290 290 291 291 291 291 291 291 291 291 291 291 292 292 292 293 292
300 300 300 300 300 299 298 298 297 296 296 296 296 295 295 294 293 293 292 292 291 290 290 290 290 290 290 290 290 290 290 290 290 290 290 290 290 290 290 291 291 291 291
300 299 299 299 299 299 297 296 296 296 295 294 294 294 293 292 291 290 290 289 289 289 289 289 289 289 289 289 289 289 289 289 288 288 289 289 289 290 290 290 290 291 291
299 299 298 297 297 296 296 296 295 295 293 293 292 291 291 290 290 289 288 287 286 287 287 288 288 288 287 287 286 286 286 287 287 288 288 289 289 289 289 289 289 290 290
298 298 297 296 295 295 295 294 293 293 292 291 290 290 290 289 289 288 287 286 285 286 287 287 288 288 287 287 286 285 285 285 285 285 286 287 287 288 288 288 288 289 289
298 297 296 295 295 294 293 293 292 292 290 290 289 289 289 288 288 287 286 285 284 285 286 287 287 287 286 286 286 285 284 284 284 284 284 285 286 286 286 287 287 288 288
297 296 295 294 294 293 292 292 291 289 289 289 289 288 288 287 286 286 285 284 284 284 285 285 285 285 285 284 284 284 284 285 285 285 285 285 286 286 286 286 287 287 287
295 295 294 294 293 292 291 290 289 289 288 288 288 287 286 286 285 284 283 282 282 283 283 283 283 284 284 284 284 284 284 284 285 286 285 285 284 284 284 284 285 285 287
294 294 294 293 292 291 290 289 289 288 288 288 287 285 284 284 284 282 281 281 280 281 282 282 282 283 283 284 284 283 283 284 285 284 284 284 285 285 285 285 284 285 285
295 294 294 293 291 290 289 289 288 288 288 287 286 284 284 284 283 282 282 281 281 281 281 282 282 283 284 283 283 283 282 282 283 283 284 285 286 286 286 286 286 286 285
295 294 293 292 291 289 289 288 288 288 287 286 285 284 284 283 283 283 282 280 280 280 280 281 282 282 282 282 282 282 281 282 283 284 284 285 287 288 287 287 287 287 287
294 293 292 291 290 289 288 288 288 287 286 285 284 283 283 283 282 282 281 279 279 279 280 281 281 281 281 281 281 281 281 282 283 284 284 285 286 286 287 287 286 286 287
293 292 291 290 289 288 288 287 287 286 285 284 283 283 282 281 281 280 279 279 279 279 279 280 281 281 281 281 281 281 282 282 283 283 284 284 285 286 287 287 287 287 287
292 291 290 289 288 288 287 287 286 285 284 282 281 280 280 279 279 277 277 277 278 278 279 280 280 280 280 280 280 281 281 281 282 282 283 284 285 286 287 287 287 286 287
290 289 289 288 288 287 286 286 285 284 284 282 281 280 279 278 276 276 276 276 278 278 279 279 279 278 278 279 279 280 280 280 280 281 282 283 283 284 285 286 287 287 287
288 287 288 287 286 286 285 285 284 284 283 282 282 281 279 278 276 276 275 277 277 278 278 278 278 277 277 278 278 278 279 279 279 280 281 281 282 283 284 284 285 286 287
287 287 287 286 286 285 285 284 283 283 283 282 282 281 280 278 276 276 275 277 277 277 277 276 276 276 276 277 277 277 278 278 279 279 280 280 281 282 283 283 284 284 285
287 286 285 285 285 285 284 284 283 283 282 282 282 281 280 277 277 277 276 275 276 276 275 275 275 275 275 275 275 276 277 278 278 278 279 280 280 281 282 282 283 283 284
286 285 284 284 284 284 284 283 283 283 282 282 282 281 278 277 277 277 276 275 274 274 274 274 274 274 274 274 275 275 276 277 277 277 278 279 280 280 281 281 282 283 283
285 285 284 283 284 284 283 283 283 282 282 281 281 280 278 276 277 276 276 275 274 273 273 273 273 273 273 273 274 274 275 275 275 275 276 278 279 280 280 281 281 282 282
284 284 284 284 284 283 283 283 282 282 282 281 281 280 278 278 277 276 276 275 274 273 273 273 273 273 273 273 273 273 273 274 274 274 275 276 278 278 279 280 280 280 281
284 283 283 283 283 283 283 283 282 282 282 281 280 279 279 278 277 276 275 274 274 273 273 273 273 273 273 273 273 273 273 273 274 274 274 275 276 277 278 278 279 279 279
283 283 283 283 283 283 283 283 283 282 281 281 280 280 279 278 277 276 275 274 275 274 273 273 273 273 273 273 273 273 273 273 274 274 274 274 275 275 276 277 277 278 278
283 283 283 283 283 283 283 283 283 282 282 281 281 280 279 278 277 276 275 274 274 274 274 273 273 273 273 273 273 273 273 273 273 273 274 274 274 274 275 275 275 277 277
283 283 283 283 283 283 283 283 283 282 282 282 281 280 279 277 277 276 275 274 274 273 273 273 273 273 273 273 273 273 273 273 273 273 273 273 273 274 274 274 274 275 275

GFSGL_850_thetae_033.txt.gz
Theta_e
304 303 301 299 300 300 300 300 300 297 297 297 296 296 296 295 294 294 294 293 293 293 292 292 292 291 290 290 290 290 290 290 291 291 291 290 290 291 291 292 293 292 293
303 301 299 300 299 299 299 300 297 296 295 296 296 295 294 293 293 292 291 291 291 291 291 291 290 288 287 287 289 289 289 289 290 290 290 290 289 290 290 290 290 291 291
301 299 299 299 299 299 299 297 294 294 294 294 294 293 292 292 291 290 290 290 290 290 289 289 288 287 286 285 287 288 288 288 288 289 289 289 289 289 289 288 288 289 289
300 299 298 298 299 298 297 295 293 294 294 294 293 292 291 290 290 290 289 289 288 288 288 287 286 286 285 286 287 287 288 288 288 287 286 286 286 287 287 288 289 290 290
299 298 298 298 298 298 297 295 294 293 293 293 292 290 290 289 289 289 289 288 287 287 287 286 285 284 285 286 286 287 287 287 287 286 286 285 285 285 285 286 288 288 289
300 299 298 297 298 298 297 293 293 293 293 292 290 289 289 288 288 288 287 286 286 286 284 283 283 283 284 284 285 285 285 285 286 286 285 285 284 284 284 284 285 285 286
300 299 298 297 296 296 294 293 293 292 291 290 289 289 288 288 288 287 286 285 284 283 282 281 281 281 281 282 282 283 283 283 284 284 284 284 284 284 285 285 285 285 285
297 297 298 297 296 295 294 294 293 292 290 289 288 288 288 287 287 286 284 284 283 283 282 282 281 281 281 281 281 282 282 283 283 283 284 284 284 285 285 285 285 285 285
295 295 295 295 295 294 294 293 292 290 289 289 288 288 288 287 285 284 283 283 282 282 282 281 280 280 280 281 282 282 283 283 283 283 284 284 283 283 285 285 285 284 284
294 295 295 294 294 294 293 292 290 289 289 289 288 288 287 286 284 283 283 282 282 281 280 280 279 280 280 281 282 282 281 282 282 282 282 283 283 283 283 284 284 284 285
293 293 293 293 294 294 291 290 289 289 288 288 288 287 286 284 283 282 282 281 281 280 279 279 279 279 280 281 281 281 281 281 281 281 282 283 284 284 285 286 287 287 287
293 293 291 293 293 292 292 290 289 288 288 287 287 285 284 283 281 280 280 279 278 278 278 279 279 280 281 281 281 281 282 282 282 282 283 284 284 285 285 285 286 286 287
292 291 290 292 291 291 290 289 288 288 287 287 285 284 283 282 281 280 279 278 277 277 278 279 280 280 280 280 280 281 281 282 282 282 283 283 284 285 285 286 287 287 286
292 291 290 290 290 289 289 289 288 286 286 285 284 284 283 282 281 280 278 277 277 278 278 279 279 279 279 279 279 280 280 281 281 281 282 282 283 284 285 285 286 287 287
292 290 289 289 289 289 288 287 286 286 285 284 284 283 282 282 281 279 278 277 277 278 278 278 278 278 278 278 278 279 279 279 280 280 281 281 282 283 284 285 285 286 286
291 289 288 288 288 287 286 285 285 285 284 283 283 283 282 282 281 279 278 277 277 277 277 277 277 277 276 277 277 278 278 278 279 279 280 280 281 282 283 283 284 284 285
289 288 287 287 287 286 285 285 284 283 283 283 283 282 282 281 280 279 278 277 276 276 276 276 276 276 276 276 276 276 277 277 278 279 279 280 281 282 282 282 282 283 284
288 287 287 286 284 284 284 284 283 283 283 283 282 282 281 281 280 279 278 277 276 275 275 275 275 275 275 275 275 275 276 276 277 278 279 280 280 281 281 282 282 283 283
286 286 285 285 284 283 284 284 283 283 283 282 282 282 281 281 280 278 277 277 276 275 274 274 274 274 274 274 274 275 275 275 276 277 278 279 279 280 280 281 281 282 282
286 286 285 284 283 283 283 283 283 283 282 282 282 282 281 281 279 278 278 277 276 276 274 273 274 274 273 274 274 274 274 274 274 276 277 278 278 279 279 280 280 280 280
285 285 285 283 283 283 283 283 283 283 282 283 282 282 281 280 279 279 278 277 276 276 275 273 273 273 273 273 273 273 273 273 273 274 276 277 277 278 278 279 279 279 279
284 283 283 283 283 283 283 283 283 283 283 283 282 282 281 281 280 279 278 277 277 276 276 274 273 273 273 273 273 273 273 273 273 273 275 275 275 276 277 277 278 278 278
283 283 283 283 283 283 283 283 283 284 284 283 282 282 281 281 280 279 279 278 277 276 275 275 274 273 273 273 273 273 273 273 273 273 273 274 274 274 275 275 277 277 277
284 283 283 283 283 283 283 283 283 283 283 283 283 282 282 281 281 280 278 278 277 276 275 274 274 274 274 274 273 273 273 273 273 273 273 273 274 273 274 274 275 275 275
285 284 284 283 283 283 283 283 283 283 283 283 282 282 282 282 281 280 279 278 277 276 275 275 274 274 274 274 273 273 273 273 273 273 273 273 273 273 273 273 274 274 274
285 284 283 283 283 283 283 283 283 283 283 283 283 282 281 281 281 280 279 278 278 276 275 275 275 276 276 274 274 274 274 274 273 273 273 273 273 273 273 273 273 273 273

GFSGL_850_thetae_036.txt.gz
Theta_e
305 303 303 301 298 297 297 298 298 299 298 293 294 295 295 294 293 292 292 291 291 291 291 291 291 291 289 289 289 287 287 288 289 289 289 289 289 289 290 290 290 290 291
304 302 300 299 298 297 297 297 298 298 297 293 293 293 293 293 291 291 290 290 290 290 290 289 289 288 288 288 287 286 285 287 288 288 288 288 288 289 289 289 289 289 289
302 301 300 299 298 297 298 298 298 297 293 293 292 293 293 291 290 290 289 289 289 288 288 287 287 286 286 286 285 285 285 286 287 288 287 287 287 287 286 287 287 288 288
301 300 300 299 298 297 298 298 297 296 293 293 293 293 292 291 289 289 288 288 288 287 286 285 285 285 284 284 285 285 286 286 287 287 287 287 286 286 285 285 285 285 287
301 300 300 299 298 298 297 297 296 295 293 293 293 291 290 289 288 288 288 288 287 286 285 284 283 282 281 282 284 284 284 285 285 286 286 286 286 285 285 285 284 284 285
298 298 299 297 298 297 296 296 296 294 293 292 291 290 289 288 288 288 287 286 285 284 283 283 282 282 281 281 281 282 282 283 283 283 284 284 284 284 284 284 284 284 284
295 295 295 294 294 295 295 295 294 294 291 290 290 289 288 288 287 287 285 284 284 283 283 282 282 281 281 280 281 281 281 282 282 283 283 284 283 284 284 284 284 285 285
294 294 294 294 293 293 293 293 293 292 291 290 289 288 288 287 287 285 284 284 283 282 282 281 281 280 279 280 280 281 282 282 282 282 283 283 283 283 284 284 284 285 285
294 294 293 293 292 291 293 294 292 291 289 289 288 288 287 287 285 284 283 283 282 281 281 280 279 279 279 279 280 281 281 281 281 281 282 282 283 283 284 283 283 285 285
293 293 293 292 291 292 293 292 290 289 289 288 288 287 286 285 284 283 281 281 280 279 278 278 279 279 279 280 281 281 281 281 281 281 281 282 282 282 282 283 283 283 284
293 293 292 291 291 292 292 289 289 289 288 288 287 286 285 284 283 282 281 280 278 278 278 278 279 280 280 280 281 281 281 281 282 282 282 282 283 284 284 284 285 285 286
293 293 292 291 290 290 291 290 290 288 287 287 286 285 284 283 282 281 281 279 278 277 278 279 279 279 279 280 280 280 281 282 282 282 283 283 283 284 284 285 285 286 286
292 292 292 291 290 290 289 289 288 287 287 286 285 284 283 282 282 281 280 278 278 278 278 278 278 279 279 279 279 280 280 281 281 282 282 282 283 284 284 285 286 287 287
292 292 291 290 289 289 288 288 287 286 286 285 284 284 283 282 281 281 279 278 277 277 278 278 278 278 278 278 278 279 279 279 280 280 281 281 282 283 284 284 285 286 286
291 290 289 288 288 288 287 286 285 285 285 284 283 283 282 282 281 280 279 278 277 277 277 277 277 277 277 277 277 278 278 278 279 279 280 281 281 282 283 284 284 285 285
289 288 287 287 287 286 286 285 285 284 284 283 283 283 282 281 281 280 278 278 277 276 276 276 276 276 276 276 276 277 277 277 278 279 279 280 281 282 282 283 283 283 284
287 288 286 286 285 284 284 283 283 283 283 283 282 282 282 281 281 280 278 277 277 276 275 275 275 275 275 275 275 275 276 276 277 278 279 280 281 281 281 282 282 283 283
287 286 286 285 284 283 283 283 283 283 283 282 282 282 281 281 280 279 278 277 277 277 274 273 274 275 274 274 274 274 275 275 276 277 278 279 280 280 281 281 281 282 282
286 286 286 286 284 283 283 283 283 283 282 282 282 282 281 281 280 279 278 278 277 276 275 273 273 274 274 273 274 274 273 273 274 276 277 278 279 279 280 280 280 280 281
285 285 285 284 283 282 282 283 283 283 282 282 282 282 282 281 280 280 279 278 277 276 276 274 273 273 273 273 273 273 273 273 273 275 276 277 277 278 278 279 279 279 279
284 284 284 283 282 282 282 282 283 283 282 283 283 282 281 281 281 280 279 278 277 276 276 275 274 273 273 273 273 273 273 273 273 274 275 275 275 277 277 277 278 278 278
284 283 283 283 282 282 282 282 282 283 283 283 283 282 282 282 281 280 280 279 278 277 276 275 275 274 274 274 274 273 274 273 273 273 274 274 274 275 276 276 277 277 277
284 284 284 282 282 282 282 282 283 283 283 283 283 283 282 282 281 280 280 279 278 277 276 275 274 274 274 274 274 274 274 274 273 273 273 273 274 274 274 274 275 276 275
285 284 284 284 283 282 282 282 282 283 283 283 283 282 282 282 281 281 280 279 278 277 276 275 275 274 274 274 274 274 274 274 273 273 273 273 273 273 273 273 274 274 274
285 285 284 284 284 283 283 282 282 282 283 283 283 283 282 282 281 281 280 279 279 278 276 275 275 275 275 275 274 275 276 275 274 273 273 273 273 273 273 273 273 274 274
286 285 285 285 284 283 283 283 282 282 282 282 282 282 282 282 282 281 281 280 279 278 277 275 275 276 276 276 276 276 275 274 274 273 273 273 273 273 273 273 273 273 273

GFSGL_850_thetae_039.txt.gz
Theta_e
303 303 301 300 300 299 298 298 298 298 298 298 297 293 292 293 293 292 291 290 290 289 289 290 289 289 289 289 288 287 287 286 285 286 286 286 287 287 288 288 289 289 289
302 302 301 300 300 298 298 298 298 298 298 296 293 293 293 293 292 291 290 289 289 289 288 288 288 287 287 286 285 285 285 285 285 285 285 287 288 287 287 287 287 286 288
301 301 300 300 298 298 298 298 297 297 296 296 294 292 293 291 291 290 289 288 288 288 287 287 286 285 284 284 283 283 284 285 285 286 286 287 287 287 287 286 286 286 285
302 301 299 298 299 297 297 296 295 296 295 295 293 293 292 291 289 288 288 287 287 287 286 285 284 284 283 282 282 282 283 284 284 285 285 285 286 286 286 286 286 285 285
296 295 295 294 295 296 294 294 295 294 295 294 293 292 290 289 288 288 287 287 287 285 284 284 283 282 282 281 281 281 281 281 282 283 283 284 284 285 285 285 285 284 284
294 293 294 294 293 293 293 293 293 293 294 294 293 290 290 288 288 287 287 286 285 284 283 283 282 282 281 281 281 280 280 281 281 281 282 282 283 283 284 284 283 283 284
293 294 293 293 293 292 292 291 292 293 293 292 291 290 288 288 287 287 286 284 283 283 282 281 281 280 280 280 279 280 280 281 281 281 282 282 282 282 283 283 283 283 284
293 293 293 293 293 292 290 291 293 293 291 290 288 288 288 287 287 286 284 283 282 281 280 279 279 279 279 279 279 280 280 281 281 281 281 281 282 283 283 283 283 284 283
293 293 293 292 292 291 290 292 292 291 290 289 288 288 287 287 285 284 283 282 281 280 280 280 279 279 279 279 280 280 281 281 281 281 281 281 281 281 282 284 284 283 283
292 292 293 292 292 291 290 291 291 290 289 289 288 287 286 285 284 282 281 281 280 279 279 279 279 279 280 280 280 280 280 281 281 281 281 282 281 281 282 282 282 282 282
292 292 292 292 292 291 290 290 290 289 289 287 287 286 285 284 283 282 281 280 279 278 278 278 279 279 279 279 279 279 280 281 281 282 282 282 282 283 283 283 283 283 283
291 292 292 291 291 291 289 289 289 288 287 287 286 285 284 283 282 281 281 280 278 277 278 278 278 278 278 278 279 279 279 280 281 281 282 282 283 283 284 284 285 285 285
290 291 291 291 290 289 289 289 288 287 286 286 285 284 283 282 282 281 280 279 278 277 277 277 277 277 278 278 278 278 279 279 280 280 281 281 282 283 283 284 285 285 286
288 289 289 289 287 287 288 287 286 286 285 284 284 283 283 282 281 281 280 279 278 278 277 277 277 277 277 277 277 278 278 278 278 279 280 280 281 282 283 284 285 285 286
287 287 288 287 287 287 286 286 285 284 284 283 283 283 282 282 281 281 279 278 277 277 276 276 276 276 276 276 277 277 277 278 278 279 279 280 281 282 282 283 283 284 285
287 287 287 286 286 286 284 283 283 283 283 283 283 282 282 282 281 280 279 278 277 277 275 274 276 276 276 275 275 275 276 276 277 278 279 280 280 281 282 282 282 283 283
286 287 287 286 285 284 283 282 282 282 283 283 282 282 282 281 281 280 279 278 277 277 276 274 274 274 274 274 274 274 274 274 276 277 278 279 280 281 281 281 282 282 283
286 286 286 285 284 284 282 282 282 282 283 282 282 282 281 281 281 280 279 278 277 277 277 274 274 274 273 274 274 274 273 273 274 277 277 278 279 279 280 280 280 281 281
286 285 285 285 285 284 283 282 282 282 282 282 282 282 282 281 281 280 279 279 278 277 277 276 274 274 273 273 273 273 273 273 274 275 277 277 278 278 279 279 279 279 280
285 284 284 283 283 283 282 282 282 282 282 282 282 282 282 281 281 280 280 279 278 277 276 276 275 274 274 273 273 273 274 274 273 274 275 275 276 277 278 278 278 278 278
285 285 283 282 283 282 282 282 282 282 282 282 282 283 282 282 281 281 280 279 278 278 276 275 276 275 274 274 274 274 274 274 273 273 274 274 274 275 276 276 277 277 277
285 285 284 284 283 282 282 282 282 282 282 282 283 283 282 282 282 281 280 280 279 278 277 276 275 275 274 275 275 274 274 274 274 273 273 274 274 274 274 275 275 276 275
285 285 284 284 283 283 282 282 282 282 282 282 282 282 282 282 282 281 281 280 279 278 277 276 275 275 274 274 274 274 274 274 274 274 273 273 273 273 273 274 274 274 275
285 285 284 284 284 283 283 283 282 282 282 282 282 282 282 282 282 281 281 280 280 279 278 276 275 276 276 275 275 274 275 276 275 274 273 273 273 273 273 273 273 274 274
288 287 286 285 285 285 284 284 283 283 282 282 282 282 282 282 282 281 281 281 280 280 279 278 276 276 277 277 276 276 276 275 274 274 273 273 273 273 273 273 274 274 274
287 287 287 286 286 285 285 285 284 283 283 282 282 281 281 282 282 281 281 281 280 280 279 278 277 276 277 277 277 276 275 275 274 274 273 273 273 273 273 273 273 273 273

GFSGL_850_thetae_042.txt.gz
Theta_e
304 302 301 300 299 299 298 298 298 297 298 298 297 296 295 294 293 292 292 291 290 289 288 288 288 288 288 287 287 286 286 285 285 285 285 285 285 285 287 287 287 287 287
302 301 301 301 299 299 298 298 297 297 296 297 296 295 295 293 292 292 290 289 288 288 288 287 287 287 286 285 284 284 283 283 283 284 284 284 285 285 287 287 286 286 286
301 301 298 296 294 294 296 295 294 294 295 295 295 295 295 293 292 291 289 288 287 287 287 287 286 285 284 283 283 282 282 282 282 283 283 284 284 285 286 286 286 286 286
296 295 294 293 293 293 293 293 292 292 293 294 295 294 294 292 291 289 288 288 287 287 287 285 284 283 283 282 282 282 281 281 280 281 282 283 283 283 284 285 285 286 285
294 293 293 293 293 293 292 292 291 291 293 293 294 293 293 291 289 289 287 287 287 286 285 284 283 282 282 281 281 281 281 280 280 280 281 281 281 282 282 283 284 284 284
293 292 293 293 293 292 292 292 290 291 293 293 292 291 290 289 288 287 287 287 286 284 283 282 282 281 280 280 280 279 279 279 280 280 280 281 281 281 282 282 283 283 283
292 292 292 292 292 292 292 291 290 291 292 291 290 289 289 288 287 287 287 285 284 283 282 281 280 279 279 279 279 279 279 280 280 280 281 281 281 281 282 282 282 282 283
291 291 292 292 292 292 292 291 290 290 289 289 289 288 288 288 287 286 285 284 283 282 281 280 280 279 279 279 279 280 280 281 281 281 281 281 281 281 281 281 282 283 283
289 290 291 292 292 292 291 291 290 291 290 289 289 288 288 287 286 284 283 282 281 281 280 280 279 279 279 279 280 280 280 280 281 281 281 281 281 281 281 281 282 283 283
290 290 290 292 292 291 291 290 290 290 290 289 288 287 286 286 284 283 282 281 281 280 279 279 278 278 278 279 279 279 279 279 280 280 281 282 282 282 281 281 281 282 283
290 290 290 291 290 291 290 289 288 289 289 288 287 286 285 284 283 282 281 281 280 279 278 278 278 278 277 278 278 278 278 279 279 280 281 282 282 283 283 283 282 282 282
289 289 289 290 290 289 289 288 289 289 288 287 286 285 284 283 282 282 281 280 279 278 278 278 277 276 276 277 278 278 278 278 279 279 280 281 282 282 283 283 284 284 284
289 289 288 288 288 288 287 287 288 287 287 285 285 284 283 282 282 281 281 280 279 278 278 277 277 277 277 277 277 277 278 278 278 279 279 280 280 281 282 283 284 285 285
289 288 287 287 287 287 287 287 287 286 285 284 284 283 283 282 282 281 281 280 278 278 278 276 275 276 276 277 277 277 277 277 277 278 279 279 280 281 282 283 284 285 285
288 286 286 287 286 286 286 285 284 284 284 283 283 283 282 282 281 281 280 279 279 278 278 276 275 276 277 276 275 275 276 276 277 278 278 279 280 281 282 282 283 283 284
287 286 286 286 286 285 285 284 282 282 282 282 282 282 282 282 281 281 280 279 279 277 278 276 275 275 275 275 275 275 274 274 275 277 278 279 280 280 281 281 282 282 283
288 286 286 286 286 285 284 283 282 282 282 282 282 282 282 281 281 281 280 279 279 278 277 277 275 274 274 274 274 274 274 273 274 276 277 278 279 279 280 280 281 281 282
286 285 285 285 285 284 285 283 282 282 282 282 282 281 281 282 281 281 280 280 279 278 277 277 276 274 274 274 274 274 274 273 274 275 277 277 278 278 279 279 279 279 280
286 285 285 284 284 284 283 282 282 282 282 282 282 282 281 282 281 281 280 280 279 279 277 276 277 276 274 274 274 274 274 274 273 273 275 275 276 277 278 278 278 278 278
286 285 284 283 283 282 282 282 282 282 281 282 281 281 282 282 282 281 281 280 280 279 278 277 276 276 276 275 274 274 274 274 274 273 274 274 274 275 276 276 277 277 277
285 286 285 284 284 283 282 282 282 281 282 282 281 282 282 282 282 282 281 281 280 280 279 277 276 276 275 275 275 275 274 274 274 274 273 273 274 274 274 275 275 276 275
286 286 285 285 284 284 283 282 282 281 281 281 282 282 282 282 282 282 281 281 281 280 279 278 277 276 276 275 274 274 274 274 274 274 273 273 273 273 273 273 274 274 275
287 287 285 284 284 284 283 283 283 282 282 282 281 281 282 282 282 282 282 281 281 280 280 279 278 276 276 276 276 275 274 275 276 275 274 273 273 273 273 273 274 274 274
286 286 286 286 285 285 285 285 284 284 283 283 282 282 282 282 282 282 282 281 281 280 280 279 279 277 276 277 277 277 276 276 275 275 274 274 273 273 273 273 274 274 274
286 286 286 286 286 286 286 286 285 285 285 284 283 282 282 282 281 281 282 282 281 281 280 280 279 278 277 277 277 277 276 275 275 274 274 274 273 273 273 273 273 274 274
285 285 286 286 286 286 286 286 286 286 286 285 284 283 282 282 282 281 281 282 281 281 280 280 279 279 277 277 277 277 276 275 274 274 274 274 273 273 273 273 273 273 273

GFSGL_850_thetae_045.txt.gz
Theta_e
303 302 301 301 301 300 297 296 298 297 296 295 294 296 297 295 295 293 293 292 290 289 288 288 287 287 287 287 286 285 285 285 285 285 285 285 286 286 286 287 287 287 288
300 300 300 298 295 294 293 293 293 292 292 292 293 296 295 295 294 293 292 290 289 288 287 287 287 287 286 285 284 284 284 283 283 284 284 285 285 285 285 286 286 287 287
299 297 296 295 292 292 293 293 292 291 291 291 292 295 295 294 293 293 290 289 288 288 287 287 286 285 284 284 284 283 283 283 283 283 283 283 283 284 284 285 286 286 286
296 295 293 292 293 293 292 292 291 291 290 290 291 293 293 292 292 291 289 289 288 287 287 286 285 284 284 283 283 283 283 282 282 282 282 282 283 283 283 284 284 285 286
294 292 292 292 292 292 292 291 291 291 290 290 292 292 291 291 291 289 289 288 287 287 285 284 283 282 282 281 281 281 281 281 281 281 281 282 282 282 282 283 283 284 284
291 291 291 291 291 291 291 291 291 291 290 291 291 290 289 289 289 288 287 287 287 285 284 283 282 281 280 280 280 279 279 279 280 281 281 282 282 282 282 283 283 283 283
290 290 290 290 291 291 292 292 291 291 290 289 289 289 288 288 288 287 287 286 284 283 283 282 281 280 280 279 279 279 280 280 280 281 281 281 282 282 282 282 283 283 283
290 289 290 290 290 291 292 291 291 291 290 290 289 289 288 288 288 287 286 284 283 283 282 281 280 279 279 278 279 280 280 280 280 280 281 281 281 282 282 282 282 282 282
289 289 289 290 290 291 291 290 291 290 290 290 289 288 288 287 286 286 284 283 283 282 281 280 279 278 278 278 279 279 279 279 280 280 280 280 282 282 282 282 282 282 283
289 289 289 289 289 290 289 290 290 288 288 289 288 288 287 286 285 284 283 283 282 281 280 279 278 278 277 278 278 278 278 279 279 279 279 280 281 282 282 282 282 282 282
289 289 289 289 289 289 289 289 288 288 289 288 288 287 286 285 284 283 282 282 281 280 279 279 278 278 277 277 277 277 278 278 278 278 279 280 280 281 282 283 283 283 282
289 289 289 289 288 288 288 287 287 288 288 287 287 286 285 284 283 283 282 281 281 279 278 278 277 276 277 277 277 277 277 278 278 278 278 279 279 280 281 282 283 284 284
289 289 289 288 287 288 287 287 287 287 287 286 285 284 284 283 283 282 282 281 280 279 278 278 277 276 277 277 276 276 277 277 277 277 277 278 279 280 281 282 283 284 285
289 289 288 287 287 287 286 286 286 286 285 285 284 283 283 283 282 282 281 281 280 279 278 278 277 275 276 276 275 275 275 275 276 277 278 279 280 281 282 282 283 284 285
288 288 287 286 287 286 285 285 285 284 283 283 283 283 283 282 282 282 281 280 280 279 278 278 277 276 276 276 275 275 274 274 275 277 278 279 280 280 281 282 282 283 284
286 287 287 286 286 286 285 284 284 283 282 282 282 282 282 282 282 281 281 280 280 279 279 278 278 276 275 275 275 275 274 274 274 276 277 278 279 279 280 280 281 282 282
286 286 286 285 285 285 285 284 284 284 282 282 282 282 282 282 282 281 281 280 280 280 279 277 278 277 275 275 275 274 274 274 274 275 276 277 278 278 279 278 279 279 280
286 286 286 285 285 285 284 284 284 283 282 282 282 282 282 281 281 281 281 280 280 280 279 278 277 277 276 275 275 274 274 274 274 274 274 275 275 277 277 278 278 278 279
286 286 285 285 284 284 283 283 283 282 281 282 282 282 282 281 281 282 281 281 281 280 280 279 278 277 277 276 276 275 274 274 274 274 274 274 274 275 276 276 277 277 277
286 286 285 285 284 284 284 284 283 282 282 281 281 281 281 281 281 282 282 281 281 281 280 279 278 277 276 276 275 276 276 275 274 274 273 274 273 273 274 275 275 276 275
286 286 285 286 285 285 284 284 284 283 282 281 281 281 281 281 282 282 282 282 282 281 281 280 279 278 277 276 276 275 275 275 275 274 273 273 273 273 273 273 274 274 275
286 287 286 286 286 286 285 284 284 284 283 282 282 281 281 281 282 282 282 282 281 281 281 280 280 279 277 277 277 276 275 274 275 275 274 273 273 273 273 273 273 274 274
287 286 286 286 286 286 285 285 285 284 284 284 283 283 282 281 281 282 282 282 282 282 281 281 280 280 278 277 277 277 277 276 276 275 274 273 273 273 273 274 274 274 274
285 285 285 285 285 286 286 286 286 285 285 285 285 285 284 283 282 282 282 282 282 282 281 281 280 280 279 278 277 277 277 277 276 275 274 274 273 273 273 273 274 274 274
284 284 284 284 285 285 285 285 285 286 286 286 286 286 285 285 283 282 282 281 281 282 282 281 281 280 279 278 277 277 277 277 276 275 274 274 273 273 273 273 273 274 274
283 283 284 284 284 284 284 284 284 285 285 285 285 286 286 285 285 283 282 282 281 281 282 281 281 280 280 279 278 277 277 277 276 275 274 274 274 274 273 274 273 273 273

GFSGL_850_thetae_048.txt.gz
Theta_e
303 302 301 301 299 298 298 297 296 295 295 294 294 295 296 296 296 296 295 294 294 293 292 291 290 289 289 288 288 288 287 287 287 287 287 287 287 287 287 288 288 288 288
302 299 298 298 297 296 295 295 295 294 294 294 294 295 295 295 295 294 293 292 292 292 291 290 289 289 288 287 287 287 287 286 286 286 286 286 286 286 286 286 286 286 287
297 297 297 296 295 295 295 295 294 294 294 294 294 294 294 294 293 293 292 291 290 290 289 289 288 287 287 287 287 286 286 286 285 285 285 285 285 285 285 285 285 286 286
297 296 295 295 295 295 294 294 294 294 294 294 294 293 292 292 292 291 291 290 290 289 289 288 287 286 286 286 285 284 284 284 284 284 284 283 284 284 284 284 285 285 286
295 294 294 295 295 295 294 294 294 294 293 293 292 291 291 290 290 290 290 289 289 288 287 286 285 284 283 282 281 282 282 282 282 282 282 283 283 284 284 284 284 284 285
292 293 294 294 294 294 294 294 294 293 293 293 292 292 291 291 289 288 288 288 288 286 285 284 284 283 282 281 281 280 280 280 281 281 282 283 283 284 284 284 284 284 285
292 292 292 292 293 293 293 293 293 293 293 292 292 292 291 290 288 288 288 286 286 285 284 283 283 282 282 282 281 280 281 282 282 281 281 282 283 284 284 284 284 284 284
290 290 290 291 291 292 293 293 293 292 292 291 291 291 290 289 288 288 286 285 285 284 283 283 282 282 282 280 279 280 281 281 281 281 281 281 282 282 282 282 283 284 284
290 291 290 290 292 293 293 292 292 291 291 291 290 289 289 288 287 286 285 284 284 283 283 283 281 281 280 278 278 279 280 280 280 280 280 280 280 281 282 283 283 284 284
291 289 290 291 292 292 292 291 291 290 290 290 289 289 288 287 286 285 284 283 283 283 283 282 281 280 279 277 278 278 279 280 279 279 280 281 281 282 283 283 283 284 284
289 290 290 291 290 289 289 289 290 289 288 288 288 288 287 286 285 284 283 283 282 281 282 282 281 280 277 278 277 277 278 277 278 279 279 280 281 282 282 282 283 283 284
290 290 290 290 290 289 289 290 289 289 287 287 287 287 286 285 284 283 283 283 282 281 281 281 280 279 277 278 278 277 276 277 278 278 279 279 280 280 281 281 282 283 284
289 290 290 290 289 289 288 288 287 287 287 286 286 286 286 285 285 284 283 282 282 281 280 279 279 279 277 277 277 276 277 277 277 278 278 279 279 280 281 282 283 284 285
290 289 288 288 288 288 288 288 287 287 286 286 285 285 285 284 285 284 283 283 281 281 280 280 279 279 277 277 278 278 277 276 275 277 277 278 278 280 281 282 283 283 285
289 288 287 287 287 287 287 287 287 286 285 285 284 284 284 284 284 283 282 282 281 281 280 279 279 279 278 278 278 277 277 276 275 276 276 277 278 279 280 281 282 283 284
289 288 287 287 287 287 287 286 286 285 284 284 283 282 283 283 283 282 282 282 281 281 280 280 280 279 278 278 277 277 277 276 274 275 276 276 277 277 278 280 280 281 282
288 287 287 286 286 286 286 286 286 285 285 284 283 282 282 282 282 282 282 282 281 281 280 281 280 279 278 278 277 277 276 275 275 274 275 275 276 276 278 278 279 280 281
288 287 287 286 286 286 286 285 285 285 284 284 284 283 282 282 282 281 282 281 281 281 281 280 280 279 278 278 277 276 276 276 275 274 274 274 275 275 277 278 278 278 279
288 287 287 286 286 285 285 285 284 284 284 284 284 284 283 282 282 281 281 282 281 281 282 281 280 279 279 278 277 276 276 276 276 275 274 274 274 274 276 276 277 277 278
288 287 286 286 286 286 285 285 285 285 285 284 284 284 283 283 282 282 282 282 282 281 282 281 281 280 279 278 277 276 276 275 275 275 274 274 274 274 275 275 276 276 277
288 287 287 286 286 286 286 286 285 285 285 284 284 284 283 282 283 283 283 283 282 282 281 281 281 280 279 278 277 277 276 275 275 276 275 274 274 274 273 274 275 275 276
286 286 286 286 286 286 286 285 285 285 285 285 284 284 283 283 282 282 282 282 282 282 282 282 281 280 279 278 277 277 277 276 275 276 275 275 274 274 274 274 274 275 275
286 286 285 285 285 285 285 285 285 285 286 285 285 285 285 284 284 283 283 283 282 282 282 282 282 281 281 280 279 278 277 277 277 277 275 275 274 274 274 274 274 274 274
285 285 284 284 285 285 285 285 285 285 285 285 285 285 285 285 285 285 285 283 282 282 282 282 282 281 281 280 280 278 278 278 277 277 275 275 274 274 274 274 274 274 274
285 284 284 284 284 285 285 285 285 285 285 285 285 285 285 285 285 285 285 284 283 282 282 281 282 282 281 280 280 279 278 278 277 277 275 275 274 274 274 274 274 274 274
285 283 283 283 283 284 284 284 284 284 284 284 284 285 284 285 285 284 284 285 284 282 282 281 282 282 281 281 280 279 278 278 278 277 275 275 274 274 274 274 274 274 274

GFSGL_850_thetae_051.txt.gz
Theta_e
306 308 306 304 302 300 300 299 297 297 296 296 296 296 296 296 296 296 296 296 295 295 294 294 293 292 291 291 290 289 289 289 289 288 288 288 288 288 287 287 287 288 288
308 302 301 300 300 299 298 297 297 296 296 296 295 296 296 295 295 295 295 295 294 293 293 293 292 291 290 290 289 289 288 288 288 288 287 287 287 287 286 286 286 286 287
302 300 299 299 298 297 297 297 296 296 296 295 295 295 295 295 294 292 293 293 292 292 291 291 290 290 289 288 288 288 287 287 286 286 286 286 286 285 285 285 285 286 286
299 299 297 297 297 297 297 296 296 296 295 295 295 295 293 292 293 292 292 291 291 291 291 290 289 288 287 286 285 284 285 285 285 285 285 285 284 284 284 285 285 285 286
298 297 296 296 296 296 296 296 296 295 295 295 295 294 293 292 292 291 291 291 290 290 290 288 287 286 285 283 283 283 283 283 283 283 283 283 283 284 285 285 285 285 285
297 296 295 295 294 295 295 295 295 295 295 295 294 293 293 292 292 291 289 289 289 289 288 287 286 285 285 283 283 282 282 281 282 282 283 283 284 283 284 284 284 285 285
295 294 294 293 293 294 294 294 295 295 294 294 293 292 292 292 291 290 288 288 287 287 287 286 286 285 284 284 283 282 281 281 282 281 282 282 283 283 283 283 283 283 284
294 293 293 293 293 293 294 294 295 294 294 292 292 292 290 292 291 289 288 287 287 287 286 286 285 284 283 282 281 280 281 281 281 282 282 282 282 281 281 281 282 283 283
293 293 293 293 293 294 294 294 294 293 293 291 291 291 290 291 289 288 287 286 286 286 285 285 284 283 282 281 278 279 280 280 281 281 280 280 280 280 281 282 282 284 284
293 293 293 293 293 293 293 292 292 292 292 291 290 290 290 289 289 287 286 284 285 284 284 284 284 283 282 280 277 278 279 280 279 279 279 280 281 282 282 283 283 284 285
293 292 293 293 293 292 292 291 291 291 291 289 288 289 288 288 287 287 286 284 283 284 283 284 284 283 281 279 278 278 278 276 277 279 280 280 281 281 282 282 282 282 283
292 292 292 292 292 292 291 291 291 291 289 288 288 287 287 287 287 286 285 284 283 282 282 283 283 281 280 278 278 278 277 278 279 279 280 280 280 281 281 281 282 283 284
292 292 292 291 290 291 291 291 290 289 288 287 287 288 287 286 286 286 285 284 283 283 282 281 281 281 280 280 279 279 279 279 278 278 279 279 280 280 281 282 283 283 284
292 292 291 290 289 288 289 290 289 288 288 287 287 287 286 286 285 286 286 284 283 282 282 282 281 281 281 280 280 280 280 279 278 278 278 279 279 280 280 281 282 283 284
291 291 291 290 288 288 288 288 288 288 288 287 287 286 285 285 285 285 284 284 283 283 282 281 281 282 281 281 281 280 280 279 278 277 278 278 279 279 279 280 281 282 283
291 291 291 290 288 288 287 287 287 286 286 286 285 284 284 283 283 283 283 283 282 282 282 281 282 282 281 281 281 280 280 279 278 277 277 278 278 278 279 280 280 281 282
291 290 290 289 288 288 287 287 287 287 286 286 285 285 284 283 283 283 283 282 282 281 281 281 282 282 282 281 281 280 279 279 277 278 277 277 277 277 278 279 280 280 280
291 290 289 289 288 287 287 287 287 286 286 286 285 285 285 284 283 282 282 282 282 282 281 282 282 282 281 281 281 280 279 278 278 277 276 277 276 276 277 279 279 279 280
291 290 289 288 288 287 287 287 286 286 286 285 285 285 285 285 284 283 282 282 282 283 282 283 283 282 281 281 280 279 278 277 277 277 276 277 276 276 276 277 278 278 278
291 290 289 289 288 287 287 287 287 287 286 286 286 286 285 285 284 284 284 283 283 283 283 282 282 282 282 281 280 279 278 278 278 277 277 276 276 276 276 276 277 277 278
291 290 288 287 288 288 288 287 287 287 287 286 286 286 286 285 285 284 284 284 284 284 284 283 283 282 282 281 280 279 279 278 277 277 276 276 276 275 276 276 276 277 277
290 290 288 286 286 286 286 286 285 286 286 286 286 286 286 286 285 285 284 284 284 283 283 283 283 282 282 281 280 279 278 278 277 276 276 276 276 276 276 276 276 276 276
289 288 287 286 285 285 286 286 286 286 286 286 286 286 286 286 286 286 285 285 285 284 283 283 283 282 282 281 281 280 278 278 277 277 277 276 276 276 275 276 276 276 275
287 287 286 286 285 285 285 285 286 286 286 286 286 286 286 286 286 286 286 286 285 285 284 283 283 282 282 281 281 281 280 279 278 278 278 276 275 275 275 275 276 275 275
287 286 286 285 285 285 285 285 285 285 285 285 285 285 285 285 285 285 286 285 285 285 285 284 283 282 282 282 282 281 280 280 278 278 278 276 276 275 275 274 275 275 275
286 285 284 283 282 282 282 282 282 282 283 284 284 284 284 284 284 285 285 284 285 285 285 284 283 282 282 282 282 281 280 280 278 278 278 276 276 275 275 275 275 275 275

GFSGL_850_thetae_054.txt.gz
Theta_e
308 307 307 307 306 303 301 300 299 298 297 297 296 296 296 296 296 296 296 296 295 295 295 294 293 293 293 292 291 290 289 289 289 289 289 288 288 287 287 287 286 286 286
307 308 309 304 301 300 300 298 298 297 297 296 296 296 296 296 296 295 296 295 294 294 292 293 293 292 291 290 289 289 288 288 287 287 287 286 286 287 286 285 285 285 285
307 302 301 300 300 298 298 298 297 297 296 296 296 296 295 295 295 292 292 292 292 291 291 291 291 290 290 289 288 288 287 286 285 285 285 285 285 285 284 284 284 284 285
302 301 300 298 297 298 298 297 297 296 296 296 295 295 295 294 293 292 292 291 291 290 290 290 290 289 288 287 286 285 284 283 283 283 283 283 283 283 283 284 284 284 285
300 299 298 297 297 297 296 296 296 296 296 295 295 295 295 293 293 292 292 291 290 291 290 289 288 287 287 286 285 284 283 283 282 281 281 282 282 283 283 283 284 284 284
299 297 296 295 295 294 294 294 294 295 295 295 295 295 294 292 293 293 292 291 289 289 288 288 287 286 286 285 284 284 283 282 281 281 281 282 282 281 283 283 283 282 282
297 295 295 294 293 294 294 294 294 294 295 295 295 294 292 292 291 290 292 290 289 288 287 287 286 286 285 285 284 283 282 280 280 281 281 282 282 282 281 281 281 281 281
295 294 294 294 293 293 293 294 294 295 295 294 294 293 291 291 291 291 290 289 288 286 287 287 286 285 285 284 283 282 280 279 280 280 281 281 281 280 280 280 281 281 282
295 295 293 293 293 293 294 294 294 293 293 293 292 292 290 291 290 290 289 288 287 285 286 285 285 284 284 283 283 281 279 280 279 280 279 279 279 280 281 282 282 282 283
294 294 292 292 293 293 293 293 292 292 291 292 292 291 289 289 290 289 288 287 287 284 284 284 284 284 284 283 282 280 279 280 278 278 279 279 280 280 281 281 282 283 283
294 293 292 293 293 293 292 292 292 292 292 291 291 289 288 288 288 288 287 287 285 284 284 283 283 283 283 282 280 279 279 279 278 279 279 279 280 280 280 281 281 281 282
293 292 292 293 292 292 292 292 292 292 291 291 289 288 287 287 287 287 287 286 285 284 283 283 282 282 282 281 281 280 280 279 279 279 278 279 279 279 280 281 282 282 283
291 292 292 292 292 291 290 289 291 291 290 288 288 287 287 287 286 286 286 286 285 284 283 283 282 282 281 281 281 280 280 280 279 279 278 278 278 279 279 280 281 282 282
292 292 292 292 291 291 290 288 288 289 289 289 289 288 288 287 286 285 286 285 286 284 283 283 282 282 282 282 281 281 280 280 280 279 278 277 278 278 278 279 280 281 282
292 292 291 291 291 291 289 288 287 287 288 288 288 288 287 286 285 285 285 285 285 284 283 283 282 282 282 282 281 281 280 280 280 279 278 277 277 278 278 278 280 280 281
292 291 290 290 290 289 288 288 287 287 287 286 286 286 286 286 285 284 283 284 283 283 282 282 282 281 282 282 281 281 280 280 279 279 278 277 277 277 277 279 279 280 280
292 292 291 290 290 289 289 288 287 287 287 287 287 286 286 285 285 285 283 283 283 283 282 281 281 282 282 282 281 281 281 280 279 278 278 277 277 277 277 278 278 279 279
292 291 291 291 290 290 289 288 287 287 287 286 286 286 285 285 285 285 284 283 282 282 282 282 282 282 282 282 281 281 281 280 279 278 278 277 277 277 276 277 277 278 278
291 292 292 291 290 290 289 288 288 288 288 287 287 287 286 286 286 285 285 284 283 282 282 282 283 283 283 283 282 281 281 280 278 278 278 277 277 277 276 276 276 277 278
291 292 292 291 290 290 289 288 288 288 288 288 288 287 287 286 286 286 285 285 284 284 283 283 283 283 282 282 282 281 281 280 279 278 278 277 277 277 276 276 276 276 277
292 292 291 291 291 290 288 287 287 287 287 286 286 286 286 287 286 286 286 285 285 285 284 284 284 283 283 283 282 282 280 279 279 278 278 277 277 276 276 276 276 276 276
289 289 291 290 290 289 287 286 286 286 286 286 286 286 286 286 287 286 286 286 285 285 285 284 284 284 283 283 282 282 280 280 279 278 278 278 277 277 276 276 276 276 276
286 287 288 289 288 287 286 286 286 285 286 286 286 286 286 286 286 287 286 286 286 286 286 285 284 284 283 283 283 282 281 280 279 278 278 278 277 277 276 276 276 276 275
285 284 287 288 287 286 286 286 286 285 286 285 286 286 285 285 285 285 286 286 286 286 286 286 285 285 284 283 282 282 282 281 280 280 279 278 277 276 276 276 276 276 276
284 284 285 286 286 285 284 283 283 283 283 283 283 283 284 284 284 284 285 285 285 285 285 285 285 285 284 283 282 282 281 281 280 279 279 278 278 277 276 275 275 275 276
283 284 284 283 283 282 282 281 280 280 279 279 279 280 280 281 282 283 283 284 284 284 284 284 285 285 284 283 282 282 281 281 281 280 278 278 278 277 276 276 276 275 275

GFSGL_850_thetae_057.txt.gz
Theta_e
316 314 312 308 309 306 303 303 301 300 299 298 297 296 295 295 295 295 295 295 295 295 295 294 294 292 293 293 292 291 290 289 289 288 288 288 287 286 286 286 286 285 285
314 311 308 307 303 301 301 300 298 298 297 297 296 296 295 295 295 295 295 293 291 291 291 291 292 291 291 290 290 289 288 288 287 286 286 284 284 283 284 284 284 284 283
309 308 304 301 301 300 299 298 298 298 297 296 296 295 295 295 295 295 295 292 291 290 290 290 290 290 290 289 288 288 287 286 285 283 283 283 282 282 282 282 282 283 283
307 302 300 300 300 298 298 298 297 296 296 296 296 295 295 295 295 295 293 292 291 290 290 290 290 289 288 287 287 286 285 284 284 283 282 281 281 281 281 282 282 282 282
302 300 300 298 297 297 296 295 294 294 294 295 295 295 295 295 295 293 292 292 291 290 290 290 288 288 287 287 286 285 285 284 283 282 280 280 281 281 281 282 282 282 282
300 299 298 297 295 293 293 293 292 292 294 294 295 295 295 295 294 291 291 291 291 291 289 288 288 287 287 286 285 285 284 283 282 280 280 280 280 281 282 281 281 280 280
299 297 295 294 294 294 294 292 292 294 294 294 295 294 294 293 293 290 290 290 290 289 287 287 287 287 286 285 285 285 284 282 280 279 280 280 280 280 280 280 280 280 281
297 295 296 295 295 294 293 293 293 294 294 294 293 293 293 292 292 290 291 290 289 288 287 286 286 286 285 285 284 283 283 281 280 280 280 280 280 279 280 280 280 281 282
295 296 298 295 294 292 292 293 293 293 292 291 291 292 292 292 291 289 289 289 289 288 287 286 284 285 284 284 284 283 282 281 280 279 278 279 279 279 280 280 281 281 281
296 299 294 294 292 292 293 293 293 292 292 292 291 292 291 291 289 288 289 288 288 287 286 285 284 284 283 283 283 282 281 280 280 280 279 279 279 279 279 280 280 281 281
297 295 294 293 291 292 292 292 292 292 292 292 291 291 291 289 287 287 287 288 287 286 285 284 283 283 283 283 282 281 280 280 280 279 279 278 278 278 279 279 280 281 281
294 293 292 291 292 292 292 290 290 289 291 291 290 290 289 287 287 287 287 287 286 286 285 284 283 283 282 282 281 281 280 280 280 279 279 279 278 278 278 279 279 280 281
292 291 291 291 291 292 291 290 290 290 288 289 289 289 288 288 287 287 286 285 285 285 285 285 283 283 282 282 281 281 281 280 280 279 279 279 278 278 278 278 279 280 281
292 291 291 291 291 291 290 290 290 289 287 287 287 288 288 288 288 287 286 285 285 285 285 284 284 283 283 282 282 281 281 281 280 279 279 279 278 278 277 277 279 280 280
292 292 292 291 290 289 290 290 289 288 287 287 286 286 286 286 287 286 286 285 284 284 285 284 283 283 282 282 282 282 281 280 280 280 279 279 278 277 277 278 279 279 279
292 292 292 291 291 291 290 290 289 288 288 287 287 287 286 286 286 286 285 284 284 283 283 283 282 282 282 282 282 282 281 281 280 280 279 279 278 277 277 277 278 278 278
292 292 292 292 292 291 291 290 290 289 289 288 287 287 286 286 286 285 285 285 284 283 283 282 282 282 281 281 282 281 281 280 280 280 280 278 277 277 277 277 277 277 278
292 292 291 291 291 291 291 291 290 290 290 288 288 287 287 287 286 286 286 285 285 284 283 282 282 282 282 282 282 282 281 281 281 280 279 278 277 277 277 276 276 277 277
290 291 291 291 291 292 292 291 290 290 289 288 288 287 287 288 287 287 286 286 285 285 284 283 283 282 282 283 282 282 282 282 281 280 279 278 278 277 277 276 276 276 277
286 286 286 287 289 289 291 291 290 290 288 288 287 286 286 285 286 287 287 287 286 285 285 285 284 283 282 282 282 282 282 282 281 280 279 278 278 277 277 276 276 276 276
285 285 286 286 285 288 288 289 289 287 286 285 286 286 286 286 286 286 286 287 286 286 285 285 285 284 284 283 283 283 282 282 281 280 279 278 278 278 276 276 276 276 276
283 284 284 284 284 284 287 288 287 286 286 285 285 285 286 286 286 286 286 286 287 286 286 286 285 285 284 284 284 283 283 282 282 281 280 279 278 277 276 277 276 276 276
280 281 282 283 284 285 286 287 286 286 286 285 285 285 285 286 286 285 285 285 286 286 286 286 286 286 285 285 284 283 283 282 282 281 280 279 279 277 277 276 276 276 276
281 282 283 284 284 285 284 284 284 283 283 283 283 282 283 283 283 284 284 285 285 285 285 285 285 285 286 286 285 284 283 282 282 281 281 280 279 278 277 276 275 276 276
279 279 280 280 280 280 280 280 280 279 279 279 279 279 279 280 280 281 281 282 283 284 285 284 284 284 285 285 285 284 283 282 282 281 281 279 278 278 277 276 275 275 276
277 277 277 277 277 277 277 277 277 277 276 276 277 277 277 277 278 279 279 280 282 283 284 284 284 284 284 284 285 284 283 282 281 281 281 279 278 278 277 276 275 276 275

GFSGL_850_thetae_060.txt.gz
Theta_e
318 318 317 316 311 308 309 308 308 301 300 299 298 297 297 295 295 293 294 294 294 294 292 290 291 292 292 292 291 292 290 289 288 288 287 287 286 284 283 283 283 283 283
318 316 313 311 309 308 302 304 301 299 298 298 297 297 296 295 294 295 295 295 295 294 291 290 289 290 291 290 290 289 289 288 287 286 285 284 283 283 282 282 282 282 282
314 311 310 311 304 300 301 300 298 298 297 297 295 295 296 295 294 295 295 295 294 292 291 290 290 290 290 290 289 288 287 287 285 284 284 283 282 281 281 281 281 282 282
311 311 304 301 300 301 299 298 297 296 294 295 294 295 295 295 295 295 295 294 292 292 291 291 290 290 290 288 287 287 286 285 285 284 283 282 281 281 280 281 282 282 282
308 303 301 300 300 299 298 295 294 296 297 293 293 294 295 295 295 295 294 293 291 291 291 291 290 288 288 288 287 286 285 285 284 283 282 280 280 280 280 281 281 280 280
305 302 299 298 299 297 295 296 299 297 293 292 293 294 294 294 294 293 293 291 290 290 289 290 289 288 287 287 286 286 285 284 284 282 281 280 280 280 280 280 279 280 280
302 299 298 296 295 296 300 298 294 292 292 293 294 294 293 293 293 292 292 291 289 290 290 289 287 287 287 286 286 285 284 284 283 281 280 280 279 279 278 279 280 280 280
299 297 296 297 299 299 294 293 292 292 292 292 292 291 291 291 292 291 291 290 289 290 289 287 287 286 285 285 285 284 284 283 282 280 280 279 278 279 279 279 280 280 280
297 296 298 299 297 294 293 292 292 292 292 292 292 291 291 291 291 291 290 288 288 289 288 287 286 286 285 284 284 283 283 282 281 280 280 279 279 278 279 279 279 280 280
296 298 300 295 294 293 292 291 292 291 291 291 292 292 291 291 291 290 288 287 286 287 287 286 286 284 283 283 283 283 282 281 281 280 280 279 279 278 278 278 279 279 279
299 299 295 294 293 291 291 291 291 291 290 289 289 290 290 290 290 288 287 287 286 287 286 286 286 284 283 283 282 282 281 281 281 280 280 279 279 278 278 278 278 279 279
296 294 292 291 291 291 291 291 290 290 289 289 289 288 289 289 289 288 287 286 286 286 285 285 285 285 284 283 282 282 281 281 280 280 280 279 279 279 278 278 278 278 279
292 291 291 291 291 291 290 290 290 289 289 289 288 288 287 287 288 288 288 287 286 286 286 285 285 285 284 283 283 282 281 281 281 280 280 279 279 279 278 278 278 279 280
291 291 291 291 291 291 291 290 290 289 289 289 288 287 287 286 286 286 287 287 286 286 285 284 285 285 284 283 283 282 281 281 281 280 280 279 279 279 278 277 278 279 279
292 292 292 292 292 292 292 291 291 290 290 290 289 288 287 287 286 286 286 286 285 285 285 284 283 284 283 283 282 282 281 281 281 280 280 280 279 279 278 277 277 278 278
292 292 292 292 292 292 292 292 292 291 290 290 290 289 289 287 286 286 286 286 285 285 284 284 283 283 283 282 282 281 281 282 281 280 280 280 280 278 278 277 276 277 277
292 291 290 290 290 290 290 291 291 291 291 291 290 290 290 288 287 287 287 286 285 285 285 284 284 283 283 282 282 281 281 281 281 281 280 280 279 278 278 277 276 276 277
287 288 287 286 286 286 286 287 288 289 289 290 291 290 289 288 287 287 287 287 286 286 285 285 284 284 283 282 282 281 281 281 281 281 281 280 279 278 278 277 276 276 276
284 283 282 282 284 285 285 285 285 288 288 288 289 289 288 287 286 286 286 286 287 286 286 286 285 285 284 283 282 282 282 282 282 281 281 280 279 278 278 277 276 276 276
282 281 281 281 281 282 283 283 284 285 286 288 287 286 286 285 285 285 286 286 286 286 286 286 286 285 285 284 283 282 282 282 282 282 281 280 279 279 278 277 276 276 276
280 280 280 281 282 282 283 283 284 285 287 287 286 285 285 285 285 285 285 286 286 286 286 286 286 286 285 285 284 283 283 282 282 282 281 280 279 279 278 277 276 276 276
279 280 281 282 282 282 282 283 284 285 285 285 284 285 284 284 284 285 285 285 285 285 286 286 286 286 286 285 285 284 284 283 283 282 282 281 280 279 278 277 277 276 276
278 279 279 280 280 280 280 280 280 281 281 281 282 282 282 282 282 283 284 284 284 284 285 285 285 285 285 286 286 285 284 284 283 283 282 281 280 279 278 277 276 276 276
277 277 277 277 277 277 277 277 277 277 278 278 278 278 278 279 279 280 280 281 282 283 283 284 284 284 285 285 285 285 285 284 283 282 282 281 280 279 278 278 276 276 276
277 276 276 276 276 276 276 275 276 275 275 275 275 276 276 276 277 277 278 279 279 280 281 282 284 284 284 284 285 285 285 284 283 282 282 281 280 279 278 278 276 275 276
275 275 275 275 275 274 274 274 274 274 274 274 274 274 274 274 275 276 276 277 278 279 279 281 282 283 284 283 284 284 285 284 283 282 281 281 280 279 278 277 276 276 276

GFSGL_850_thetae_063.txt.gz
Theta_e
320 318 318 317 315 312 309 309 310 309 301 300 298 298 297 296 294 295 293 293 294 295 294 294 291 290 290 289 290 290 290 289 289 288 287 286 285 283 283 282 282 282 282
320 319 317 315 312 309 309 312 303 301 299 298 297 297 295 295 295 294 294 294 295 295 294 292 290 290 290 290 290 290 289 288 287 287 286 285 284 283 282 282 282 282 281
317 313 310 309 309 311 307 302 303 299 298 297 294 296 296 294 294 294 295 295 295 294 293 291 290 290 290 290 290 289 288 287 286 286 285 284 283 282 282 282 282 281 281
314 312 311 311 312 310 302 301 298 297 294 295 296 295 293 293 294 294 295 295 294 293 291 290 290 290 290 290 289 288 287 286 286 285 284 283 282 281 281 281 281 280 280
314 314 313 311 305 301 299 298 295 295 297 297 297 293 292 293 293 294 294 293 293 292 290 289 290 289 289 289 288 287 286 286 285 284 284 282 282 280 280 279 279 279 280
314 312 308 302 300 297 295 296 297 299 299 294 292 291 292 292 292 292 293 292 292 291 290 289 289 289 289 288 287 286 286 285 284 284 283 282 280 280 279 279 279 279 279
308 303 299 297 295 295 298 300 300 295 292 291 291 291 291 291 290 290 291 291 291 290 289 289 289 288 287 286 286 286 285 284 284 283 282 281 280 279 279 279 279 279 279
301 298 296 297 299 299 299 297 294 291 291 291 291 291 290 290 290 290 291 291 290 289 287 288 288 287 287 286 285 285 284 284 283 282 281 280 280 279 278 278 279 279 279
297 296 298 298 301 300 295 294 292 290 291 290 290 289 289 289 291 291 291 290 289 287 286 288 287 287 286 285 284 284 283 283 282 281 280 280 280 279 278 278 278 278 278
296 297 298 300 300 295 293 291 290 291 291 290 289 289 289 289 289 290 290 289 288 287 287 286 287 286 286 285 283 283 283 282 282 281 280 280 279 279 279 278 278 278 278
299 300 300 296 294 291 290 290 290 290 290 289 289 289 289 288 288 288 289 289 287 287 286 286 286 285 286 285 284 283 282 282 281 281 280 280 280 279 279 279 278 278 278
300 297 294 291 291 290 290 290 290 290 289 289 289 289 289 288 287 287 287 288 288 287 286 286 285 285 285 284 284 283 282 282 281 281 281 280 280 279 279 279 278 278 277
292 291 291 291 291 291 291 291 291 291 291 290 290 290 289 289 288 287 286 286 287 288 287 287 286 286 285 285 284 284 283 282 281 281 281 280 280 279 279 279 278 277 278
292 292 291 292 292 292 292 292 291 291 291 292 291 291 290 290 289 288 287 286 286 286 286 286 285 285 285 285 284 284 283 282 281 281 281 280 280 280 279 278 278 277 278
291 291 292 292 292 292 292 292 291 292 291 291 291 291 291 291 290 289 288 286 286 285 285 285 285 285 284 283 283 284 283 282 281 281 281 280 280 280 279 278 278 277 277
291 291 290 290 289 288 288 287 287 286 286 287 288 289 290 290 290 290 289 287 287 286 285 285 285 285 284 284 283 283 282 282 281 281 281 281 280 279 279 278 277 276 276
287 287 286 285 284 283 283 282 283 284 285 284 284 286 287 288 288 289 288 287 287 287 286 285 285 285 285 284 284 283 282 282 281 281 281 281 280 279 279 278 278 277 276
285 284 283 282 282 281 280 281 282 281 281 282 282 285 286 287 288 288 287 286 286 287 287 286 286 286 285 285 284 283 282 282 281 281 281 281 280 280 279 278 278 277 276
282 282 281 281 281 281 282 282 282 282 283 283 284 286 287 286 286 286 285 285 285 285 286 286 286 286 286 286 285 284 282 282 282 282 281 281 280 280 279 278 278 277 276
281 280 280 280 281 281 281 281 281 281 282 282 284 284 285 285 285 285 285 285 285 285 286 286 286 286 286 286 285 285 284 282 282 282 282 281 281 280 279 278 278 277 277
280 279 279 279 279 280 280 280 280 280 280 281 281 281 281 282 283 284 285 285 284 284 284 284 285 285 285 286 286 285 285 283 282 282 282 282 281 280 279 278 278 277 277
278 278 278 278 278 278 278 277 278 277 278 278 279 279 280 280 281 281 282 282 283 283 283 284 285 285 285 285 285 285 285 284 284 283 283 282 282 280 279 278 278 277 276
277 277 277 277 277 277 277 277 276 276 276 276 276 276 277 277 277 278 278 279 280 281 282 282 283 284 284 284 285 285 285 285 284 284 283 282 282 281 280 278 278 277 276
276 276 276 276 275 276 276 275 275 275 275 275 274 275 275 275 276 276 276 277 278 278 279 280 281 282 284 284 284 284 284 285 285 284 283 282 282 281 280 279 278 277 276
275 275 275 274 274 274 274 274 274 274 274 273 273 273 273 273 273 274 274 275 276 276 278 278 279 280 282 283 284 284 284 284 285 284 283 282 282 281 280 279 278 277 276
274 274 274 274 273 273 273 273 273 272 272 272 272 272 272 272 272 272 273 273 274 274 275 276 278 279 280 282 283 284 283 284 284 284 283 282 281 281 280 278 278 277 276

GFSGL_850_thetae_066.txt.gz
Theta_e
322 323 322 321 320 321 318 315 313 309 311 308 303 298 297 297 295 295 295 294 294 294 294 294 294 292 290 290 289 289 290 290 289 289 288 287 286 285 284 283 282 282 282
323 324 322 320 318 316 311 308 309 310 307 302 298 298 297 295 295 294 294 294 294 294 295 294 293 290 290 290 290 289 290 289 289 288 287 286 285 284 283 282 282 282 282
324 321 318 315 311 310 308 311 309 304 299 298 297 295 294 295 294 293 294 294 294 295 294 293 292 290 290 289 290 290 289 289 288 286 286 285 284 283 282 281 281 281 281
320 317 316 313 312 310 311 306 302 299 298 296 294 295 296 294 292 292 292 293 294 294 293 292 291 290 289 289 289 290 289 287 287 286 285 285 284 283 281 281 281 281 281
316 314 311 311 310 309 302 299 298 297 295 296 299 296 293 291 291 291 290 291 292 292 291 291 290 289 289 289 289 289 288 287 286 285 285 284 283 282 280 280 280 280 280
314 312 311 309 306 300 297 297 296 298 300 299 293 291 291 291 291 290 290 290 290 291 290 290 289 289 289 289 288 287 287 286 286 285 284 283 283 281 280 280 279 279 279
312 311 308 302 299 297 296 297 299 300 299 292 291 291 291 290 290 290 290 290 290 290 290 290 288 287 289 288 287 286 286 286 285 284 283 283 282 280 280 280 279 279 279
310 306 300 296 297 299 299 299 299 296 293 291 290 290 290 289 289 289 289 290 290 290 290 289 287 287 287 287 286 286 285 284 284 283 283 282 280 280 280 279 278 278 278
301 297 297 298 298 299 299 298 295 293 291 290 290 290 289 289 289 289 288 288 290 290 289 288 287 286 287 287 286 285 284 283 283 283 282 281 280 280 279 279 279 278 278
296 297 297 298 299 299 296 294 291 290 290 290 290 289 289 289 289 289 288 287 288 288 288 288 287 286 285 287 286 285 284 283 283 282 281 280 280 280 279 279 279 278 278
298 299 299 300 297 294 291 290 290 290 290 290 290 290 289 290 289 289 289 287 287 286 287 287 287 286 286 286 285 285 284 283 282 281 281 281 280 280 279 279 279 279 278
299 298 296 292 291 291 291 291 291 291 291 291 291 291 291 291 291 291 290 289 287 286 286 286 287 287 286 286 285 285 284 284 282 282 282 281 281 280 280 279 279 279 278
296 292 291 291 291 291 291 291 291 291 291 291 291 291 291 291 291 291 291 290 289 287 286 286 286 287 287 286 285 285 285 284 283 282 282 281 281 280 280 279 279 279 278
292 291 291 291 291 291 291 290 290 289 288 287 286 285 286 286 287 288 289 290 290 288 287 286 286 285 285 285 285 285 285 284 284 283 282 282 281 281 280 279 279 278 278
291 291 290 289 288 287 287 286 285 284 282 283 284 285 285 284 283 284 286 287 289 288 286 286 285 285 285 285 285 284 284 283 283 283 282 281 281 281 280 279 279 278 278
288 288 288 287 286 285 284 284 283 283 282 281 281 281 281 283 284 285 285 286 287 288 287 286 286 286 285 285 285 284 284 283 283 282 282 281 281 281 280 279 279 278 278
287 286 285 284 283 283 282 282 282 282 282 282 283 283 284 284 285 286 286 286 287 287 287 287 287 287 286 285 285 285 284 284 283 282 281 281 281 280 280 279 279 278 278
284 283 283 282 281 281 281 281 281 280 281 281 282 282 283 284 285 285 286 286 286 286 286 285 286 286 286 286 286 286 285 284 283 282 281 281 281 280 280 279 279 278 277
282 282 281 281 280 279 279 279 280 280 280 280 280 281 281 282 283 284 285 285 285 285 285 285 285 285 285 285 285 286 285 285 284 282 281 281 281 281 280 280 279 278 277
281 280 280 279 279 278 278 278 278 278 278 278 278 278 279 280 281 281 281 280 281 282 283 284 284 284 284 285 284 285 285 285 284 283 282 282 282 281 280 280 279 278 277
279 279 278 278 278 277 277 277 277 277 277 276 276 276 276 276 277 278 279 279 279 280 281 282 283 283 284 284 284 283 284 284 284 284 282 282 282 281 281 280 279 278 277
278 278 278 277 277 276 276 276 276 276 276 275 275 275 275 275 276 276 276 277 277 277 278 279 280 281 282 283 284 284 284 283 284 284 283 282 282 282 281 280 279 278 277
277 277 277 276 276 275 275 275 275 275 275 274 274 274 274 274 274 274 274 275 275 276 277 277 278 279 280 281 282 283 284 283 283 284 284 283 283 282 281 281 279 278 277
277 276 276 275 275 275 274 274 274 273 273 273 273 273 273 273 273 273 273 273 274 274 275 276 276 277 278 279 281 282 283 284 284 283 283 284 283 282 282 281 279 278 277
276 275 275 274 274 274 274 273 273 272 272 272 272 271 271 271 271 271 271 271 272 273 274 274 275 275 277 278 279 280 282 283 283 284 284 283 283 282 282 281 279 278 277
274 274 274 273 273 273 272 272 272 271 271 271 270 270 270 270 270 270 270 271 271 271 272 272 273 274 274 277 278 279 281 282 283 283 284 283 283 282 282 280 279 278 277

GFSGL_850_thetae_072.txt.gz
Theta_e
324 324 324 324 325 325 323 322 320 316 314 312 309 310 310 307 299 298 299 299 298 298 298 297 297 296 296 295 295 294 293 293 293 293 292 292 292 291 289 289 288 287 286
325 324 324 324 324 324 322 320 319 314 312 311 312 310 305 300 299 299 298 298 298 298 297 297 296 296 295 295 294 294 293 293 292 292 292 291 291 290 289 288 287 286 285
324 325 324 324 322 322 321 319 315 312 310 310 308 303 300 299 298 299 298 298 298 297 296 296 296 295 295 294 294 293 293 292 292 291 291 291 290 289 288 288 287 286 285
325 323 323 322 319 319 319 310 311 309 309 305 305 300 298 297 299 298 297 296 296 295 295 295 295 295 294 294 293 292 292 291 291 290 290 289 289 289 288 287 286 285 285
323 322 322 319 319 315 311 311 309 307 303 307 299 296 299 299 297 296 295 294 294 294 294 294 294 294 293 291 291 291 291 290 290 289 289 289 289 288 288 287 286 285 284
320 320 319 316 311 311 311 310 304 303 305 297 298 300 298 296 293 291 291 290 292 293 293 293 293 293 293 292 290 290 289 289 289 290 289 289 288 288 287 286 286 284 284
319 316 312 309 310 310 305 302 302 300 299 300 299 296 295 295 292 290 290 289 290 291 292 292 292 292 292 291 290 290 289 288 288 288 289 288 287 287 286 285 284 284 284
313 310 308 308 307 300 299 299 299 300 299 297 296 295 294 293 290 290 289 289 290 291 292 292 292 292 291 291 291 290 289 288 288 287 287 287 286 286 285 284 283 283 283
310 309 307 301 299 299 299 301 299 297 296 295 294 293 293 293 292 291 291 291 291 292 292 291 291 291 291 290 290 289 288 288 287 287 286 286 285 284 283 283 283 283 283
308 302 299 299 298 300 299 297 295 293 292 293 293 293 292 291 291 291 290 290 290 290 290 290 290 290 290 289 287 288 288 287 287 287 286 285 284 283 283 282 282 282 282
300 299 298 299 298 298 295 292 291 293 292 291 290 290 289 287 286 285 284 284 285 286 287 286 287 289 289 289 288 286 287 287 287 286 286 286 285 284 284 283 282 282 282
298 298 299 299 298 293 291 291 291 291 290 288 286 286 286 286 286 285 284 284 284 284 285 285 286 286 286 287 288 287 286 287 287 286 286 285 285 285 284 283 283 282 282
298 299 298 293 291 291 291 290 288 287 286 285 285 286 286 286 286 285 284 284 284 285 285 286 286 285 286 287 287 287 286 286 287 287 286 286 285 285 284 284 283 282 282
297 292 291 291 290 289 288 287 286 285 284 284 284 284 284 284 284 282 282 282 284 285 285 286 286 286 286 286 287 286 286 286 286 286 286 286 285 285 284 283 283 283 282
291 291 290 288 288 286 285 284 284 283 283 282 282 282 281 281 280 281 281 282 283 284 285 286 287 287 287 287 287 286 286 286 285 285 285 285 285 284 284 283 282 282 282
289 288 288 286 285 284 283 283 283 282 281 280 280 279 279 279 279 279 279 280 281 282 284 285 286 286 286 287 287 287 286 286 286 285 285 284 284 284 283 283 282 282 282
287 286 285 284 283 283 282 282 283 282 280 280 279 278 278 278 278 278 278 279 280 281 281 281 281 283 284 286 286 286 286 285 285 285 285 284 284 283 283 283 282 282 281
285 284 283 282 282 281 281 280 280 280 280 280 279 278 278 278 278 278 278 278 278 278 278 278 278 279 281 282 283 285 285 285 285 285 285 284 284 284 283 282 282 282 282
283 282 282 281 280 280 279 279 279 278 278 278 278 277 276 277 277 276 276 275 275 275 275 276 275 276 277 279 280 282 283 284 284 284 284 284 284 284 283 282 282 282 281
281 281 280 280 279 279 278 278 278 277 277 277 276 275 275 276 275 274 274 274 273 273 273 273 273 274 274 276 277 279 280 282 283 284 283 283 284 283 283 282 282 282 281
280 280 279 278 278 278 277 277 276 275 275 275 274 273 275 274 273 273 272 272 272 271 271 271 271 272 272 272 275 277 278 279 280 281 282 282 283 283 283 282 282 281 281
279 278 278 277 277 277 276 276 275 274 273 273 273 272 274 272 271 271 271 270 270 270 270 270 270 270 271 271 274 276 276 277 278 279 280 281 282 282 283 282 282 281 280
278 277 277 276 276 276 275 275 274 272 272 272 271 271 270 270 270 270 269 269 269 269 270 270 270 271 270 271 273 274 275 276 276 277 279 280 281 281 282 282 282 281 280
277 276 276 275 275 274 274 273 272 271 271 270 270 269 269 269 269 268 268 268 270 270 270 270 271 271 271 271 272 272 274 275 276 277 278 279 280 281 281 282 282 282 281
275 275 274 274 273 272 272 270 269 269 268 268 268 268 268 268 268 267 267 268 269 270 270 270 271 271 271 271 272 272 272 274 275 276 277 278 280 281 281 281 281 282 282
273 272 272 271 270 269 268 268 267 267 267 268 268 268 268 267 267 267 267 269 268 269 270 270 270 270 271 271 272 272 272 273 274 275 276 278 279 281 281 281 281 281 282

GFSGL_850_thetae_078.txt.gz
Theta_e
330 330 330 330 328 328 327 326 325 325 322 319 318 316 315 314 311 308 309 308 303 303 302 302 301 301 300 300 299 298 298 298 297 297 296 296 295 295 294 294 293 293 293
331 331 331 329 328 326 326 326 325 324 322 319 317 316 314 312 310 309 309 304 304 302 302 301 301 301 300 299 299 298 298 297 297 297 296 295 295 295 294 293 293 292 292
330 330 331 329 325 326 325 324 323 323 321 319 316 314 312 310 309 308 305 304 302 302 301 301 300 299 298 298 297 297 297 297 297 296 295 295 294 294 293 292 292 290 290
330 329 330 327 325 325 324 324 322 321 319 316 310 310 310 309 307 305 302 301 301 301 300 298 298 297 296 296 296 296 296 296 296 295 294 293 293 292 291 291 290 289 290
330 329 327 326 324 323 323 322 321 319 315 311 310 308 309 306 302 300 300 301 300 298 297 296 295 295 295 295 295 294 294 294 294 293 293 293 291 290 290 290 290 290 290
328 326 325 322 322 321 321 319 318 315 310 310 308 307 304 301 301 301 301 300 298 294 291 291 291 292 292 293 293 293 293 293 293 293 293 292 292 291 290 289 289 290 289
326 323 320 320 319 318 318 315 312 310 309 306 305 301 301 302 302 301 299 296 293 291 290 290 291 292 293 293 293 293 293 293 293 293 292 292 291 291 289 288 288 289 288
320 318 319 318 317 315 311 310 310 308 305 303 302 302 302 300 298 297 296 294 293 292 291 292 292 292 292 292 292 292 292 292 291 291 291 291 290 290 289 288 288 288 287
318 317 316 315 313 311 310 307 303 302 303 303 302 300 298 297 296 295 295 294 293 292 291 289 287 286 287 287 287 286 286 285 285 288 289 289 289 289 289 288 288 287 287
314 313 311 310 310 308 304 302 303 303 301 300 297 296 295 295 295 295 293 291 290 288 286 285 285 284 284 284 286 286 286 286 286 286 286 287 288 289 288 287 287 287 286
307 305 306 306 303 302 302 302 300 299 296 296 295 294 294 293 291 289 288 287 286 286 285 284 283 283 283 285 285 286 286 287 287 286 285 285 286 287 289 288 287 286 285
304 303 303 302 301 301 299 298 296 296 295 294 293 292 289 288 288 288 286 286 286 284 282 282 282 282 282 283 284 286 287 287 287 287 286 287 287 287 287 288 287 286 286
302 302 301 300 298 298 297 296 295 293 292 291 290 288 288 288 287 287 287 287 284 282 281 281 281 281 282 286 286 287 287 287 287 287 286 286 286 287 287 287 287 287 286
300 299 298 296 294 293 293 292 291 290 290 289 288 287 287 286 285 285 284 282 281 281 280 280 280 281 283 284 284 285 286 286 287 287 287 286 287 287 287 287 287 287 286
298 296 294 293 291 290 290 289 289 288 287 286 285 285 284 283 282 281 280 280 280 279 279 279 280 282 281 281 281 281 283 285 285 286 287 287 286 286 286 286 286 286 286
293 291 291 290 289 288 288 287 286 285 285 284 283 282 281 281 280 280 279 279 279 278 278 279 281 280 280 279 278 279 279 281 283 284 285 287 287 286 286 286 286 285 285
291 290 288 287 287 286 286 286 286 286 285 285 283 282 282 281 280 279 279 278 278 279 279 279 279 278 278 277 277 277 277 277 278 280 282 284 285 286 286 286 285 285 286
288 287 288 286 285 285 285 285 284 283 284 283 282 282 281 280 280 279 277 277 278 278 278 278 277 277 276 276 275 275 275 275 275 278 280 281 283 285 285 286 286 285 285
287 287 286 287 287 283 282 282 281 281 281 281 281 281 280 280 279 279 277 277 277 276 276 276 275 275 274 274 273 273 273 273 274 275 277 278 280 282 284 285 285 285 285
288 288 286 284 282 282 282 281 280 280 280 280 279 279 279 279 278 276 275 276 275 275 274 274 273 273 273 273 272 272 272 272 272 272 274 275 277 279 281 283 284 285 285
286 285 281 282 281 280 279 279 279 279 278 278 278 277 277 276 275 274 274 274 274 273 273 272 272 272 271 271 271 271 271 270 270 271 272 274 275 277 279 281 283 285 284
280 282 281 279 279 278 278 278 277 276 276 276 276 276 275 274 274 273 273 272 272 272 271 271 270 270 270 269 269 269 269 269 269 270 270 271 274 276 277 279 281 282 284
281 279 278 277 277 277 276 276 275 275 275 274 273 273 273 272 272 272 271 271 270 270 270 269 268 268 268 268 267 268 268 268 268 269 269 270 272 274 276 277 279 281 282
278 277 276 276 275 275 274 274 274 273 273 273 272 271 271 271 270 270 269 269 269 269 268 267 267 267 268 267 267 267 267 268 267 267 268 270 271 273 275 276 278 280 281
276 275 274 274 273 273 273 273 272 272 271 271 270 270 269 268 268 268 268 268 267 267 266 266 267 267 266 268 268 268 267 267 267 268 269 271 271 272 274 275 277 279 280
274 273 272 272 272 272 271 271 270 270 270 269 269 268 267 267 267 266 266 266 265 265 266 267 267 268 268 268 268 267 268 268 268 269 268 270 271 272 273 275 276 277 280

GFSGL_850_thetae_081.txt.gz
Theta_e
326 326 329 330 330 329 328 326 326 325 324 323 322 322 319 317 315 314 314 311 310 310 308 305 303 302 302 301 300 300 300 299 298 298 297 297 296 296 296 295 295 294 294
328 329 329 330 330 328 328 327 327 325 324 323 322 321 319 317 314 314 314 311 310 309 308 303 302 301 301 301 301 299 299 298 298 298 297 297 297 296 295 294 294 293 293
330 330 330 330 330 329 328 326 326 325 325 323 321 320 319 317 315 313 311 310 308 307 303 302 302 301 301 300 299 298 298 297 297 296 297 296 296 295 294 293 292 292 291
329 330 330 331 331 328 326 325 325 325 324 321 321 320 318 315 313 311 309 307 305 302 302 301 301 300 299 297 296 295 295 295 295 295 294 294 293 293 293 293 292 291 290
331 330 330 330 329 327 325 325 325 322 321 321 319 315 312 311 310 308 306 302 301 302 301 301 299 298 296 294 295 294 293 293 293 293 293 293 293 293 293 292 292 290 290
329 329 328 328 326 326 325 324 323 322 320 317 312 310 310 309 307 303 301 301 301 301 301 299 296 291 290 291 291 292 293 293 293 293 293 292 292 292 292 292 292 291 289
329 328 326 325 324 324 322 321 321 319 316 311 310 309 309 304 303 301 301 301 301 300 297 293 290 290 290 291 292 292 292 292 293 292 292 291 290 291 291 291 290 290 289
326 325 324 322 321 320 319 318 317 314 310 310 308 305 302 302 302 302 302 300 298 295 293 292 292 291 291 290 288 287 286 286 285 285 285 285 285 286 287 288 288 289 288
324 323 321 319 319 319 317 316 313 310 309 305 303 302 301 302 301 299 298 296 295 294 293 292 291 288 286 285 285 284 284 284 284 285 286 286 286 285 286 287 288 289 288
321 319 318 317 315 313 311 310 309 305 303 303 303 302 301 299 298 296 295 295 294 293 290 287 286 285 284 283 283 283 283 283 284 285 287 287 286 286 285 285 286 288 288
317 316 315 313 311 310 309 305 302 303 303 302 300 298 297 296 295 295 294 292 289 287 286 286 284 283 283 282 282 282 285 286 286 287 287 287 287 285 285 287 287 288 288
314 312 311 308 307 304 302 303 302 302 301 299 297 296 295 294 293 290 288 288 287 286 285 283 282 282 281 281 282 285 286 286 285 286 287 287 287 286 286 286 286 287 287
307 305 303 302 302 302 302 301 299 298 297 296 295 294 291 289 288 288 287 286 286 285 282 281 281 280 280 281 282 282 282 283 284 284 285 286 287 286 286 286 286 287 287
303 302 302 301 300 299 298 297 296 295 294 293 291 290 289 287 287 287 286 284 283 281 281 281 280 280 280 282 281 280 279 280 281 282 283 284 285 286 286 286 286 286 287
301 299 298 297 296 295 294 294 293 291 290 290 289 287 287 286 285 283 282 281 281 280 280 279 279 280 280 280 279 279 278 278 279 280 280 282 284 284 285 286 286 286 286
298 296 294 292 291 290 290 289 289 287 286 285 285 284 283 282 281 281 281 280 280 279 279 279 279 279 279 278 278 277 277 276 276 277 277 278 280 282 284 286 286 286 286
294 292 291 290 289 289 288 288 287 287 289 288 285 283 283 282 281 281 280 279 278 278 278 278 278 278 277 277 276 275 275 274 274 274 275 276 277 280 282 284 285 286 285
290 289 289 289 289 287 286 287 287 285 284 283 283 282 281 281 280 280 279 279 277 277 277 276 276 276 275 275 274 274 273 273 272 273 274 275 275 276 279 281 283 285 286
291 290 288 287 287 287 285 283 281 283 282 281 281 281 280 280 279 279 278 277 276 276 276 275 275 274 274 273 272 272 272 271 271 271 272 273 273 274 277 278 280 282 284
288 287 287 286 284 283 284 284 282 281 280 280 280 279 279 278 278 277 276 275 275 274 274 273 273 273 272 271 271 271 271 270 270 270 270 270 272 273 274 276 278 280 282
286 285 283 283 283 282 281 280 279 279 278 278 278 277 277 276 275 274 273 273 273 273 272 272 271 271 270 270 270 270 269 269 269 269 269 270 270 271 273 275 276 278 280
282 282 282 280 279 278 277 277 277 277 276 276 275 275 275 274 273 272 272 271 271 271 270 270 270 269 269 268 268 268 268 268 268 268 269 269 270 271 271 273 275 277 279
279 278 277 277 277 276 276 275 275 275 274 273 273 273 272 272 271 271 270 270 269 269 269 268 268 268 268 267 267 267 267 267 267 267 267 268 269 270 271 272 274 276 277
278 277 277 276 275 274 274 273 273 273 272 272 271 271 270 270 269 269 268 268 268 268 267 267 267 267 267 267 268 267 267 267 267 266 267 268 269 270 271 272 273 275 276
276 275 274 273 273 272 272 271 271 271 270 270 269 269 268 268 267 267 267 266 266 266 266 266 266 266 267 267 268 267 267 267 267 267 267 267 269 270 271 271 272 274 275
273 272 272 271 271 270 270 270 269 269 269 268 268 268 267 266 266 266 265 265 265 265 265 265 266 266 267 268 268 268 267 268 268 269 268 268 269 270 271 271 272 273 275

GFSGL_850_thetae_087.txt.gz
Theta_e
320 321 322 323 324 323 322 322 323 324 324 323 322 323 324 323 323 322 323 322 321 319 315 316 314 313 311 310 309 307 303 301 301 300 300 300 299 297 296 296 296 295 294
317 318 319 320 323 323 325 325 326 325 325 325 323 323 324 324 324 322 322 322 322 319 316 316 314 312 310 309 306 303 302 301 300 300 300 299 297 296 295 293 293 293 293
319 319 319 320 320 321 322 323 325 326 326 325 323 322 321 324 324 323 321 321 320 318 316 314 313 310 309 306 303 302 301 301 300 299 298 297 295 293 293 293 292 292 292
324 324 324 323 323 323 322 322 323 327 326 318 316 317 319 323 322 321 321 321 319 317 315 313 310 309 306 304 302 301 301 300 299 298 296 294 293 293 292 292 291 291 291
326 326 326 325 325 324 324 325 326 326 326 322 320 320 317 323 322 321 319 319 317 315 312 310 307 306 305 302 301 301 299 298 297 295 292 291 291 291 291 291 290 288 286
326 326 326 326 326 326 326 326 326 327 327 326 321 323 321 322 322 321 318 317 312 309 309 306 305 302 301 301 299 299 297 294 291 290 290 291 290 290 288 286 285 284 284
326 326 326 326 326 327 327 327 324 325 324 323 322 323 322 321 319 319 316 311 310 309 306 303 301 300 299 298 296 296 293 291 291 291 290 288 286 285 284 284 284 285 286
327 327 327 327 328 326 326 325 325 323 322 323 322 320 319 316 316 310 309 308 307 305 301 299 298 297 297 295 294 292 292 290 287 285 284 284 284 283 284 284 286 286 286
328 328 327 325 325 324 323 323 322 323 321 320 319 316 311 309 309 308 308 306 303 300 299 297 298 296 294 293 292 288 286 285 284 284 284 283 284 284 285 286 286 285 286
328 327 325 324 323 321 322 320 320 319 316 312 310 309 308 309 307 305 304 299 300 299 297 296 294 293 291 287 285 284 284 283 283 283 283 283 283 283 283 283 285 286 286
324 323 321 320 318 317 316 316 316 314 311 310 309 308 305 303 303 301 300 297 295 295 293 292 290 287 285 284 283 282 282 282 282 282 282 281 281 281 282 283 284 285 285
319 317 315 314 313 313 313 313 311 310 309 307 305 303 301 300 299 297 295 295 293 291 289 287 286 284 282 283 282 281 281 281 281 281 280 280 279 279 280 282 283 283 284
314 313 312 311 310 310 309 308 307 304 302 302 300 299 297 295 295 294 293 291 289 287 287 286 284 283 283 282 280 280 280 280 280 279 279 278 278 278 278 279 281 282 283
311 309 308 307 306 305 304 302 302 301 299 297 295 294 294 292 291 290 289 288 287 288 285 284 284 281 280 279 279 280 279 279 278 278 277 277 277 277 277 277 278 280 281
307 306 305 304 303 303 301 299 297 294 293 293 292 292 291 290 289 287 287 287 286 283 282 282 281 280 279 279 279 278 278 277 277 276 275 275 275 276 276 276 277 278 279
304 301 300 299 298 296 295 294 294 294 294 293 292 289 287 287 287 286 284 283 282 282 282 281 280 278 278 277 277 276 276 275 274 274 273 273 273 274 274 275 276 276 277
298 295 296 295 294 294 293 293 291 289 288 288 287 287 286 284 283 282 282 281 281 280 279 279 278 277 277 276 275 274 274 273 272 272 271 271 271 272 272 273 274 275 276
296 294 293 293 292 291 290 289 288 287 286 285 284 283 282 281 281 280 280 280 279 278 277 276 276 275 275 274 273 272 272 271 271 270 270 270 270 270 271 271 272 273 274
293 292 290 289 288 287 286 286 285 284 283 282 281 281 280 280 279 279 278 277 276 275 274 274 273 273 272 272 271 270 270 269 269 269 269 269 269 269 270 270 271 271 272
289 288 287 286 285 285 284 283 282 281 280 279 278 278 278 277 277 276 275 274 273 272 272 271 271 271 270 270 269 269 268 268 268 268 268 268 268 268 269 269 270 270 272
286 285 284 283 282 280 278 278 277 276 276 276 275 275 274 274 273 272 271 271 270 270 269 269 268 268 268 268 267 267 267 267 267 267 267 267 268 268 268 269 269 270 271
282 281 280 279 278 277 277 276 275 274 274 273 272 272 271 271 270 270 269 268 268 268 267 267 267 266 266 266 266 266 266 266 266 266 266 267 267 268 268 268 269 270 270
280 279 278 277 276 275 274 273 272 272 271 270 270 269 269 268 268 267 267 267 266 266 265 265 265 265 265 265 265 265 265 266 266 266 266 267 267 268 268 268 269 269 270
276 275 274 273 273 272 271 270 270 269 269 268 268 267 267 267 266 266 266 265 265 265 264 264 264 264 264 265 265 266 265 266 266 266 266 266 267 268 268 268 269 269 270
273 273 272 271 271 270 269 268 268 267 267 266 266 266 265 265 265 265 264 264 264 264 264 264 264 265 265 265 265 265 266 266 266 266 267 267 267 268 268 268 269 269 270
272 271 270 269 269 268 267 267 266 266 265 265 264 264 264 264 264 263 263 263 264 264 264 264 264 265 265 265 266 266 266 267 267 267 267 267 268 268 268 269 269 269 270

GFSGL_850_thetae_090.txt.gz
Theta_e
315 316 315 315 314 313 313 314 314 315 314 314 314 316 319 321 322 322 322 321 321 320 322 322 321 317 315 315 313 312 311 307 306 307 303 301 300 300 299 298 297 295 294
317 317 318 318 318 317 317 318 317 318 319 320 321 322 323 323 324 323 322 323 316 317 321 322 321 317 315 315 313 312 308 308 305 302 301 301 300 300 299 297 294 293 293
317 317 317 317 318 320 321 322 323 323 323 324 324 324 325 323 322 322 321 318 323 318 320 320 320 319 316 314 312 310 308 305 303 302 301 300 300 298 297 294 292 292 291
322 320 320 321 320 318 318 318 319 319 320 321 322 321 319 322 318 320 321 319 322 322 320 319 320 317 315 313 310 308 305 304 302 301 300 299 297 296 293 291 291 290 290
324 324 324 320 319 319 319 320 321 321 322 322 323 323 325 321 317 318 319 321 321 320 319 319 315 312 311 309 307 304 304 301 300 299 298 296 295 291 290 290 290 287 286
324 324 324 323 322 322 322 323 323 323 323 324 324 322 323 322 322 320 319 322 321 320 319 317 312 310 307 305 304 302 300 299 297 297 295 292 291 291 290 287 285 284 284
324 324 324 324 324 324 324 324 324 325 324 324 323 324 323 321 320 321 319 320 317 315 313 309 308 308 307 305 301 298 295 296 294 293 292 291 289 286 284 284 284 284 284
323 324 324 324 324 324 324 323 323 324 323 324 323 322 321 320 319 314 311 310 310 308 307 306 304 304 302 299 294 296 295 294 292 290 287 285 284 283 283 284 284 284 284
324 324 324 323 323 321 321 322 323 323 321 321 321 320 317 314 311 310 309 308 308 307 307 305 302 300 296 296 296 295 292 288 285 284 283 283 283 283 283 283 283 284 283
323 323 321 320 319 320 320 320 318 319 319 316 315 312 310 309 306 306 306 306 306 304 297 297 296 295 295 293 289 286 285 284 283 283 283 282 282 282 281 281 281 284 284
322 321 321 320 320 318 317 316 316 315 314 313 311 309 307 306 304 303 302 299 297 297 295 294 293 290 288 286 285 283 283 283 282 282 282 281 282 281 281 280 280 282 283
319 318 317 316 315 313 312 312 311 311 310 308 306 305 302 301 299 297 295 295 294 293 291 290 288 286 284 282 282 284 282 282 282 281 281 281 281 281 280 279 279 279 280
315 314 312 311 310 310 310 310 309 307 305 304 302 300 297 295 294 293 293 292 292 292 291 288 286 286 286 285 282 281 280 280 281 281 280 280 280 279 278 277 277 278 278
311 310 309 309 308 306 305 303 302 300 298 297 295 294 293 292 292 292 292 290 288 287 287 287 286 285 283 281 281 280 280 280 279 279 279 278 277 276 276 276 276 276 277
308 306 304 302 301 300 299 297 296 294 294 294 293 292 291 290 289 287 287 286 285 284 284 283 282 281 280 279 279 278 278 278 277 277 276 275 275 274 274 274 274 275 275
303 300 299 298 297 296 295 294 293 293 292 291 289 288 287 286 285 284 283 282 281 281 280 280 279 279 278 277 277 276 276 275 275 274 273 273 272 272 272 273 272 272 273
298 296 296 295 294 293 292 291 289 288 287 286 285 285 283 282 282 281 281 280 280 279 278 278 277 276 276 275 275 274 274 273 272 272 271 271 270 270 270 271 271 271 272
295 293 293 292 290 289 288 288 286 286 285 283 282 281 280 280 280 279 279 278 278 277 275 275 275 274 274 273 272 272 271 271 270 270 269 269 269 269 269 269 269 270 271
292 290 289 288 287 286 285 284 284 283 281 280 280 279 279 278 277 277 276 275 274 273 272 272 272 271 271 270 270 269 269 268 268 268 268 267 267 267 268 268 269 269 269
288 287 287 286 285 283 282 281 280 278 278 277 276 276 275 275 275 274 272 272 271 270 270 269 269 268 268 268 267 267 267 267 267 267 267 267 267 266 267 267 268 268 269
286 284 283 282 281 280 279 278 277 276 275 274 273 272 272 271 271 270 269 269 268 267 267 267 266 266 266 266 266 265 265 265 265 265 265 266 266 266 267 267 267 268 268
282 281 280 279 277 276 275 274 273 272 272 271 270 270 269 269 268 268 267 267 266 266 265 265 265 265 264 264 264 264 265 265 265 265 265 266 266 266 266 267 267 268 268
278 277 276 275 274 273 272 272 271 270 269 269 268 268 267 267 266 266 266 265 265 265 265 264 264 264 264 264 264 264 264 265 265 265 265 265 266 266 266 267 267 268 268
275 274 273 272 272 271 270 269 269 269 268 268 267 267 266 266 266 265 265 265 264 264 264 264 264 264 264 264 265 265 264 265 265 265 265 265 266 266 267 267 267 268 268
273 272 271 270 270 269 269 269 268 268 267 267 267 267 266 266 265 265 265 265 265 265 265 265 264 264 264 265 265 265 265 265 265 265 265 265 266 267 267 267 268 268 268
271 270 270 270 269 269 268 268 267 267 267 267 266 266 266 266 266 266 265 265 265 265 265 265 265 265 265 265 265 265 265 265 266 266 266 266 266 267 267 267 268 268 268

GFSGL_850_thetae_093.txt.gz
Theta_e
315 316 318 318 318 317 317 317 317 316 316 316 316 316 315 315 315 315 315 317 321 322 322 321 321 319 321 320 320 318 315 314 312 312 309 307 306 306 302 301 300 299 298
315 314 314 314 314 315 316 316 316 316 316 316 316 316 316 315 315 317 320 319 319 321 319 321 318 317 317 317 319 318 315 314 313 312 310 306 305 302 301 300 300 299 298
317 316 316 315 316 315 315 314 314 314 314 315 315 316 317 319 321 323 322 322 323 318 321 321 319 317 316 317 319 318 316 314 313 310 306 305 302 302 300 300 299 298 295
318 318 317 317 317 317 317 318 319 319 320 320 321 321 321 321 322 321 319 319 322 319 321 321 319 319 319 318 316 317 315 313 310 306 304 302 301 300 299 298 296 295 291
322 321 320 318 317 317 317 317 317 317 318 318 319 319 321 322 322 323 322 323 323 317 318 321 319 320 317 317 316 315 311 309 306 303 302 301 300 298 297 295 293 291 290
323 323 323 322 321 319 318 318 318 318 318 319 322 323 322 323 323 322 323 321 321 320 318 317 317 317 313 310 309 307 307 305 302 301 300 298 296 296 293 292 290 287 286
323 323 323 323 323 323 322 322 322 323 323 323 323 324 324 322 322 322 321 320 319 317 315 313 311 310 308 307 304 304 304 303 301 299 296 295 293 293 290 286 284 284 285
323 323 323 323 324 324 323 323 323 323 323 323 324 323 320 320 320 320 319 315 312 310 309 307 306 307 305 304 302 300 299 297 295 294 293 292 288 285 284 284 284 284 284
323 323 323 323 322 323 323 323 323 322 323 322 320 319 318 318 317 317 313 310 309 307 305 303 301 301 302 300 299 295 293 293 292 286 285 286 285 283 283 283 283 283 285
322 322 322 322 321 321 321 321 321 319 318 318 316 315 314 311 310 309 307 306 305 303 301 298 294 293 293 293 293 292 290 287 285 285 284 285 284 283 283 281 283 283 284
321 320 320 319 319 318 317 316 315 315 314 313 312 310 307 305 304 303 302 300 299 296 294 293 293 293 293 293 293 291 287 284 283 284 284 283 283 284 283 283 282 281 280
318 317 316 314 313 312 311 311 311 310 309 308 306 304 300 298 296 295 294 294 293 293 293 293 292 291 290 289 287 285 285 285 284 283 282 282 282 281 281 281 281 280 280
314 312 311 310 309 309 308 307 307 304 303 300 298 296 294 293 293 293 293 293 292 291 289 288 287 287 286 285 284 283 282 281 281 280 280 279 279 279 279 279 279 278 277
310 309 307 307 305 304 303 301 300 298 297 295 294 293 292 291 290 290 289 288 288 287 286 285 284 284 283 281 280 280 279 279 279 278 277 277 277 276 276 275 275 274 275
306 303 302 302 301 299 298 295 295 293 293 292 291 290 289 288 287 286 285 284 283 282 282 281 281 280 280 279 278 278 277 277 276 275 275 274 273 272 272 272 272 272 273
303 300 298 298 296 295 294 292 291 290 289 288 287 287 285 284 282 282 282 281 280 280 279 278 278 277 277 276 276 275 275 274 273 272 272 271 271 271 271 271 271 271 271
299 296 295 294 293 292 290 289 288 285 285 284 283 282 282 281 280 280 280 279 278 278 276 275 274 274 274 274 273 273 272 271 270 270 270 269 269 269 269 269 269 270 270
295 294 293 291 290 289 287 286 285 284 283 282 280 280 279 279 278 278 277 276 275 273 272 272 272 271 271 271 270 269 269 268 268 268 267 267 267 267 268 268 268 268 268
292 290 289 288 287 286 284 283 282 280 279 278 277 277 276 275 274 274 273 272 271 269 269 269 268 268 267 267 267 266 266 266 266 265 266 266 266 266 266 266 266 266 266
288 286 285 284 282 282 281 280 279 277 276 275 274 273 272 272 272 271 270 269 269 267 267 266 266 265 265 265 265 265 264 264 264 264 264 264 265 265 265 265 266 266 267
284 283 282 281 279 277 276 275 274 273 272 272 271 271 270 270 269 269 268 268 267 267 267 266 266 265 265 264 263 263 263 264 264 263 263 263 264 264 264 265 265 265 266
280 278 278 277 275 275 274 273 272 271 271 270 270 269 269 269 268 268 267 267 267 266 266 265 265 265 265 265 264 264 264 264 264 263 263 263 263 264 264 264 264 265 265
277 276 275 274 273 272 272 271 271 270 270 269 269 269 268 268 267 267 267 266 266 266 266 266 266 265 265 265 265 264 264 265 264 264 264 262 262 263 263 264 264 264 265
275 274 274 273 272 272 271 270 270 269 269 269 268 268 267 267 267 267 267 267 266 266 266 266 265 265 265 265 265 265 265 265 265 265 265 265 265 265 264 264 264 265 265
274 273 273 272 271 270 270 269 269 269 268 268 268 267 267 267 267 267 266 266 266 266 266 266 266 266 266 266 266 266 266 266 265 265 265 266 266 266 266 266 266 266 266
273 272 271 270 270 269 269 269 269 268 268 268 268 267 267 267 266 266 266 266 266 266 266 266 266 266 266 266 266 266 266 266 266 266 266 266 266 266 266 266 266 266 267

GFSGL_850_thetae_099.txt.gz
Theta_e
324 323 323 323 323 322 322 322 321 321 320 320 319 318 318 319 319 319 318 318 319 320 320 320 320 320 320 320 318 318 318 318 316 317 317 317 315 316 316 316 315 314 311
324 323 323 323 323 321 321 321 321 321 321 320 320 320 320 320 320 320 320 320 320 320 320 320 321 321 319 317 318 319 320 319 317 315 316 318 316 315 314 314 314 312 309
324 324 324 324 324 323 323 322 321 321 321 321 320 320 320 320 320 321 321 320 320 321 321 321 320 317 318 322 322 320 320 317 316 314 314 316 314 313 313 312 310 308 302
323 323 324 324 324 324 324 323 323 322 322 322 321 322 322 322 322 322 322 321 321 321 320 319 321 322 322 321 319 317 317 316 314 314 313 312 311 311 311 310 306 303 302
324 324 324 324 324 324 324 324 323 322 322 322 322 322 322 321 321 321 321 320 321 321 322 322 322 321 319 317 316 315 313 313 313 312 311 310 310 309 308 306 303 301 300
326 325 325 324 324 324 323 323 322 322 322 322 321 321 321 321 321 321 322 322 321 321 321 320 318 316 315 314 313 312 311 310 309 308 308 307 305 303 302 302 300 298 297
327 326 326 325 325 324 324 323 323 322 322 322 322 322 322 322 322 322 322 322 320 319 318 316 313 313 310 309 308 307 306 305 304 303 301 299 298 297 296 295 294 293 293
327 326 326 326 325 325 324 323 322 322 321 321 321 321 321 321 321 321 320 318 316 313 311 310 307 306 304 301 300 299 298 297 297 296 295 295 294 294 294 293 293 293 292
327 327 326 326 325 324 323 322 321 321 321 321 320 319 318 316 315 315 313 310 309 307 305 302 300 298 296 295 295 295 295 295 295 294 294 293 293 292 292 291 289 287 287
326 324 324 323 323 322 321 321 321 320 319 315 314 312 309 309 306 306 306 305 303 300 298 297 295 295 295 294 294 293 292 291 290 290 289 289 288 287 287 286 285 284 284
323 322 321 321 321 321 319 317 315 313 311 308 307 304 303 301 299 299 298 298 297 296 295 294 293 293 292 291 290 289 288 287 286 285 284 284 283 283 283 282 282 282 282
320 319 317 316 316 313 313 310 309 308 307 303 302 300 297 296 295 294 294 294 294 293 292 290 289 288 286 285 285 283 283 283 282 282 282 282 282 281 281 280 280 280 279
319 314 311 310 309 309 308 306 304 303 302 299 298 296 294 292 292 292 292 291 290 289 287 286 285 284 283 282 281 281 281 280 280 280 280 280 279 278 278 278 277 277 277
310 308 305 307 304 304 304 301 299 297 296 295 294 292 291 290 289 289 288 287 286 285 283 282 282 281 282 281 281 281 280 279 278 278 278 277 277 277 276 276 276 276 276
307 303 301 301 301 299 299 297 296 294 293 293 291 290 289 288 285 286 285 284 283 281 281 280 280 279 279 279 278 278 277 276 276 275 274 274 274 274 274 274 274 273 273
303 300 299 298 297 297 295 292 290 290 290 290 289 288 286 284 283 282 281 280 278 278 279 278 278 277 276 276 276 275 275 274 273 272 272 272 272 272 272 271 272 272 272
299 296 295 294 293 292 290 289 288 285 286 286 285 284 283 281 280 278 276 275 276 276 276 276 275 274 274 273 273 273 272 272 271 271 270 270 270 270 270 270 270 271 271
296 294 291 289 288 287 285 284 282 281 280 280 279 279 278 276 276 276 274 275 275 274 274 274 273 272 272 272 271 270 270 269 269 269 269 269 269 269 269 269 270 270 270
293 292 291 290 288 285 283 282 281 280 279 277 276 275 274 274 274 274 274 273 273 272 272 272 271 271 270 269 269 269 268 268 268 268 268 268 268 268 268 268 268 269 269
290 289 288 286 284 281 280 279 278 277 276 275 274 274 274 274 273 272 271 271 271 270 270 270 269 269 268 268 268 268 267 267 267 267 267 267 267 267 267 267 268 268 269
287 286 283 280 279 278 278 277 277 276 275 273 273 272 273 272 272 271 270 269 269 268 268 268 267 267 267 267 266 266 266 266 266 266 266 266 266 266 266 267 267 268 268
281 280 279 278 277 276 276 275 274 274 273 273 272 272 271 270 270 270 269 268 267 267 266 266 266 266 265 265 265 265 265 265 265 265 265 264 265 265 266 266 267 267 267
279 279 278 277 276 275 274 274 273 272 272 271 271 270 270 269 269 268 267 267 267 267 267 268 267 267 265 266 267 265 264 264 264 263 263 263 264 265 265 265 266 266 267
278 278 277 275 274 274 273 272 272 272 271 270 270 269 268 268 267 267 267 269 269 268 268 268 268 268 268 268 268 267 266 265 265 266 265 264 263 263 264 265 265 266 266
276 275 274 273 273 272 271 271 271 270 269 269 268 268 267 267 267 267 268 268 269 269 269 269 268 268 268 268 268 267 266 267 267 267 267 266 265 263 264 265 265 266 266
274 273 272 271 271 271 271 270 270 269 269 268 268 268 267 267 268 269 268 268 268 268 268 268 268 268 268 268 267 267 268 268 268 268 267 267 266 263 264 265 265 265 266

GFSGL_850_thetae_102.txt.gz
Theta_e
324 324 324 323 322 320 319 321 320 319 319 319 320 321 320 320 319 317 318 318 317 316 316 317 317 318 320 319 319 320 320 320 320 317 317 319 318 317 317 316 316 316 315
323 327 325 322 322 321 321 318 316 318 321 321 321 320 319 318 318 318 317 316 318 320 318 319 319 320 320 320 321 321 321 321 321 319 319 318 317 317 316 314 314 314 314
325 324 324 322 323 322 322 322 322 322 321 321 321 321 320 319 318 318 318 319 319 319 321 321 321 321 321 322 322 322 321 319 320 318 316 315 314 314 313 313 312 312 312
325 324 324 324 323 322 321 321 322 322 321 321 320 320 320 320 320 320 320 320 320 321 321 322 322 322 322 321 320 319 318 317 315 314 312 312 312 311 311 311 310 310 311
325 325 325 324 323 323 323 322 322 321 321 321 321 321 321 321 321 322 322 323 322 322 322 322 322 322 322 318 319 317 315 314 312 310 309 308 308 307 306 304 304 304 304
325 324 325 325 325 324 324 324 323 323 322 322 322 322 322 322 321 321 321 321 321 321 321 321 319 318 314 317 314 312 312 308 308 306 304 303 302 300 299 299 298 298 298
325 325 324 324 325 325 324 324 323 322 322 321 322 321 321 320 320 320 321 321 320 320 318 316 312 311 309 307 307 302 303 300 300 299 299 298 296 296 295 294 294 294 293
327 326 326 325 325 325 324 324 322 322 322 321 321 321 321 320 320 320 320 319 319 314 310 307 306 304 303 301 300 297 296 296 296 295 294 293 292 292 292 291 290 290 290
328 327 327 326 326 325 324 323 322 322 322 321 320 318 316 315 314 315 313 310 308 306 303 302 300 298 298 296 295 294 294 294 292 291 290 289 288 288 287 287 287 286 286
328 327 327 326 326 325 323 322 321 321 321 317 316 311 309 309 305 305 305 304 303 300 299 297 296 295 294 292 291 290 289 288 287 286 285 284 284 284 284 283 282 282 282
326 326 326 325 325 322 321 320 318 317 315 310 308 304 302 301 299 299 298 298 297 296 295 293 291 289 287 286 285 284 283 283 283 282 282 282 282 282 282 281 280 280 279
322 323 322 323 323 321 318 313 310 307 306 303 301 298 296 295 295 295 295 294 292 291 289 287 285 284 283 282 282 281 281 280 280 279 280 280 279 278 278 278 277 277 277
319 319 318 315 311 310 312 305 303 302 300 297 297 296 294 292 292 291 290 289 288 287 285 283 282 282 281 281 280 280 280 278 278 278 277 277 276 275 275 275 275 275 275
316 311 307 305 301 300 303 299 298 297 296 295 295 293 291 290 289 287 287 285 283 282 282 281 280 279 279 279 278 277 277 276 275 275 274 273 273 273 273 272 272 272 272
306 303 302 302 301 298 298 297 296 294 294 294 292 292 290 288 285 284 282 280 279 279 279 279 278 277 276 276 275 275 274 274 273 272 272 271 271 271 271 271 270 271 271
302 301 300 296 297 297 295 295 292 291 290 290 288 287 285 283 281 279 278 278 277 277 277 276 275 274 274 273 273 272 272 271 271 270 270 270 270 269 269 269 269 270 270
300 298 297 296 295 294 295 292 290 285 286 285 283 281 280 279 277 276 276 277 276 276 275 274 273 272 272 272 271 271 270 270 269 269 269 269 269 269 268 268 269 269 269
294 294 294 292 291 289 288 285 284 283 280 278 278 278 277 277 276 276 275 275 276 274 273 272 272 271 271 270 270 269 269 269 268 268 268 268 267 267 268 268 268 268 268
294 291 290 289 287 285 283 281 280 279 277 276 276 275 275 274 275 275 275 275 273 272 272 271 270 270 269 269 268 268 268 267 267 267 267 267 267 267 267 267 267 267 268
291 289 287 286 284 283 281 279 278 278 277 276 275 275 274 274 274 274 274 273 272 271 271 270 269 269 268 268 267 267 267 267 267 266 266 266 266 266 266 266 267 267 267
286 285 284 282 280 279 279 278 278 277 276 274 274 273 273 273 273 272 272 272 272 271 270 269 269 268 268 268 268 268 268 267 266 266 266 266 265 265 265 266 266 266 266
281 280 280 279 278 278 277 276 276 275 274 274 273 273 272 272 271 271 271 271 271 270 269 269 269 268 269 269 269 269 268 267 266 266 266 266 266 265 264 265 265 265 266
279 279 278 278 277 276 276 275 274 274 273 273 272 272 271 271 271 271 270 270 270 270 269 269 269 269 269 269 269 268 268 268 267 267 266 267 267 266 265 264 264 265 265
279 278 277 276 275 275 274 273 273 273 272 271 271 271 271 270 270 269 269 270 270 269 269 269 270 269 269 269 269 268 268 268 267 266 267 267 267 267 266 265 265 265 265
277 276 276 275 275 274 273 273 272 272 272 272 271 270 269 269 269 269 269 270 269 269 269 269 269 269 269 269 269 269 268 268 268 268 268 268 268 267 266 265 264 264 265
275 275 274 274 273 273 273 273 272 272 271 270 270 270 269 268 269 269 269 269 269 269 269 269 269 269 269 269 269 269 269 269 269 268 268 268 268 268 267 266 265 265 264

GFSGL_850_thetae_105.txt.gz
Theta_e
322 324 325 325 324 324 324 324 323 323 321 321 321 320 318 317 316 318 317 316 315 319 318 317 317 317 316 316 316 317 319 319 320 320 320 319 319 320 319 318 317 316 316
321 323 324 324 323 322 323 323 322 322 322 322 320 318 318 317 316 318 317 316 318 318 317 318 317 316 318 319 319 320 320 320 321 321 321 320 320 318 316 314 313 313 312
323 323 322 321 322 321 321 321 321 321 320 320 320 321 320 318 317 316 318 319 319 318 318 317 317 320 321 321 321 321 321 322 321 320 319 317 315 314 313 312 311 310 311
323 323 323 324 322 321 321 320 319 318 318 319 320 321 321 320 319 319 319 319 319 318 319 320 321 321 321 321 321 320 321 318 319 317 316 313 312 310 308 308 307 307 307
325 323 323 324 322 322 322 322 319 317 320 321 321 321 321 321 321 320 320 320 320 321 321 321 321 321 322 322 320 318 313 314 312 310 308 305 305 304 303 301 300 300 300
325 325 323 322 322 322 322 322 322 323 322 322 321 321 321 321 321 321 321 321 321 322 322 320 319 319 316 310 307 305 310 306 304 302 301 300 299 296 295 295 294 294 293
326 325 325 324 323 323 322 322 321 321 321 321 320 321 321 321 321 321 321 322 321 320 319 317 311 308 303 303 303 302 300 298 299 298 296 295 293 292 291 291 291 290 289
325 325 325 325 325 324 324 323 322 322 322 322 322 322 322 322 321 321 320 320 320 316 311 305 301 301 300 301 300 297 297 295 294 293 292 289 288 287 286 285 285 285 285
326 325 324 325 325 325 324 323 324 323 322 321 319 319 316 318 317 318 316 315 310 305 302 300 300 298 298 295 292 292 290 289 288 287 286 285 284 283 283 283 283 282 282
326 325 325 325 325 325 324 323 322 321 320 317 316 313 309 309 305 305 306 305 303 301 299 297 295 293 290 290 289 287 286 285 285 283 282 282 282 283 282 281 280 279 278
327 327 326 326 325 324 323 321 321 319 317 312 310 305 304 302 299 299 298 299 298 296 293 289 287 285 284 284 283 283 282 281 280 280 280 280 280 280 279 278 277 276 276
323 324 323 323 322 321 321 318 317 315 311 306 303 299 297 296 296 295 294 292 290 290 288 285 283 282 282 281 281 280 280 279 278 277 277 276 276 275 274 274 274 274 274
318 318 317 315 314 313 313 307 303 303 302 298 297 295 294 293 292 290 288 287 286 285 283 282 281 281 280 279 278 278 277 276 276 275 274 273 273 272 272 272 272 272 272
315 312 307 307 304 302 301 299 298 296 296 295 294 294 290 289 289 286 283 282 282 282 281 280 279 279 278 277 276 276 275 274 273 272 272 271 271 271 271 270 270 270 270
309 303 302 300 300 298 297 295 297 295 294 293 291 289 289 287 283 281 280 280 280 279 279 278 278 277 277 276 275 274 273 273 272 271 271 270 270 270 270 269 269 269 269
301 299 297 296 296 294 294 289 289 289 290 290 289 290 284 281 279 279 278 278 278 277 278 277 276 275 275 274 273 272 272 272 271 271 270 270 269 268 268 268 268 268 268
292 292 293 293 293 293 292 292 288 285 285 285 284 281 280 278 277 278 277 277 277 276 277 275 274 273 272 272 272 271 271 271 270 270 269 268 268 268 268 267 267 267 267
294 293 292 291 293 291 290 289 289 288 284 279 278 277 276 277 277 277 276 275 276 275 274 273 272 272 272 272 272 271 271 270 269 269 268 268 268 267 267 267 267 266 267
292 291 289 288 289 290 290 288 282 280 279 277 276 276 275 276 276 276 275 276 275 274 273 273 272 272 272 272 271 270 270 270 270 269 269 268 268 267 267 267 266 266 266
291 291 291 288 287 286 283 281 279 278 277 276 276 275 275 275 275 275 274 274 274 273 272 272 272 272 271 271 271 270 270 270 270 269 269 268 268 268 267 267 266 265 265
288 286 287 285 282 280 279 278 277 276 276 275 275 274 274 275 274 274 274 273 272 272 272 272 272 272 271 271 270 270 270 269 269 269 269 269 269 268 268 267 266 266 265
288 285 282 281 280 279 278 277 276 275 275 275 274 273 273 274 274 273 272 272 272 272 272 272 271 271 271 270 270 270 270 269 269 270 270 269 269 268 268 267 267 266 265
281 280 280 279 278 277 277 276 276 275 274 274 274 274 273 273 273 272 272 272 272 272 271 271 271 271 270 270 270 270 269 270 270 269 269 269 269 268 268 268 267 266 266
279 279 278 277 277 276 276 275 274 274 274 274 273 273 272 272 272 272 272 272 272 272 271 271 270 270 270 269 269 269 269 270 269 269 269 269 269 269 269 268 267 267 266
278 278 277 276 276 275 275 274 274 273 273 272 272 271 272 271 271 272 272 272 271 270 270 270 270 270 269 269 269 270 270 270 269 269 269 269 269 269 268 268 267 266 266
277 277 276 275 275 274 274 274 273 273 272 271 271 272 272 272 272 272 271 271 270 269 270 270 269 269 269 269 270 270 270 270 270 269 269 270 269 269 268 267 266 266 266

GFSGL_850_thetae_108.txt.gz
Theta_e
322 325 325 324 324 324 324 324 324 325 324 324 322 323 323 322 321 321 320 318 318 319 317 316 317 317 318 318 318 317 316 318 319 318 318 319 320 320 320 319 318 318 317
320 323 326 324 324 323 323 323 323 323 324 324 325 322 323 323 321 321 319 318 318 318 317 317 316 319 318 318 317 317 318 320 321 320 320 320 321 319 317 317 315 315 314
320 322 324 324 324 323 323 323 323 323 323 322 322 323 322 321 320 319 319 317 318 317 316 316 318 319 318 318 318 320 321 321 321 321 320 318 317 316 316 315 312 311 310
320 321 323 324 324 324 322 323 323 322 322 321 322 321 320 320 319 318 317 317 317 318 318 318 318 319 318 319 320 321 319 319 320 316 314 312 312 311 309 308 308 306 305
320 321 321 323 323 322 321 321 322 321 320 320 320 320 320 320 319 318 317 317 317 318 319 320 319 319 320 320 319 317 314 314 311 311 311 307 305 305 303 301 299 299 299
322 321 322 321 321 322 321 320 320 320 320 319 319 319 320 321 321 320 320 320 320 320 320 320 320 318 315 310 308 308 307 307 306 307 304 301 297 295 294 294 293 293 291
322 324 322 322 322 322 321 321 321 319 319 318 320 321 321 321 321 321 321 321 321 321 320 319 313 308 305 304 304 303 303 301 303 301 298 294 291 290 290 289 287 286 285
325 324 324 323 322 322 323 322 321 322 321 320 322 322 321 321 321 321 321 321 320 318 311 307 304 302 301 301 300 300 299 298 292 291 290 288 287 286 285 284 283 283 282
325 325 325 324 323 322 322 322 322 320 321 321 322 321 321 320 320 320 320 318 314 308 301 299 299 299 298 298 298 293 289 288 287 286 284 283 283 283 282 282 281 280 279
326 325 325 325 324 323 323 323 322 321 321 321 320 318 318 317 314 313 314 313 308 302 298 296 295 295 293 291 288 286 285 283 282 281 281 280 280 280 280 278 277 276 275
325 325 325 325 325 325 324 324 323 321 320 316 314 311 309 307 303 302 301 301 301 298 296 294 291 291 287 284 283 282 281 280 280 279 278 278 277 277 276 275 274 273 273
323 324 324 324 325 324 323 321 318 317 315 310 308 304 300 297 296 296 296 297 294 296 292 288 285 284 283 281 280 279 279 278 277 277 276 276 276 275 275 274 274 273 272
319 321 321 321 320 319 319 314 311 310 310 304 300 295 292 292 291 291 292 293 290 289 285 283 281 280 279 279 279 278 277 277 276 276 275 274 273 273 272 273 273 272 272
313 311 310 310 307 305 304 299 298 297 296 293 290 289 288 287 288 288 287 284 284 283 281 280 279 279 278 278 277 276 276 275 275 274 273 273 272 272 272 271 271 270 271
307 305 303 303 301 298 297 294 293 291 292 291 291 289 290 289 284 284 284 282 281 279 280 279 278 278 277 276 275 275 274 274 274 273 272 272 271 271 270 270 270 269 269
299 295 294 294 293 292 292 290 292 292 292 291 291 291 287 283 281 280 280 279 279 279 279 278 278 276 276 275 274 274 273 273 272 271 271 271 271 270 270 270 269 269 268
293 290 290 290 289 289 289 288 283 283 285 285 284 282 281 278 278 279 278 279 278 278 279 277 276 275 275 274 273 273 272 272 271 271 271 270 270 270 270 269 269 268 268
291 291 292 292 292 292 291 289 288 287 285 279 278 278 278 278 277 278 278 278 278 277 276 275 275 274 274 273 272 272 272 271 271 271 270 270 270 270 269 269 269 268 268
295 293 292 291 291 290 289 287 285 282 278 278 277 277 277 277 278 278 277 277 277 276 274 274 273 273 272 272 272 272 271 271 271 271 270 270 270 270 270 269 269 269 268
291 290 290 290 288 288 287 284 281 279 277 277 276 276 276 277 277 276 275 275 275 274 274 273 273 272 272 272 271 271 271 271 271 271 271 270 270 270 270 269 269 268 268
290 289 289 288 286 282 281 280 279 278 277 276 276 275 275 276 275 275 274 274 273 273 273 273 272 272 271 271 271 271 271 271 271 271 271 271 271 270 270 270 269 268 268
289 288 285 282 280 279 278 278 277 277 276 276 275 274 274 275 275 274 274 273 273 272 272 272 272 271 271 271 271 271 271 271 271 271 271 271 271 271 270 270 269 269 268
286 283 282 281 280 279 278 276 275 275 275 275 274 274 274 274 273 273 273 273 272 272 272 271 271 271 271 271 271 271 271 270 270 271 271 271 271 271 270 270 269 268 268
281 281 280 279 278 277 276 275 275 275 275 275 274 274 273 273 273 272 273 272 271 271 271 270 270 270 271 271 271 271 270 270 271 271 271 271 271 270 270 269 268 268 267
279 278 277 276 276 276 276 275 275 275 274 274 274 273 273 273 272 272 272 271 271 271 271 271 271 270 270 271 270 270 270 270 270 270 271 271 270 270 270 270 269 268 268
278 277 277 276 276 276 276 275 274 274 274 273 273 272 272 272 272 271 271 271 271 271 271 270 270 270 270 270 270 270 270 270 270 270 270 270 271 271 270 270 269 269 269

GFSGL_850_thetae_111.txt.gz
Theta_e
321 322 324 324 325 324 325 323 325 325 325 324 325 325 326 325 325 325 324 322 322 320 320 319 318 318 317 317 318 318 318 318 318 317 317 319 320 320 320 318 319 319 317
321 321 322 324 324 323 324 324 323 324 325 325 324 324 324 324 324 325 324 323 320 319 319 318 318 317 316 316 317 316 317 318 318 318 319 320 320 319 319 319 317 316 315
320 320 322 323 323 323 323 322 323 323 323 323 323 322 322 323 324 324 322 321 321 320 319 318 318 317 316 317 317 319 318 318 318 320 319 318 317 317 316 315 314 313 310
320 320 323 324 323 324 323 322 323 323 323 323 322 322 321 321 322 322 322 321 320 318 319 318 318 317 316 317 318 319 318 318 319 317 314 313 311 309 308 310 308 304 304
321 320 322 324 324 323 323 323 322 323 323 322 322 322 322 322 322 323 321 319 318 318 317 318 318 318 318 319 318 317 316 313 312 309 307 308 306 306 303 299 300 298 296
322 321 321 323 324 324 323 322 321 322 322 321 321 321 320 321 320 320 319 318 317 316 316 317 317 318 318 318 315 311 308 308 306 305 302 301 298 297 294 294 291 291 289
322 322 321 321 323 323 322 321 321 321 321 320 320 320 320 320 320 320 319 319 318 318 318 318 315 313 311 308 305 304 304 302 302 300 300 296 294 290 288 286 285 283 283
324 323 322 322 321 321 322 320 320 320 321 320 319 319 319 320 320 321 321 321 320 319 316 315 311 307 303 301 301 301 299 299 298 295 290 287 285 284 283 282 282 281 280
326 325 324 323 322 321 321 321 320 320 319 320 320 319 319 320 321 320 321 320 319 316 309 305 302 300 299 298 298 298 295 289 285 283 283 283 282 281 280 280 280 279 279
324 324 325 324 323 322 322 320 320 320 320 319 318 318 318 320 320 320 319 318 315 308 299 297 296 298 297 297 293 287 285 284 282 281 280 280 280 279 278 278 277 276 275
324 324 324 324 323 323 322 321 320 320 320 319 317 316 314 313 311 310 309 308 303 296 294 293 292 293 289 286 284 283 283 282 280 280 280 279 278 278 277 277 276 275 274
324 324 324 324 324 323 322 322 320 320 319 316 313 309 304 301 300 299 299 299 296 296 292 290 286 283 283 282 282 282 280 280 279 279 278 278 277 277 276 275 275 274 273
320 323 323 323 323 321 319 318 315 312 308 307 303 299 296 293 292 293 294 294 293 292 289 285 283 281 280 280 280 280 279 279 278 277 277 276 275 274 274 274 274 273 273
317 314 317 316 313 309 307 308 308 302 302 295 295 294 291 291 291 291 290 290 290 289 284 282 281 280 279 279 278 278 277 276 276 276 275 275 274 273 273 273 272 272 272
310 307 306 305 303 301 300 297 296 293 294 290 287 289 290 291 290 291 291 287 283 282 282 280 279 278 278 277 276 275 276 276 276 275 274 273 273 273 272 272 272 271 271
305 301 298 297 295 294 293 291 292 292 293 293 293 291 290 289 287 285 282 281 280 279 280 278 277 276 276 275 275 275 275 275 274 274 273 273 272 272 272 272 271 271 270
300 296 294 293 292 291 291 291 288 287 288 289 289 290 288 283 281 280 280 280 279 277 278 277 276 275 275 275 275 275 274 274 273 272 272 273 272 272 272 271 271 271 270
294 291 291 290 290 290 290 290 289 288 285 282 281 281 279 279 279 278 278 278 278 276 277 276 275 275 275 275 274 274 273 272 272 272 272 272 272 272 272 271 271 270 270
291 291 291 291 291 290 289 287 286 285 284 282 279 278 277 278 278 277 277 277 277 276 276 275 275 274 274 274 273 273 272 272 272 272 272 272 272 272 271 271 270 270 270
288 288 289 288 288 288 288 287 286 284 281 279 278 278 277 277 277 277 276 276 276 275 275 274 274 274 273 273 273 272 272 272 272 272 272 272 272 271 271 271 270 270 270
289 289 290 289 289 289 289 285 281 279 279 277 277 276 276 277 276 276 276 275 274 274 274 274 274 273 272 272 272 272 272 272 272 271 272 272 271 271 271 271 271 270 270
289 288 288 289 286 282 281 280 280 279 278 277 276 275 274 275 275 275 275 275 275 274 273 273 272 272 272 272 272 272 272 271 271 271 271 271 271 271 271 271 271 271 270
289 286 283 281 280 280 279 279 278 277 277 276 275 275 274 275 275 275 275 274 273 272 272 272 272 271 272 271 271 271 271 271 271 271 271 271 271 271 272 272 271 271 270
282 282 281 280 279 278 278 277 276 276 276 275 275 275 274 274 274 274 273 273 272 272 272 271 271 271 271 271 271 271 271 271 271 271 271 271 271 271 272 272 271 271 270
281 280 279 279 278 278 277 277 276 276 275 275 274 274 273 273 273 272 272 271 272 272 271 271 271 270 271 271 270 270 270 270 270 270 270 271 271 271 272 272 271 271 270
279 279 279 278 277 277 276 276 275 274 274 273 273 272 272 272 271 271 271 271 271 271 271 271 271 270 270 270 270 270 270 270 270 270 270 271 271 272 272 272 272 271 271

GFSGL_850_thetae_114.txt.gz
Theta_e
322 321 322 322 321 323 323 323 323 325 326 326 325 325 326 326 327 326 326 324 318 318 318 319 321 320 319 318 316 317 317 317 318 318 317 318 318 317 318 319 319 319 318
323 323 322 322 322 324 323 323 324 323 325 325 325 325 325 326 326 326 326 325 323 321 321 321 320 318 317 317 318 317 317 317 317 317 318 318 318 318 318 316 316 314 314
322 322 320 321 321 321 323 323 322 323 324 325 324 323 324 325 325 326 325 324 323 322 322 321 320 319 318 318 317 316 316 316 318 317 317 318 317 316 313 312 312 311 310
322 323 320 319 321 321 324 322 321 322 323 322 322 323 323 324 323 324 324 324 323 321 320 319 319 318 319 318 317 316 317 317 318 317 316 313 312 311 310 311 306 305 303
322 322 321 319 320 320 321 321 321 321 322 322 321 321 321 322 322 323 324 323 321 321 320 318 318 319 318 318 317 317 317 317 316 313 311 309 307 305 303 305 302 298 296
323 322 321 320 320 320 320 320 320 321 321 322 321 321 320 321 321 321 321 322 321 319 318 318 318 317 317 317 316 316 315 313 311 309 307 304 301 301 298 293 289 287 286
324 322 321 321 321 321 320 320 323 319 320 319 319 320 320 320 320 320 319 319 319 318 318 317 316 315 315 313 312 311 308 306 304 303 301 298 297 293 287 284 283 282 281
324 322 321 323 322 321 320 321 320 320 318 318 318 318 317 319 319 320 319 319 318 317 316 315 313 311 306 305 304 303 301 300 298 296 292 288 284 283 282 282 281 280 280
325 322 321 321 321 322 320 320 320 319 319 319 318 318 318 319 319 319 320 319 318 316 312 307 303 302 299 298 298 299 297 293 287 284 283 282 281 281 280 280 281 280 280
324 324 323 322 322 321 321 320 319 319 318 318 318 318 317 317 318 320 320 319 317 312 304 299 297 298 296 294 294 290 287 285 283 281 281 280 279 280 279 279 278 278 276
325 324 323 323 323 322 320 320 319 319 318 318 317 316 315 315 317 318 316 315 313 306 299 295 293 292 291 289 286 285 284 283 281 281 280 279 279 279 277 277 276 275 275
324 324 323 322 323 323 322 321 319 319 318 316 313 310 306 305 303 303 306 307 302 299 293 291 289 289 288 286 282 282 281 280 279 279 278 278 277 277 276 276 275 274 273
324 323 321 322 321 322 319 318 316 315 314 311 308 305 299 294 293 295 296 295 294 295 293 291 289 285 282 282 282 281 279 279 278 278 277 277 276 276 275 275 274 274 273
315 318 316 314 319 318 315 312 310 307 306 303 305 299 292 293 292 291 291 292 293 292 289 284 282 282 281 280 278 278 278 278 277 277 276 276 275 274 274 274 274 274 274
308 305 306 306 308 310 304 303 302 299 300 296 295 293 292 291 292 293 292 290 288 286 284 282 280 279 279 278 278 277 277 276 276 276 275 275 274 274 274 274 274 273 273
302 301 299 300 300 298 296 292 292 293 294 294 293 294 292 290 289 289 289 289 286 283 281 279 279 278 278 277 277 277 276 276 275 274 274 274 274 274 274 274 273 273 273
297 295 295 295 294 293 292 291 289 289 290 290 290 290 290 288 287 286 283 280 279 279 279 279 279 278 277 277 276 275 275 275 274 274 274 274 273 273 274 273 273 273 273
293 291 291 291 291 291 291 290 289 288 285 283 284 285 285 284 281 280 280 280 279 277 278 278 277 277 276 276 275 275 274 273 273 273 273 273 273 273 273 274 273 273 272
290 290 290 289 289 289 288 288 288 286 284 283 282 281 280 279 279 279 278 278 278 277 277 276 276 276 275 275 274 273 273 273 273 273 272 273 273 273 273 273 273 272 272
287 287 287 287 286 287 287 287 288 287 286 285 282 279 279 279 279 278 277 277 277 277 276 276 275 275 274 273 273 273 272 272 272 272 272 272 272 273 273 273 272 272 271
287 287 287 287 287 288 288 288 288 287 283 279 278 278 277 278 278 277 277 276 276 275 275 274 274 274 273 273 273 272 272 272 272 272 272 272 272 273 273 272 272 272 271
288 287 287 288 288 287 287 285 283 280 279 278 277 276 276 276 276 276 276 275 275 274 274 273 273 273 272 272 272 272 272 272 272 272 272 272 272 272 272 272 272 271 271
288 289 288 287 286 284 281 280 279 278 277 277 276 276 275 275 275 275 274 274 274 274 273 273 273 272 272 272 272 271 271 271 272 272 272 272 272 272 272 272 272 272 272
288 287 285 282 280 280 279 278 277 277 276 276 275 275 274 274 274 274 274 274 273 273 273 272 272 272 272 271 271 271 271 271 271 271 271 271 271 272 272 272 272 272 272
281 281 280 280 279 278 278 277 276 276 275 275 274 274 274 274 274 273 273 273 273 273 272 272 272 271 271 271 271 271 271 271 271 271 271 271 271 271 271 272 272 272 272
279 279 279 278 277 277 276 276 275 275 274 274 274 273 273 273 273 273 273 273 272 272 272 272 271 271 271 271 271 270 270 270 270 270 270 270 271 271 271 272 272 272 272

GFSGL_850_thetae_117.txt.gz
Theta_e
328 327 324 322 323 323 321 322 322 323 323 324 325 326 326 326 325 325 326 325 325 315 310 310 315 320 319 319 318 318 317 316 317 316 317 317 318 317 318 317 316 317 316
326 326 322 322 323 322 321 322 323 322 322 324 325 325 325 325 326 327 326 325 325 319 314 313 314 315 316 316 319 318 318 316 316 317 317 317 316 316 316 315 314 311 312
326 323 320 321 324 322 321 323 323 322 323 325 324 324 324 324 325 325 326 325 325 324 323 316 315 316 317 317 319 317 317 317 317 317 317 317 316 313 313 310 308 307 306
324 322 320 323 324 321 321 322 321 321 323 324 324 323 323 324 325 325 323 325 324 323 320 320 317 317 318 319 318 318 318 317 316 316 317 316 313 311 307 305 304 302 300
325 323 321 322 322 321 321 321 321 321 321 321 321 322 322 323 324 323 323 322 322 323 321 320 320 319 319 318 318 318 317 316 316 316 314 312 308 306 302 301 299 295 292
324 322 321 321 320 321 321 321 321 320 321 321 321 321 321 321 322 323 321 323 322 322 321 321 318 319 318 318 317 317 316 316 314 311 308 305 301 298 295 294 290 286 284
323 322 321 321 320 320 321 321 320 320 321 320 321 321 320 320 320 320 321 322 320 320 321 319 318 317 316 317 316 316 314 311 307 304 302 299 296 290 285 284 284 283 282
323 322 323 320 321 320 320 321 320 320 320 319 319 320 320 319 319 320 320 320 320 318 317 317 316 316 312 312 311 309 306 303 300 297 292 289 287 285 284 283 282 281 280
322 322 323 321 320 319 320 320 320 319 319 318 318 318 319 319 318 318 319 318 318 316 313 311 310 308 304 302 304 303 299 296 290 288 287 285 283 283 283 282 281 280 279
322 323 323 321 320 319 320 320 319 319 319 318 318 318 317 319 318 317 317 318 317 314 308 305 301 302 297 295 297 295 294 289 284 284 287 286 283 281 281 280 279 278 277
321 322 321 321 320 319 320 319 319 318 318 317 318 317 317 317 317 317 313 315 316 312 305 299 295 294 294 291 290 286 286 286 288 284 281 280 279 279 279 278 278 277 276
320 321 321 321 321 320 319 318 319 319 318 317 316 315 314 314 314 315 313 311 307 303 297 292 290 289 290 287 286 286 287 284 281 280 279 279 278 278 277 276 276 275 274
315 317 320 320 320 320 319 319 317 317 317 315 313 311 305 302 301 300 301 301 297 296 293 291 289 287 284 285 285 283 280 280 279 279 278 278 277 277 276 276 276 276 275
314 317 316 317 319 315 314 313 310 312 309 308 306 304 298 294 293 294 294 294 294 294 293 291 289 285 286 285 280 279 279 278 278 278 277 277 276 276 276 276 276 276 276
302 302 304 308 306 309 309 306 306 301 307 303 301 296 295 293 292 294 295 294 294 293 292 288 286 284 279 279 279 278 278 277 277 276 276 276 275 275 275 275 275 275 274
299 299 300 300 301 301 301 297 297 297 297 296 296 296 293 294 291 291 291 291 291 290 289 284 279 279 279 278 278 277 276 276 276 275 275 275 275 275 275 275 275 275 275
297 297 297 297 293 291 293 295 292 290 292 292 292 291 291 288 288 289 289 287 283 281 280 279 279 278 278 277 277 276 276 276 275 275 275 275 275 275 274 275 275 275 274
292 293 294 292 292 291 292 291 288 287 285 285 286 287 288 288 288 288 283 281 279 278 279 278 278 277 277 277 276 276 275 275 274 274 274 274 274 274 274 274 274 274 274
290 289 289 290 289 288 287 286 286 285 284 282 283 283 284 284 281 280 279 280 279 278 278 278 277 277 276 276 275 275 274 274 274 274 274 274 273 273 274 274 274 274 274
288 288 288 287 286 286 286 286 285 285 285 285 285 284 282 279 279 279 278 278 278 278 277 277 276 276 275 275 274 274 274 273 273 273 273 273 273 273 273 273 274 274 274
286 286 286 286 286 286 286 286 286 286 285 284 281 278 278 278 278 278 277 276 276 276 276 276 275 275 274 274 274 273 273 273 273 272 272 272 272 273 273 273 273 273 274
286 286 286 286 286 287 287 286 286 284 281 279 277 277 277 277 277 276 276 276 276 275 275 275 275 274 274 273 273 273 273 272 272 272 272 272 272 272 272 273 273 273 274
287 287 287 287 287 287 286 285 281 279 278 277 277 276 275 276 276 276 276 275 275 275 275 274 274 273 273 272 272 272 272 271 271 271 271 271 271 272 272 273 273 273 274
287 287 287 286 286 283 281 279 278 277 277 276 276 275 275 275 276 275 275 275 274 274 274 273 273 273 272 272 271 271 271 271 271 271 271 271 271 271 272 272 273 273 273
286 285 283 281 280 279 278 277 277 277 276 276 276 275 275 275 275 274 274 274 274 273 273 273 272 272 272 271 271 271 271 271 271 271 271 271 271 271 271 272 272 272 272
281 280 280 279 278 278 277 277 276 276 275 275 275 274 274 274 274 274 273 273 273 273 272 272 272 271 271 271 271 271 270 270 270 270 270 271 270 270 271 271 272 272 272

GFSGL_850_thetae_120.txt.gz
Theta_e
325 325 328 328 327 324 326 325 325 325 327 327 326 325 325 325 324 322 323 324 324 315 311 314 317 314 316 320 319 318 317 317 318 317 317 317 317 316 316 317 317 317 316
323 324 327 328 326 324 324 324 324 324 324 324 324 325 326 324 326 324 322 321 322 321 319 310 312 310 315 319 319 318 316 316 318 317 317 317 316 316 316 315 314 313 311
323 323 326 326 326 323 323 323 324 324 322 323 323 323 324 323 323 325 323 322 319 318 323 319 310 309 313 317 313 318 314 315 316 317 317 317 316 315 312 311 308 305 304
323 323 325 324 323 324 323 323 323 322 322 323 324 324 324 324 324 324 325 324 323 321 320 322 314 311 314 316 316 315 314 315 317 317 317 316 315 311 308 306 304 302 301
323 323 324 323 323 323 322 323 322 321 322 323 324 323 324 323 323 324 323 324 323 321 319 320 316 313 320 317 314 315 316 317 317 317 316 315 312 307 304 302 300 296 293
321 322 323 322 322 322 322 322 321 321 321 321 321 322 322 322 322 323 323 322 321 319 320 318 318 319 319 317 316 317 318 318 317 317 315 311 306 302 300 297 292 288 286
320 322 322 322 321 321 322 322 321 321 321 322 321 321 321 321 320 322 322 322 320 318 319 320 319 317 317 317 317 317 317 316 314 312 309 304 301 295 289 287 287 286 284
319 321 323 322 320 321 321 321 321 321 321 321 321 320 320 320 320 320 321 320 320 320 317 317 318 318 317 318 317 316 313 310 306 304 300 294 290 288 285 287 287 285 282
318 320 322 322 320 320 321 321 321 320 321 320 320 320 320 320 319 320 319 319 317 316 315 316 317 317 314 314 313 312 307 302 294 291 290 287 289 290 287 284 283 282 281
318 320 321 323 320 319 321 321 321 321 320 319 319 319 320 319 318 318 319 319 317 316 313 311 310 310 306 303 304 303 301 294 289 286 291 289 284 283 282 282 281 281 280
316 319 321 321 319 319 320 321 321 320 320 318 318 317 318 318 317 317 317 318 318 315 311 306 302 300 298 296 295 293 293 288 291 288 285 283 282 281 281 280 280 279 277
315 315 319 321 319 319 320 320 320 319 319 318 317 316 314 314 314 314 315 315 315 314 306 298 293 292 290 286 288 291 291 289 285 283 281 280 280 279 279 278 278 277 277
308 314 318 319 319 318 319 319 318 317 317 315 315 313 310 306 306 307 310 311 308 306 299 293 289 289 290 290 290 288 285 283 281 281 280 279 278 278 278 277 277 277 277
307 307 309 311 316 316 317 317 316 315 314 314 312 310 306 301 300 298 299 297 295 295 292 293 292 291 290 288 284 281 280 280 280 279 279 278 277 277 277 277 277 277 276
301 300 302 305 306 301 305 308 311 308 309 307 304 305 301 296 293 295 297 296 296 295 294 290 288 288 286 281 279 279 279 278 279 278 277 277 277 277 277 277 277 277 276
299 299 301 300 299 300 299 298 299 302 303 300 298 296 296 294 293 292 293 294 293 290 290 288 285 279 278 279 279 278 278 278 277 277 277 276 276 276 276 276 276 276 275
296 296 297 297 295 296 297 294 293 292 296 295 295 292 293 291 289 289 289 290 289 289 289 283 280 279 278 278 278 277 277 276 276 276 276 276 276 276 276 276 275 275 275
292 293 294 292 294 291 293 290 286 287 285 284 287 288 287 288 288 288 288 287 284 281 281 279 279 278 278 278 277 277 276 276 276 275 275 275 275 275 275 275 275 275 275
290 289 289 288 288 286 287 286 286 284 284 282 283 283 284 285 286 284 282 280 279 278 278 278 277 277 277 277 276 276 276 275 275 275 275 275 275 275 275 275 275 275 274
287 288 287 286 286 285 284 284 282 281 280 280 281 282 283 283 279 278 278 278 278 278 277 277 277 277 276 276 276 275 275 275 274 274 274 274 274 274 274 274 274 273 272
285 285 285 285 285 284 284 284 284 283 282 281 280 281 279 278 278 277 277 278 278 277 277 277 276 276 276 275 275 274 274 274 274 273 273 273 274 274 274 274 273 272 272
284 284 283 284 284 284 284 284 283 283 283 282 279 278 278 278 278 277 277 277 277 276 276 276 276 275 275 274 274 274 273 273 273 273 273 273 273 273 273 273 273 273 271
284 284 284 284 284 284 284 283 283 282 279 278 278 277 277 277 277 277 277 276 276 276 275 275 275 274 274 274 273 273 273 273 273 273 272 272 272 272 272 272 272 272 272
286 286 285 285 284 284 284 282 280 279 278 277 277 277 277 277 276 276 276 276 275 275 275 275 274 274 273 273 273 273 273 272 272 272 272 272 271 271 271 272 272 273 273
285 285 285 284 283 281 279 278 278 277 277 277 276 276 276 276 276 275 275 275 275 275 274 273 273 273 273 273 272 272 272 272 271 271 271 271 271 271 271 271 272 272 272
284 284 283 281 279 278 278 277 277 276 276 275 275 275 275 275 275 275 274 274 274 273 273 273 273 273 272 272 272 272 271 271 271 271 271 271 271 270 271 271 271 271 272

GFSGL_850_thetae_123.txt.gz
Theta_e
325 325 325 328 329 330 330 329 329 330 328 327 326 327 326 326 324 322 322 323 322 322 321 320 321 323 322 321 322 321 319 318 318 318 316 317 316 316 316 316 316 316 316
325 325 324 327 329 329 328 327 328 328 327 326 327 326 326 325 325 324 323 322 323 322 320 321 320 322 322 322 321 319 319 319 317 317 317 317 317 316 316 316 314 314 314
323 324 324 326 329 328 327 326 325 325 325 327 325 325 326 325 325 325 324 323 323 318 321 321 319 320 320 320 320 319 318 318 317 317 315 316 315 314 315 310 311 309 311
320 323 324 325 328 327 326 324 324 323 324 324 324 325 325 326 325 324 324 323 321 320 322 321 319 320 318 318 316 316 316 317 317 315 315 315 315 314 310 308 306 307 306
317 323 323 324 327 326 324 323 323 323 323 323 323 323 323 323 325 324 324 324 324 323 323 322 320 319 317 316 314 317 312 315 317 315 314 315 314 310 308 305 303 301 298
314 320 322 323 326 324 324 323 322 323 323 322 324 324 323 324 323 323 322 323 322 322 323 321 320 320 320 318 314 312 317 317 317 315 315 315 311 308 305 302 299 297 291
313 315 321 322 324 324 324 323 323 322 322 322 322 322 322 322 322 322 321 323 322 320 322 322 321 319 318 319 314 314 316 316 315 315 315 312 309 304 300 296 292 289 289
312 314 319 322 324 324 323 323 322 321 321 322 321 321 322 321 321 321 322 322 321 319 319 318 317 317 316 316 314 315 315 314 312 311 308 306 301 297 291 289 290 292 290
312 313 318 322 324 323 323 323 322 321 321 321 322 320 321 320 320 320 321 321 320 317 316 315 315 316 315 315 316 316 313 310 304 303 301 295 291 291 292 293 289 286 282
313 313 317 321 324 322 323 322 322 321 321 320 321 321 320 320 320 319 320 319 317 316 312 311 311 313 314 313 314 314 312 304 299 295 292 292 293 292 285 285 286 283 282
311 314 315 319 322 322 322 321 321 321 321 320 320 320 319 319 319 316 316 318 318 314 312 309 306 306 307 306 306 305 306 298 292 291 291 290 286 285 284 282 282 281 280
307 313 314 315 319 322 320 321 321 321 320 319 318 317 315 315 314 314 315 315 315 316 311 305 301 300 299 299 299 296 294 292 292 289 287 286 283 281 281 280 280 280 279
301 310 309 313 318 321 320 320 320 319 319 317 316 315 311 308 308 309 311 313 311 311 305 298 294 293 291 290 292 292 290 287 288 287 282 280 280 280 280 280 279 279 279
298 301 303 307 306 314 318 319 318 317 316 316 314 312 308 304 305 304 305 305 303 303 297 293 289 289 291 291 290 289 288 284 281 280 280 279 278 278 278 278 278 278 278
298 299 300 302 302 301 307 307 309 310 313 316 311 309 307 299 296 297 298 298 298 296 294 292 290 290 289 288 285 282 280 279 280 279 279 278 278 278 278 278 278 277 277
295 296 297 300 299 300 297 296 297 300 302 305 305 305 299 298 290 292 294 294 293 291 290 288 287 288 286 280 279 279 279 279 279 278 278 278 278 278 277 277 277 277 277
292 292 293 293 296 297 298 296 292 291 294 296 296 296 297 298 295 291 291 290 288 289 289 287 285 282 280 279 279 279 278 278 278 278 277 277 277 277 277 277 277 277 276
290 290 290 290 290 290 291 290 290 288 287 284 286 289 289 290 290 290 290 289 287 286 287 284 279 278 278 278 278 278 277 277 277 277 277 277 276 276 276 276 276 276 276
288 288 288 288 287 286 286 285 284 284 281 280 281 283 284 287 286 285 284 286 285 281 279 278 278 278 277 278 278 277 277 277 276 276 276 276 276 275 275 275 275 275 275
285 285 286 285 284 284 283 283 281 280 280 281 282 281 282 283 283 282 282 281 279 278 277 277 277 277 278 278 277 277 276 276 276 276 276 275 275 275 274 274 274 274 274
283 284 284 284 283 282 281 280 280 281 280 279 279 279 281 283 280 279 278 278 277 277 277 277 277 277 277 276 276 275 275 275 275 275 275 275 274 274 274 274 274 273 273
281 281 282 282 282 282 282 282 282 282 281 280 279 278 279 279 278 277 276 276 276 276 276 277 277 276 275 275 275 275 275 275 274 274 274 274 273 273 274 273 273 272 272
283 282 281 281 282 282 282 282 282 282 280 279 278 277 277 277 277 277 277 277 276 276 276 276 276 276 276 275 275 274 274 274 274 274 273 273 273 273 273 272 272 271 271
283 283 283 282 282 282 282 281 280 279 278 278 277 277 277 276 276 276 276 276 276 276 276 276 275 275 275 275 274 274 274 274 273 273 273 273 273 273 273 272 272 271 271
284 283 283 283 283 282 282 281 281 279 278 277 277 276 276 276 276 276 276 276 276 275 275 275 275 275 274 274 274 274 273 273 273 273 273 272 272 272 272 272 271 271 271
283 283 282 281 281 280 280 278 277 276 276 276 275 275 275 276 275 275 275 275 275 275 275 274 274 274 273 273 273 273 273 273 273 272 272 272 272 271 271 271 271 271 270

GFSGL_850_thetae_126.txt.gz
Theta_e
319 324 325 325 328 332 333 331 331 329 329 328 327 327 326 325 326 325 323 324 324 325 322 321 322 322 324 322 322 322 322 321 321 321 321 320 320 319 316 316 316 316 316
316 319 324 324 324 328 331 331 330 330 328 328 328 327 326 326 325 325 323 323 323 323 322 324 322 321 321 322 322 321 321 322 321 320 319 317 316 316 316 316 316 315 314
314 316 322 324 325 326 329 331 330 330 327 329 328 326 326 326 325 324 324 322 322 323 323 322 321 320 319 321 320 320 320 321 319 318 318 317 316 316 316 315 314 313 312
313 315 320 323 324 325 328 329 329 328 326 325 326 325 325 326 325 326 325 324 322 322 323 322 321 320 317 321 319 317 318 320 319 318 317 317 316 315 313 313 312 310 307
312 314 316 322 324 325 327 328 328 326 324 324 326 327 327 326 325 324 325 324 323 322 322 322 323 317 319 319 316 315 318 319 318 316 317 315 314 314 313 313 310 305 302
311 313 314 319 323 324 326 328 326 324 323 323 323 323 324 324 324 324 324 323 324 323 321 322 320 316 321 321 319 319 320 318 317 312 310 311 312 313 313 311 304 301 298
308 312 313 316 321 323 324 326 325 323 323 322 322 322 322 324 324 324 323 323 322 322 321 322 318 319 321 322 321 320 318 315 317 315 314 314 315 314 311 305 300 299 294
307 310 312 315 318 323 324 325 324 323 324 322 322 323 323 323 323 322 322 322 322 322 321 321 320 320 321 321 321 319 317 315 315 314 313 315 313 309 302 300 295 292 294
307 310 313 313 317 321 323 325 324 323 323 322 321 321 321 321 321 320 321 321 321 320 317 316 319 319 320 319 319 318 315 314 314 312 311 308 303 300 294 294 294 294 295
305 309 312 313 315 319 318 324 324 323 322 321 322 321 320 320 318 318 319 320 320 317 314 313 314 317 316 316 315 316 314 310 310 306 301 298 296 294 294 293 293 291 287
304 306 311 313 314 314 316 323 324 322 321 321 321 321 319 319 317 316 316 318 318 316 314 311 310 312 314 314 310 312 311 307 301 298 296 294 292 290 290 288 284 283 283
301 304 309 310 312 314 315 323 323 322 321 320 319 319 318 317 316 315 315 316 316 315 312 309 307 306 306 306 306 305 303 297 294 293 292 288 288 287 284 282 282 281 281
299 301 305 307 307 311 314 322 322 320 320 319 318 317 314 312 312 310 311 312 312 312 309 305 302 302 302 300 298 295 293 293 291 289 288 287 284 282 281 281 281 280 280
296 298 299 300 304 306 306 302 320 320 318 319 317 315 312 309 308 307 307 306 304 305 300 299 298 297 296 294 291 287 286 287 289 290 286 281 280 280 280 280 280 280 280
294 295 295 297 299 301 302 299 301 316 314 319 317 316 314 308 304 304 305 302 301 301 296 291 291 290 289 286 285 286 288 286 284 281 281 280 279 279 279 279 279 279 278
292 293 293 294 295 296 299 299 295 300 305 305 309 310 304 304 300 299 300 300 296 293 292 290 289 288 287 286 286 285 282 281 280 280 279 279 279 279 279 279 278 278 277
289 290 291 291 292 291 291 296 292 288 294 295 294 294 295 294 291 291 292 293 292 290 292 290 288 287 287 286 282 280 279 279 279 279 279 278 278 278 278 278 278 278 277
287 288 288 289 288 288 286 286 289 286 286 286 287 289 289 288 288 288 287 289 288 289 289 288 287 285 281 280 279 279 279 278 278 278 278 278 278 278 277 278 277 277 277
286 285 285 285 286 285 284 283 282 283 281 280 281 281 281 281 282 283 284 287 286 285 284 284 282 281 279 279 279 279 278 278 278 278 277 277 277 277 277 277 277 276 276
284 284 284 283 283 282 282 281 280 279 279 279 279 279 280 281 283 284 284 285 284 282 282 280 278 278 278 279 279 278 278 278 277 277 277 277 276 276 276 276 276 276 276
282 282 283 282 281 280 280 279 279 279 279 279 279 280 282 284 283 283 282 281 280 279 278 278 278 278 278 277 277 277 277 277 277 277 276 276 276 276 275 275 275 275 275
281 281 281 281 281 281 280 280 280 279 279 279 279 281 282 282 282 281 280 278 278 278 278 278 277 277 277 277 277 277 277 277 276 275 275 275 275 275 274 274 274 274 274
281 281 281 281 281 280 281 281 281 280 280 279 279 280 280 279 278 277 277 277 277 277 277 277 278 277 277 276 276 277 277 276 276 275 275 275 274 274 274 274 274 274 274
281 281 281 281 281 281 280 280 279 279 279 279 279 279 278 277 277 277 277 277 277 277 277 277 277 276 276 277 277 276 276 275 275 275 274 274 274 274 273 273 273 273 273
281 281 281 281 280 280 279 279 279 279 278 278 277 277 276 276 276 276 276 276 276 276 277 276 276 276 276 275 275 275 275 274 274 274 273 273 273 273 273 272 272 272 272
282 282 281 280 280 279 279 279 279 279 278 277 276 276 276 276 276 276 276 276 276 276 276 275 275 275 275 274 274 274 274 274 273 273 273 273 272 272 272 272 272 272 271

GFSGL_850_thetae_129.txt.gz
Theta_e
314 314 317 320 323 324 326 332 331 333 330 329 328 328 327 328 329 326 325 324 324 324 324 324 324 323 323 323 324 322 322 319 321 321 321 321 320 321 320 319 320 320 318
313 313 313 317 321 323 324 326 331 332 330 329 328 327 327 326 325 325 325 324 323 322 324 324 324 323 323 321 324 323 323 321 320 321 321 321 319 319 318 319 319 316 315
314 313 313 314 320 323 323 324 327 331 331 330 329 326 327 327 325 325 325 325 324 323 323 324 323 323 322 321 323 324 323 322 321 320 320 320 318 317 317 316 314 314 314
313 312 312 313 316 322 323 324 325 329 330 330 329 328 326 325 325 325 325 324 324 323 323 324 324 324 321 321 323 323 322 322 322 321 320 319 318 317 313 314 313 313 312
311 311 310 312 314 317 323 324 325 327 330 330 328 327 325 324 325 325 325 325 325 324 322 323 323 323 322 323 323 321 322 321 320 321 320 317 317 315 314 314 312 310 308
309 309 309 311 312 315 320 324 325 325 328 328 327 325 325 325 325 324 324 325 324 324 323 322 323 323 323 323 321 320 321 319 319 319 318 317 316 316 315 313 310 309 304
307 307 308 309 312 314 318 322 324 325 328 327 324 324 324 325 324 324 324 324 323 323 323 323 322 323 323 322 320 319 319 319 315 316 316 317 316 315 311 310 309 305 302
304 305 307 308 311 313 315 319 323 325 326 324 323 323 322 322 322 322 323 323 323 323 323 321 320 322 322 321 319 317 320 316 314 316 316 315 313 312 312 311 305 300 297
300 302 305 307 310 312 314 318 319 324 325 324 323 322 322 322 323 323 322 322 322 322 321 321 319 319 321 320 318 320 318 318 317 316 317 316 315 313 310 305 300 298 295
301 302 304 306 308 311 313 315 318 321 324 324 322 322 322 322 321 320 320 320 321 321 320 319 314 315 318 319 317 319 319 316 317 317 316 314 311 307 302 298 298 297 297
301 303 305 305 306 309 311 313 316 317 323 323 323 321 321 320 319 318 319 320 320 320 317 313 310 310 313 314 316 317 316 313 309 311 310 306 300 298 296 294 295 295 293
298 301 304 302 303 308 309 311 314 315 318 323 322 320 320 319 318 317 317 316 318 318 315 311 309 308 310 311 311 314 314 312 307 304 301 298 296 294 293 293 290 284 283
297 298 299 298 301 305 306 308 308 311 307 321 320 319 318 317 317 315 315 313 314 313 312 309 308 303 304 306 308 308 306 303 299 297 295 293 291 289 285 283 282 281 281
294 294 295 295 298 302 302 302 304 303 305 309 319 318 317 316 315 314 311 308 307 309 309 306 303 302 302 303 299 297 296 295 295 294 292 290 287 282 281 281 281 281 280
291 291 292 293 295 296 298 298 299 301 302 298 312 319 318 316 313 313 312 308 306 308 306 299 298 298 297 294 292 291 291 291 292 291 290 284 281 281 280 280 280 280 280
288 289 289 291 292 292 292 294 296 298 301 298 297 305 309 309 307 305 305 304 303 303 301 297 293 291 292 291 289 287 288 289 288 283 281 281 280 280 280 280 280 279 279
286 287 287 288 289 289 288 288 290 290 295 297 295 294 295 300 294 295 295 296 293 292 295 290 288 287 286 287 288 288 286 283 281 281 280 280 280 280 280 279 278 278 278
285 284 285 285 286 286 286 285 284 285 287 287 288 291 288 288 290 288 288 290 288 289 290 288 288 287 286 286 285 283 281 279 279 279 279 279 279 279 278 278 278 278 278
283 283 283 283 283 283 283 283 282 282 282 282 282 282 282 282 284 285 286 290 289 289 287 286 285 285 284 283 281 280 279 279 279 279 279 278 278 278 278 278 278 278 278
282 282 282 282 282 282 282 281 280 280 280 280 280 280 280 281 282 283 285 286 286 286 286 285 284 284 283 280 279 278 278 278 278 278 278 278 277 277 277 277 277 277 277
281 281 281 281 281 280 280 280 280 279 279 280 280 280 281 282 283 283 283 284 284 284 285 285 282 279 279 279 278 278 278 278 277 277 277 277 277 277 277 277 277 276 276
281 281 281 280 280 280 280 280 280 280 280 280 280 282 283 283 282 282 282 282 282 282 279 278 278 278 278 278 278 278 278 277 277 276 277 276 276 276 276 276 276 276 275
281 281 280 280 279 280 280 280 280 280 280 280 281 281 281 282 281 280 280 280 279 278 278 278 278 278 278 278 277 277 277 277 277 276 277 276 276 275 275 275 275 274 274
282 281 281 280 280 280 280 279 280 280 280 280 280 280 280 281 281 280 278 278 278 278 277 278 278 278 277 277 277 277 276 276 276 275 275 275 275 275 274 274 273 273 273
282 281 281 280 280 280 280 279 279 279 279 279 280 280 280 279 278 277 277 277 277 276 277 277 277 276 276 276 276 275 275 275 275 275 275 274 274 274 274 273 273 273 272
281 281 280 280 280 280 279 279 279 279 279 278 277 277 277 276 276 276 276 276 276 276 276 276 276 275 275 275 275 275 275 275 275 274 274 274 273 273 273 273 272 272 272

GFSGL_850_thetae_132.txt.gz
Theta_e
314 313 313 313 313 318 321 323 324 327 331 329 331 329 328 327 328 327 326 326 326 326 326 324 326 324 325 324 322 321 321 320 320 319 320 319 318 319 318 318 320 319 319
314 313 313 312 313 315 319 322 323 325 328 328 331 329 328 327 326 326 326 326 326 326 326 327 326 324 324 324 322 322 321 320 320 319 318 319 318 319 319 319 320 319 319
311 311 311 311 311 312 316 320 321 322 325 327 330 329 329 327 327 326 327 326 327 326 323 323 323 323 324 323 323 322 322 320 320 320 318 318 318 318 319 318 319 316 317
308 308 310 310 310 311 313 316 320 321 324 325 328 330 329 327 326 326 325 324 325 324 324 323 323 322 324 324 324 323 323 322 320 320 319 318 319 318 316 316 312 313 314
308 307 307 309 310 310 312 313 318 322 324 325 327 329 330 328 326 325 325 324 325 324 323 323 321 322 323 323 323 323 323 323 321 320 319 318 317 318 318 315 312 315 311
307 307 308 308 309 309 310 312 315 321 323 324 326 329 329 328 325 324 324 325 325 325 325 324 323 323 323 322 323 322 322 321 322 320 320 319 319 317 318 315 313 312 307
306 306 307 307 308 308 309 312 313 318 322 324 325 327 329 327 324 324 324 324 324 323 324 324 324 323 322 323 323 323 321 321 322 322 321 320 320 317 316 316 314 312 309
303 304 304 305 307 307 308 311 313 316 320 323 324 325 327 325 323 324 325 325 324 323 324 323 323 323 322 322 322 321 322 321 320 321 321 321 320 317 317 316 313 311 304
301 302 302 304 306 306 307 311 313 314 319 319 322 324 325 324 323 323 322 322 323 323 323 323 323 322 322 321 321 320 321 320 320 319 317 316 316 316 315 315 308 308 301
299 300 300 302 304 305 306 310 311 312 315 318 321 324 325 323 322 321 321 321 322 323 323 322 322 321 320 320 318 321 320 319 318 316 318 315 314 315 312 310 310 308 301
297 298 300 299 301 303 305 308 310 310 312 316 317 317 323 323 322 321 321 322 321 321 321 321 320 319 318 315 315 319 319 317 318 318 316 314 313 309 306 306 303 299 299
294 296 295 294 298 301 304 307 309 307 310 312 313 315 320 321 321 321 321 320 319 319 319 318 316 316 312 310 311 313 317 318 315 311 307 306 303 300 299 298 297 294 295
291 291 291 294 297 299 303 306 305 303 305 306 307 312 307 319 320 320 318 318 318 317 315 315 315 311 308 306 306 307 309 309 307 306 304 300 298 298 296 295 294 291 285
287 288 291 293 295 296 299 301 301 300 301 301 303 303 304 304 317 318 318 316 313 311 311 311 310 305 304 306 306 305 305 304 304 302 299 295 294 294 294 288 285 283 283
287 288 289 290 291 292 294 295 296 297 297 298 299 301 303 298 308 315 318 316 314 311 310 306 302 300 301 301 299 299 299 299 298 296 295 292 289 287 284 282 282 282 282
286 286 287 287 288 290 290 291 292 294 295 296 297 299 300 300 296 296 309 313 310 309 305 302 299 297 298 297 295 294 293 294 294 293 291 287 284 282 282 281 281 281 281
285 285 285 286 286 287 287 287 287 287 289 291 295 297 298 300 291 289 293 299 300 301 302 296 296 294 292 291 291 291 290 290 290 289 287 285 282 281 281 281 280 280 280
284 284 283 283 284 284 285 284 284 284 284 284 285 290 292 294 290 286 285 287 288 291 292 291 290 289 288 288 288 288 288 287 286 284 282 281 280 280 280 279 279 279 279
283 282 282 282 282 282 283 282 282 282 282 282 282 282 282 282 282 282 283 285 285 285 285 287 287 287 288 288 288 287 287 284 282 280 280 280 280 280 279 279 278 278 278
282 281 281 281 281 281 281 282 281 281 281 280 280 280 280 281 282 283 285 286 287 286 286 287 287 287 287 287 286 285 281 280 280 279 279 279 279 279 279 278 278 278 277
281 281 281 280 280 280 281 280 281 281 281 280 280 280 281 281 281 282 283 283 283 284 284 284 284 285 285 283 281 279 279 279 279 279 279 278 278 278 278 277 277 277 277
281 281 280 280 280 280 280 280 280 280 280 280 280 281 282 282 282 282 282 283 283 283 284 284 283 281 279 279 279 279 279 278 278 278 278 278 277 277 277 277 276 276 276
282 281 280 280 280 280 280 280 280 280 279 279 280 281 281 281 281 282 282 282 282 282 282 281 279 278 278 278 278 278 278 278 278 278 278 277 277 276 276 276 276 275 275
281 281 281 280 280 280 280 280 280 280 280 280 280 280 280 280 281 281 281 282 281 279 278 278 278 278 277 277 277 277 277 277 277 276 276 276 276 276 275 275 275 274 274
281 281 281 280 280 280 280 279 279 279 279 279 280 280 279 280 280 280 278 278 278 278 277 277 277 277 277 277 276 276 276 276 276 275 275 275 275 275 274 274 274 274 274
281 280 280 280 280 279 279 279 279 279 279 279 279 279 279 279 278 278 277 277 277 277 277 277 276 276 276 276 276 275 275 275 275 275 275 274 274 274 273 273 273 273 273

GFSGL_850_thetae_135.txt.gz
Theta_e
313 312 312 311 312 313 317 318 321 322 324 326 327 330 330 330 328 328 330 329 328 327 325 324 325 325 325 326 326 325 323 321 320 319 319 319 319 320 319 318 317 318 319
310 310 310 310 311 311 312 314 318 321 322 324 327 330 329 330 328 327 327 327 327 325 324 324 325 325 325 325 325 325 323 320 320 320 319 319 318 319 319 318 318 319 319
307 307 306 306 308 310 310 311 312 319 320 321 324 326 329 330 329 327 326 326 326 325 325 326 325 324 325 325 325 323 322 321 320 321 319 318 318 317 318 318 318 318 318
307 307 307 307 307 307 309 310 311 313 318 320 321 324 326 328 329 328 326 326 325 325 325 324 323 325 324 323 323 323 322 320 320 320 319 319 318 316 315 317 316 315 316
304 304 306 307 307 307 308 309 309 311 313 319 321 323 325 326 329 329 327 326 325 326 324 324 324 322 322 322 322 323 321 320 320 320 319 318 316 315 315 315 315 315 312
300 302 304 306 307 307 308 308 309 310 311 316 321 323 324 325 327 329 328 326 325 325 324 324 323 325 323 321 321 323 323 320 320 320 320 319 317 316 316 316 315 313 306
299 300 301 303 305 307 307 307 308 308 311 313 318 321 323 324 326 327 329 326 324 324 324 325 324 324 323 323 322 322 322 322 323 321 321 320 319 318 317 317 316 315 314
297 299 300 301 303 305 306 306 307 308 310 312 316 319 321 323 325 324 327 325 323 323 324 324 322 322 324 323 322 321 322 323 322 322 322 322 320 320 319 319 318 314 309
297 297 298 300 301 304 305 305 306 307 309 311 313 317 319 323 324 324 324 325 324 325 325 324 321 323 323 323 322 322 321 321 321 321 321 320 320 320 319 317 314 313 305
295 295 296 297 299 302 304 305 305 306 308 309 312 313 317 321 323 319 321 324 325 324 322 321 322 322 323 322 322 321 320 321 320 320 319 319 318 316 318 315 317 313 311
292 293 294 295 296 299 301 303 305 305 306 307 309 310 314 316 319 323 319 323 323 322 321 320 321 322 322 320 321 319 319 318 318 316 314 313 318 309 311 312 312 311 312
291 291 293 294 295 296 298 301 303 304 305 304 307 308 312 313 314 319 320 323 322 321 321 321 320 321 320 319 318 315 313 313 312 309 308 308 311 308 312 307 305 304 303
290 290 291 292 292 293 295 297 300 300 301 303 304 305 309 309 310 315 319 314 321 320 319 319 319 318 318 316 313 308 307 307 307 307 306 305 305 307 303 300 298 299 298
289 288 288 289 290 291 291 292 294 294 297 300 300 300 302 304 305 307 308 312 312 318 316 317 316 315 313 312 309 304 303 303 305 306 305 301 301 300 298 297 299 297 295
286 286 286 286 286 287 288 288 289 291 293 296 298 297 297 299 301 303 302 303 304 311 317 313 310 309 308 305 302 299 300 301 302 302 301 299 297 295 294 292 293 290 289
284 284 284 284 284 284 285 287 287 288 291 294 296 295 295 296 297 299 299 301 299 299 304 311 308 304 304 301 298 297 297 298 298 296 295 294 293 292 290 285 284 283 283
282 282 282 282 283 283 284 284 285 286 287 289 291 292 291 293 296 297 299 299 295 293 293 301 305 300 299 297 296 296 294 294 294 294 294 291 289 288 284 281 281 281 281
282 281 281 281 281 282 282 283 283 284 284 283 284 285 285 286 288 288 291 295 293 289 290 289 292 295 293 293 293 292 291 290 290 290 288 286 285 285 284 281 280 281 280
281 281 280 281 281 281 282 282 282 282 282 282 282 282 282 282 282 283 285 288 290 288 285 285 285 285 287 287 288 288 289 288 288 287 286 284 283 281 280 280 280 279 279
281 280 280 280 281 281 281 281 281 281 281 281 281 281 281 282 281 281 283 285 286 287 286 285 283 284 285 287 287 287 286 286 285 283 281 280 280 280 280 279 279 279 279
281 281 280 280 280 280 280 280 280 280 280 280 280 280 280 281 281 281 281 282 283 284 284 285 285 286 286 286 285 285 284 281 280 280 280 279 279 279 279 278 278 278 278
281 281 280 280 280 280 280 280 280 280 279 279 278 279 279 280 279 280 280 280 280 282 282 283 284 284 285 285 284 282 280 279 279 279 279 278 278 278 278 277 277 277 277
281 281 280 280 280 280 280 280 279 279 279 279 278 279 279 279 279 280 280 280 281 282 283 283 284 283 281 279 279 279 279 279 278 278 278 278 277 277 277 277 276 276 276
281 280 280 280 280 280 279 279 279 279 279 279 279 279 279 279 279 280 280 281 281 281 281 279 279 278 278 278 278 278 278 278 277 277 277 277 277 276 276 276 275 275 275
280 280 280 279 279 279 279 279 279 279 279 279 278 278 278 278 279 279 279 279 279 278 277 278 278 278 277 277 277 277 277 277 276 276 276 276 276 275 275 275 275 275 275
279 279 279 279 279 278 279 279 278 278 278 278 278 278 278 279 278 278 278 278 278 278 277 277 277 277 277 276 276 276 276 275 275 275 275 275 275 275 275 275 274 274 273

GFSGL_850_thetae_138.txt.gz
Theta_e
312 311 311 310 310 311 312 313 316 318 321 322 323 326 328 329 329 328 328 328 328 329 331 331 330 328 328 329 324 324 325 323 321 321 321 322 321 320 319 319 318 314 318
308 307 307 307 307 308 309 310 312 313 317 320 322 324 326 327 328 328 329 328 328 329 331 330 327 326 326 324 325 326 325 325 322 321 321 321 320 320 319 319 319 316 317
307 307 307 306 306 306 306 308 309 310 312 316 320 322 324 327 328 329 329 328 328 328 331 328 327 326 323 323 325 325 325 325 324 322 321 321 319 319 320 319 319 318 317
306 306 307 306 306 306 306 306 307 309 310 311 313 319 320 323 325 328 328 329 327 327 327 327 326 323 323 324 325 325 325 323 321 320 321 319 317 318 318 318 317 316 317
302 303 303 304 305 305 306 306 307 307 308 309 311 313 318 322 325 325 327 328 328 326 325 325 325 324 324 324 324 323 323 323 322 321 318 316 315 315 317 316 317 316 314
298 299 302 303 304 304 304 305 306 307 307 308 310 311 314 319 322 324 324 326 328 327 326 324 324 323 325 323 323 322 322 322 322 321 319 319 317 316 317 317 317 313 307
296 298 300 301 302 302 303 305 306 306 307 307 309 311 314 317 320 322 323 325 326 327 327 325 324 324 323 322 321 322 322 321 322 322 320 319 318 318 318 316 316 316 316
296 297 297 298 298 299 300 302 305 305 306 307 308 310 312 316 319 320 322 324 325 325 327 326 324 323 324 323 321 322 323 321 322 321 321 321 320 320 320 319 317 315 311
291 292 294 295 296 298 300 302 304 305 305 306 307 309 310 312 316 319 321 322 325 324 321 324 323 322 324 321 322 322 323 322 321 322 321 321 320 320 318 314 314 312 304
290 291 292 293 294 295 298 300 301 302 303 305 306 307 309 311 312 315 321 322 321 322 320 323 324 322 323 321 322 321 322 322 321 322 321 319 317 314 315 315 319 315 310
289 290 290 291 292 293 295 296 298 299 301 303 305 306 307 309 310 313 317 319 321 323 323 323 325 324 323 322 321 322 321 321 321 320 318 314 312 309 307 307 310 308 311
289 289 289 288 289 289 290 291 294 295 298 301 303 305 306 306 308 311 314 316 318 319 321 324 322 321 320 319 321 321 320 319 319 317 315 310 307 305 303 304 302 303 304
287 287 287 287 288 287 287 288 290 293 295 297 298 301 304 304 304 308 311 311 315 317 319 320 321 320 320 320 320 319 318 317 314 311 308 306 305 303 301 298 298 300 301
286 286 286 286 286 287 287 287 288 289 291 293 295 296 298 300 302 304 305 307 310 312 313 314 318 319 319 318 317 316 314 312 309 307 305 302 299 297 297 298 299 301 301
284 284 284 284 285 285 286 285 285 286 287 286 290 293 294 297 298 298 299 301 305 307 310 310 310 312 315 313 312 310 307 304 303 301 301 299 296 296 296 297 298 298 298
283 282 282 282 282 283 283 285 284 285 286 286 289 290 293 294 294 295 296 297 299 301 302 306 303 303 305 309 308 305 300 300 298 298 298 297 296 296 295 293 294 294 295
282 282 282 282 282 282 282 282 283 284 284 284 286 289 291 290 291 291 292 293 295 297 298 299 297 295 297 298 302 301 298 296 297 296 296 294 293 292 292 292 292 292 290
283 282 282 281 281 281 281 281 282 282 282 283 283 284 284 284 284 284 285 289 291 291 293 294 293 292 292 292 293 294 295 293 293 293 292 291 291 291 289 286 283 283 282
283 282 281 280 280 280 280 281 281 281 281 281 282 282 283 283 283 283 283 285 286 287 287 289 289 289 287 286 286 287 289 289 290 290 290 289 287 283 283 283 283 282 281
282 281 281 280 280 280 280 280 280 280 280 280 280 280 280 281 282 281 282 282 283 284 285 286 285 286 285 284 284 284 286 286 287 287 287 286 285 284 282 281 280 280 279
282 281 281 280 280 279 279 279 279 279 279 278 278 278 278 279 279 279 280 280 280 281 281 282 283 284 285 286 285 285 285 285 285 285 283 281 280 280 280 279 279 279 279
281 281 281 280 280 279 279 279 279 278 278 278 277 277 278 278 278 278 278 279 279 279 280 281 281 281 282 284 284 284 284 283 283 282 281 279 279 279 279 279 278 278 278
280 280 280 280 279 279 279 279 279 278 278 277 277 277 277 277 277 277 278 278 279 280 280 281 282 282 283 283 283 283 281 279 279 279 279 279 279 278 278 278 278 277 277
279 279 279 279 279 279 279 278 278 278 278 277 277 277 277 277 277 277 278 278 279 280 280 281 280 280 279 279 278 278 278 278 278 278 279 279 278 278 277 277 277 276 276
279 278 278 278 278 278 278 278 278 278 278 278 277 278 278 278 278 278 278 278 279 279 279 279 279 278 277 277 278 279 280 279 278 277 277 277 277 276 276 276 276 275 275
278 277 277 277 277 277 277 277 277 277 277 277 277 277 278 278 278 278 278 279 279 278 278 277 277 278 279 279 278 277 276 276 276 276 276 276 276 276 275 275 275 274 274

GFSGL_850_thetae_141.txt.gz
Theta_e
311 309 310 310 310 310 311 312 313 315 317 319 322 323 324 327 329 329 329 328 329 329 329 329 329 331 330 331 331 330 329 327 325 324 323 323 322 323 322 320 318 315 315
303 306 307 306 306 306 306 308 309 310 311 313 316 319 322 324 325 328 329 329 329 328 329 329 330 330 329 331 331 328 328 327 325 323 323 323 323 323 322 321 319 317 316
299 304 306 306 306 306 305 305 305 307 309 310 311 314 319 321 323 326 328 329 329 329 328 328 328 329 330 330 328 327 327 325 324 325 324 323 322 321 321 321 320 319 318
301 304 305 306 306 306 306 306 306 306 306 308 309 310 312 317 320 324 325 327 328 328 328 328 328 328 329 329 327 326 324 322 325 324 324 323 322 321 319 319 319 318 318
297 299 301 302 303 304 305 306 306 306 307 307 307 309 310 312 314 321 321 324 326 327 327 327 327 328 328 327 325 323 323 324 324 324 323 322 322 320 318 317 313 317 316
293 296 298 299 301 302 303 304 305 306 306 306 306 307 309 310 314 316 320 323 324 325 326 327 326 326 326 326 324 324 325 325 325 325 323 322 322 321 317 315 313 312 310
292 294 298 300 300 301 301 302 303 305 305 305 305 307 308 310 312 315 317 320 322 324 325 327 327 326 325 325 325 324 325 324 323 323 322 321 321 321 320 315 313 313 315
289 291 294 296 297 298 300 301 302 302 303 304 305 306 307 308 310 313 317 318 320 322 323 323 325 325 324 324 323 322 323 322 322 321 322 322 321 321 321 320 317 309 307
289 290 292 293 293 293 295 297 299 300 301 302 304 306 306 307 308 310 312 317 319 320 321 323 323 321 318 324 323 323 322 322 322 322 322 321 321 321 319 315 310 307 303
288 288 288 289 290 291 292 293 295 296 298 300 302 304 305 306 306 308 310 312 315 319 320 323 323 322 324 323 323 323 322 321 322 322 322 322 321 320 319 318 315 311 305
286 286 287 289 289 289 290 292 293 294 296 298 300 301 302 305 306 306 308 309 312 316 320 321 321 320 322 323 323 323 321 321 322 322 321 321 319 316 314 311 310 308 307
285 286 286 286 287 287 287 288 290 291 293 295 297 299 301 302 304 305 306 307 309 314 317 319 321 320 319 323 323 322 322 322 321 321 320 319 316 312 310 308 305 302 302
285 285 285 286 286 286 286 286 286 288 289 289 291 295 298 298 301 301 302 305 308 311 313 316 316 317 318 320 321 321 321 320 321 320 319 318 316 312 309 306 301 300 299
284 285 285 285 285 285 285 284 285 285 285 283 285 288 291 294 297 296 299 302 305 307 309 312 315 314 316 319 317 319 319 319 318 317 316 313 309 305 302 300 298 297 297
285 284 285 285 284 284 285 283 283 284 283 283 283 284 287 289 292 294 296 299 300 301 300 303 308 307 309 311 311 316 316 315 314 312 309 307 303 301 298 296 296 296 296
284 284 283 283 282 282 283 284 283 283 283 283 284 284 286 288 291 292 294 296 295 295 295 297 301 302 301 305 309 309 310 309 308 306 304 301 299 297 295 293 294 295 295
282 281 281 281 281 281 281 281 282 283 282 282 283 283 284 285 286 287 288 291 291 291 292 293 296 298 298 298 302 301 302 301 301 301 301 296 295 293 293 292 292 293 292
282 282 282 281 281 281 281 280 281 281 281 281 281 281 282 283 283 284 284 285 286 287 288 290 292 293 294 294 294 293 295 294 295 295 295 293 292 292 291 291 291 291 290
282 282 282 281 281 281 281 281 280 280 279 279 280 281 281 281 281 282 283 283 284 285 285 286 288 289 289 288 288 289 290 288 289 290 290 290 290 290 290 290 289 288 287
282 281 281 281 281 281 280 280 280 279 279 278 278 278 278 279 280 280 280 281 281 282 282 283 284 285 286 286 286 286 285 284 285 286 286 287 288 288 287 286 283 281 281
281 281 281 280 280 280 280 279 279 278 278 277 276 277 277 277 278 278 278 279 279 279 280 280 281 282 282 283 284 285 285 284 285 285 285 285 285 284 283 283 283 283 281
280 280 280 280 279 279 279 279 278 278 277 277 277 276 277 277 277 277 277 277 278 278 279 280 280 280 280 281 282 283 284 285 284 284 284 284 284 283 281 279 279 279 279
279 279 279 279 279 278 278 278 278 278 277 277 277 277 277 277 277 277 277 277 277 277 278 279 279 280 280 281 281 282 282 283 283 283 282 281 279 279 279 280 280 279 278
278 279 278 278 278 278 278 278 277 277 277 277 277 277 277 277 277 277 277 277 277 278 278 279 279 280 281 281 282 282 282 281 280 279 279 279 280 280 279 278 278 278 278
277 278 278 278 277 277 277 277 277 277 277 277 277 277 277 277 277 277 277 278 278 278 278 278 278 278 278 278 278 278 278 279 279 279 279 279 279 279 279 278 277 277 276
276 276 277 277 277 277 277 277 277 277 277 276 277 277 277 277 277 277 277 278 278 278 278 278 278 278 278 278 278 279 279 279 278 278 279 279 278 277 277 277 276 276 276